GFSSGP_700_spd_000.txt.gz
Wind_Speed
5 5 7 8 5 9 8 6 8 5 2 5 5 6 7 7 7 5 4 2 1 4 2 1 1 1 3 9 20 18 15 15 11 13 13 13 14 18 16 12 13 13 11 12 12 12 11 12 12
2 7 8 9 8 11 11 8 5 2 3 7 9 6 6 6 8 9 9 5 2 2 3 2 4 9 9 8 10 16 24 17 17 17 15 22 23 36 40 14 15 15 12 12 13 14 14 14 14
4 9 7 6 8 9 5 5 5 2 1 3 6 7 9 10 12 11 9 5 5 7 6 12 12 15 13 11 12 16 20 19 16 17 19 22 21 23 19 12 14 14 15 16 15 16 17 17 16
7 10 5 3 5 2 3 7 11 3 4 5 7 9 10 10 10 8 5 2 2 5 7 7 9 9 8 9 14 12 18 21 18 21 19 20 18 20 18 19 21 22 26 24 22 20 18 12 16
9 10 6 8 7 7 7 5 8 3 6 9 8 7 8 8 8 6 1 3 5 6 5 8 7 5 9 11 15 14 16 18 19 22 24 21 19 20 23 21 22 24 25 25 26 23 20 16 20
3 9 11 12 12 11 11 11 9 5 6 12 8 9 8 7 6 2 1 3 1 1 3 4 4 2 2 5 8 12 13 17 21 23 26 26 24 21 19 23 25 25 25 23 21 27 26 24 23
8 11 13 12 12 9 9 8 6 7 3 2 7 5 5 6 3 4 5 3 4 3 3 3 3 9 14 17 18 18 17 17 19 24 26 27 24 25 24 23 23 22 22 20 21 27 27 27 25
16 11 12 9 8 7 6 5 4 4 4 3 0 3 6 6 6 5 5 5 5 3 2 6 10 13 17 22 22 23 24 20 18 18 25 29 30 28 28 27 25 24 24 23 24 26 27 29 29
11 10 10 8 5 4 3 2 3 5 6 5 4 3 2 4 6 4 5 4 5 7 9 11 14 19 22 22 23 22 20 20 21 20 18 21 24 30 33 34 33 31 24 25 27 29 31 34 36
10 8 7 8 5 1 3 3 6 6 9 10 9 7 6 4 6 6 6 8 8 10 12 14 19 23 23 23 21 19 18 20 20 21 21 25 28 25 31 37 35 32 36 29 25 31 31 33 36
7 7 7 3 2 1 3 4 5 3 4 6 6 7 8 9 11 12 12 13 13 14 17 21 21 22 20 16 13 15 16 19 20 21 23 24 24 25 26 39 54 33 45 16 29 24 30 35 36
6 6 4 1 4 5 7 7 7 4 7 7 6 5 6 8 11 12 12 14 17 20 22 20 20 15 11 10 12 13 15 18 20 20 21 23 27 28 27 28 31 29 45 30 32 29 11 39 24
4 2 2 3 3 3 3 4 7 9 9 7 8 8 9 11 13 15 18 20 20 19 19 15 10 12 9 9 10 12 14 16 17 17 19 21 24 24 24 24 26 26 26 39 41 32 38 29 16
2 4 6 6 6 8 8 12 9 11 11 12 12 12 13 15 17 18 19 20 19 17 12 10 12 10 10 11 12 14 16 18 19 20 21 22 23 25 26 25 25 24 27 22 16 15 20 26 32
4 4 6 8 10 10 12 8 6 14 12 13 14 16 17 18 19 20 22 22 16 13 13 15 14 12 12 12 13 14 16 18 19 21 22 22 23 26 28 28 28 27 27 26 26 23 19 17 12
4 4 4 8 10 11 13 9 10 14 16 14 16 16 18 21 22 23 21 16 13 15 18 18 18 17 17 17 19 20 21 22 24 26 27 27 28 29 32 34 34 32 31 31 29 26 24 25 28
6 5 7 9 13 17 15 18 8 19 18 18 17 19 19 18 18 19 17 17 19 21 21 23 23 23 23 24 25 26 27 28 29 29 29 28 29 32 35 36 34 32 33 32 29 26 24 25 29
7 8 11 13 12 19 21 22 18 17 24 23 20 18 20 19 18 20 20 22 24 25 25 27 27 28 28 28 29 30 31 32 32 32 31 30 32 35 38 34 33 35 34 33 31 30 30 30 31
11 8 14 13 15 25 22 26 20 14 15 18 21 18 17 18 20 21 25 27 26 26 27 29 30 30 31 30 30 31 33 33 33 33 32 33 35 36 36 37 36 37 38 37 36 35 34 33 35
14 18 16 10 18 26 23 19 6 5 8 8 8 11 13 14 17 21 22 23 27 29 31 32 32 33 33 33 33 33 33 34 35 36 38 38 36 36 39 41 40 38 36 38 37 36 35 36 37
14 12 17 22 30 16 21 9 10 5 12 3 6 11 12 14 14 18 20 23 25 27 29 31 34 34 35 35 34 33 33 34 36 39 40 43 40 42 44 42 41 41 40 36 33 32 32 34 35
11 15 23 24 20 11 15 10 6 9 8 1 9 18 10 12 19 19 21 26 30 32 32 30 31 33 33 31 31 30 31 32 36 38 40 40 44 44 43 42 41 39 37 36 35 31 30 32 33
10 22 23 21 9 11 4 4 3 4 5 6 13 16 17 19 19 24 30 31 31 29 26 24 27 31 32 29 29 28 31 35 38 41 41 41 41 42 42 42 42 41 40 39 38 36 33 31 34
17 19 15 15 2 5 5 5 4 4 7 8 11 17 19 21 23 25 28 26 27 27 31 35 35 34 33 32 31 31 34 38 40 40 39 42 42 43 44 45 45 45 44 43 43 42 42 39 38
18 13 7 3 3 6 4 12 9 9 10 13 15 16 20 22 22 26 27 23 26 29 30 31 32 32 35 34 35 37 39 38 39 40 42 43 45 47 47 48 48 48 47 46 45 45 45 45 44
8 6 3 5 5 13 21 9 4 10 9 16 19 23 27 27 29 32 28 25 28 32 31 31 32 32 35 37 40 42 41 39 41 42 44 47 47 50 51 50 50 49 47 46 45 46 47 48 49
7 4 9 6 12 7 8 11 23 5 13 16 18 25 25 37 38 36 32 29 32 35 35 32 32 35 37 39 42 42 42 42 43 41 45 48 51 54 51 51 51 49 48 46 46 48 49 48 47
12 12 4 3 5 6 10 22 14 12 14 16 25 23 34 37 38 36 38 38 38 39 38 36 33 36 39 43 42 43 43 40 41 41 48 51 51 50 50 49 48 47 46 46 45 46 46 45 44
13 7 4 7 7 5 7 11 13 29 18 29 32 36 37 32 35 40 39 38 42 44 43 37 35 36 38 42 42 41 39 38 41 48 47 47 49 47 47 46 46 46 45 44 44 44 44 44 45
7 9 7 6 7 15 16 40 32 16 30 37 38 36 34 33 39 45 47 48 47 45 44 43 39 34 37 41 39 40 39 44 43 42 45 46 46 46 46 46 46 45 44 45 46 47 46 46 46

GFSSGP_700_spd_003.txt.gz
Wind_Speed
5 6 11 12 7 10 17 7 2 3 6 4 4 4 7 10 1 4 5 1 2 3 3 3 5 4 4 9 10 14 14 7 10 12 12 13 19 17 18 19 12 18 13 12 14 12 13 12 11
4 11 13 6 11 11 9 9 8 3 3 2 5 5 3 8 10 4 5 3 2 2 2 4 3 6 7 9 11 15 17 15 12 16 22 24 23 28 22 28 28 34 21 16 14 12 15 16 15
8 12 6 5 10 7 11 6 4 3 2 4 2 4 4 4 6 8 7 3 2 3 5 7 7 9 9 12 17 16 15 18 11 13 20 18 22 21 23 24 24 34 27 14 14 14 15 18 19
13 6 1 8 4 4 5 2 3 2 3 3 4 4 8 7 8 10 7 3 3 5 6 6 8 11 13 14 15 14 16 18 19 17 17 13 14 17 21 22 18 16 21 22 20 15 20 20 24
8 4 4 4 4 3 2 2 4 5 4 4 5 7 10 11 9 9 6 4 4 7 9 9 9 11 10 9 12 12 14 16 17 19 20 16 14 12 17 20 21 16 27 24 16 25 23 23 25
2 4 9 9 7 8 7 7 5 2 3 4 7 3 6 7 6 5 5 8 9 11 10 8 7 7 8 9 12 13 14 16 19 20 23 24 18 15 16 20 24 23 23 23 26 26 28 28 25
2 4 9 8 9 6 5 6 6 3 3 2 7 7 8 6 7 5 8 9 9 8 6 6 7 9 11 14 16 19 20 20 20 21 21 21 22 18 20 24 26 27 28 25 26 28 28 28 27
7 5 8 6 7 5 3 2 3 4 2 4 8 5 9 7 8 8 8 10 9 9 8 9 12 14 16 20 20 21 20 20 20 19 19 21 22 20 19 23 24 28 29 31 31 29 27 27 29
4 6 7 5 1 2 1 2 5 7 4 7 7 9 13 10 8 9 9 11 10 10 11 13 15 17 20 24 25 25 22 19 17 17 19 18 20 20 23 21 25 26 29 34 34 33 29 31 31
2 4 2 1 0 2 4 3 4 4 8 8 11 12 11 10 9 10 10 11 13 12 14 16 18 22 24 24 23 21 16 14 15 15 15 17 17 17 18 18 19 20 31 32 37 44 34 32 33
4 6 3 1 5 4 6 7 7 6 8 10 8 10 11 11 11 12 15 16 15 15 17 20 24 23 22 20 15 15 13 14 14 15 15 16 17 19 20 19 18 22 28 29 36 44 31 38 33
5 5 2 3 5 4 6 8 8 10 10 15 8 10 10 10 13 14 15 16 17 19 22 23 23 20 14 14 15 16 14 14 16 16 16 17 18 20 22 20 21 23 24 22 32 17 55 24 21
4 2 3 4 5 4 7 7 10 11 14 15 15 15 14 14 14 16 17 19 21 21 22 20 14 11 13 11 12 14 13 14 16 17 17 18 19 20 20 21 21 24 27 30 32 22 16 30 42
1 1 2 4 6 8 9 12 13 7 14 15 17 16 17 18 18 20 21 23 21 22 19 15 14 16 16 15 16 16 17 17 19 20 20 21 20 20 22 24 24 26 28 29 28 25 22 16 16
1 3 5 5 5 6 13 14 9 8 12 9 13 15 17 18 20 21 24 23 24 23 19 17 19 19 19 20 21 22 22 23 23 24 24 25 25 26 27 27 27 27 29 30 30 29 25 24 21
3 1 6 7 7 9 10 11 7 12 12 11 12 15 16 18 21 23 24 24 23 20 20 23 24 25 24 26 26 27 29 30 31 32 33 33 32 31 30 30 31 32 31 29 30 29 28 26 25
4 10 8 11 12 11 9 17 10 15 18 18 17 17 19 20 20 20 24 22 22 22 24 27 28 29 29 30 31 31 32 35 36 36 36 36 35 34 33 32 32 34 35 32 29 32 33 31 29
10 12 12 15 11 15 19 20 18 18 19 20 20 20 17 19 21 20 22 24 24 26 30 33 32 33 32 34 34 36 36 37 38 38 39 35 35 34 33 36 37 38 38 38 37 34 35 37 35
8 12 16 15 12 21 16 22 16 13 9 10 10 13 12 13 15 20 25 24 27 33 32 33 35 36 35 35 36 38 38 39 37 38 38 36 35 36 35 36 38 39 39 40 40 38 37 38 40
13 15 14 13 18 22 18 18 9 1 6 5 2 1 6 12 14 18 19 20 22 26 28 30 31 35 33 36 36 36 37 38 37 38 40 36 36 36 37 40 38 39 40 40 41 39 36 37 38
15 11 19 21 24 15 17 3 3 4 5 2 1 9 12 15 13 17 22 24 24 26 32 35 37 36 35 30 36 35 34 34 37 37 38 39 41 40 40 41 39 40 38 37 36 37 37 35 36
12 16 18 22 22 14 15 10 2 1 3 0 2 6 10 14 19 24 25 28 32 34 37 33 30 28 30 31 30 36 34 35 29 21 26 33 36 39 38 36 37 38 37 37 37 32 35 36 35
12 20 19 17 15 14 2 7 7 3 2 5 7 9 10 19 22 24 28 31 33 35 33 32 31 33 35 39 39 35 36 34 34 35 39 41 39 40 41 42 42 43 42 41 40 40 38 36 36
17 22 20 7 5 7 7 4 13 6 5 7 8 12 17 18 21 21 21 25 26 29 28 31 31 31 35 36 39 35 37 36 37 40 44 43 41 43 43 46 47 48 50 49 47 44 43 43 41
16 15 8 4 6 8 2 10 17 11 11 9 10 12 12 15 15 18 21 22 20 27 32 35 35 36 34 40 39 39 41 41 42 43 46 42 41 42 45 47 48 51 53 52 50 49 47 45 44
9 8 4 5 6 16 23 10 6 8 10 9 11 11 16 14 19 21 22 22 23 26 31 35 41 43 38 38 43 42 45 46 45 47 50 46 44 47 46 48 51 55 55 53 51 49 48 46 46
6 7 7 10 14 9 11 15 19 14 10 13 12 16 17 20 25 24 24 22 23 27 32 41 44 45 41 37 44 46 48 47 47 54 49 48 49 46 48 52 55 54 54 52 50 48 48 47 46
7 13 6 5 5 11 14 21 17 11 13 17 20 19 22 24 24 25 24 24 29 40 38 38 41 41 39 38 46 47 51 50 48 51 46 46 45 48 50 52 51 50 48 47 46 46 45 43 42
14 15 9 10 12 7 10 11 14 30 28 23 21 23 31 29 26 24 26 28 33 38 41 37 38 39 39 43 48 47 50 48 50 48 45 45 48 49 48 47 48 48 47 45 45 44 42 41 41
5 8 14 16 12 18 30 40 24 14 12 20 28 35 29 32 28 26 29 37 37 34 42 44 45 42 43 46 44 48 47 49 50 46 47 47 43 44 46 48 50 49 47 46 45 43 42 42 44

GFSSGP_700_spd_006.txt.gz
Wind_Speed
5 5 10 12 5 9 18 12 7 7 4 2 4 12 6 5 3 5 4 7 4 4 3 5 6 6 7 7 9 7 8 10 7 9 8 7 8 11 16 22 26 30 16 15 16 18 17 16 12
4 7 12 6 9 16 8 9 7 9 6 4 2 2 10 13 10 5 3 2 5 3 3 4 5 7 8 11 13 15 18 16 14 10 12 11 14 17 21 25 25 19 17 17 26 23 17 16 14
10 15 11 6 13 4 8 11 9 7 4 3 5 9 5 3 1 3 4 2 2 3 5 6 7 10 10 10 10 11 14 13 12 10 12 10 12 16 15 21 19 19 17 19 24 29 11 14 15
19 5 5 8 4 11 6 5 5 2 1 6 2 11 8 5 4 5 5 1 3 4 6 9 11 12 15 15 17 15 14 15 16 13 14 16 11 13 16 20 20 19 19 23 26 31 27 16 16
11 4 12 3 13 9 5 2 1 2 4 4 5 9 3 3 3 2 3 5 6 8 11 14 16 19 19 17 17 18 17 15 16 16 16 16 11 13 14 16 19 22 20 20 26 36 41 23 18
6 5 14 10 7 5 5 4 2 2 3 4 10 4 3 3 3 5 5 6 10 11 13 15 16 15 16 16 16 17 18 19 20 19 18 19 17 11 15 17 18 21 23 24 30 30 22 24 23
9 11 6 10 6 4 4 4 4 3 3 4 9 8 9 14 3 5 6 9 12 14 16 17 14 14 14 16 19 20 21 22 23 24 21 19 19 16 15 18 22 24 24 23 27 25 23 23 28
5 5 8 5 6 5 2 3 1 2 5 9 7 9 7 8 4 9 11 13 15 16 16 14 17 20 20 19 20 22 22 23 22 22 21 18 18 19 20 18 18 20 23 25 25 27 28 28 31
6 5 9 6 7 5 3 3 5 10 3 7 9 4 7 9 12 12 14 15 16 14 13 14 16 17 19 25 26 24 23 22 18 17 18 18 15 14 14 14 14 13 18 23 25 27 28 30 34
10 8 10 3 2 6 5 2 6 6 8 9 12 16 19 16 14 13 9 7 16 14 15 16 16 19 22 26 26 25 18 15 13 13 13 14 13 12 12 12 14 14 13 15 24 29 27 28 37
7 12 7 2 7 3 6 7 6 6 6 3 5 11 18 13 10 7 7 12 20 17 18 18 20 23 24 25 23 21 16 16 14 15 14 13 12 13 14 15 15 16 16 16 18 16 24 33 43
4 6 3 2 4 3 5 8 6 6 9 15 16 8 14 10 10 12 13 19 19 20 22 21 22 24 22 17 19 20 20 18 17 15 16 16 16 17 18 18 18 19 20 20 20 19 21 30 29
5 3 3 4 6 5 7 6 10 11 8 15 14 16 15 13 13 18 18 20 19 20 22 22 21 18 13 18 18 20 22 22 22 21 20 21 21 23 23 23 25 26 26 27 27 27 28 25 24
3 1 2 2 5 9 13 13 11 10 10 15 9 11 12 16 15 18 19 18 20 21 22 23 19 16 19 20 20 21 23 25 26 25 24 24 23 24 24 26 27 25 26 25 25 26 27 26 24
2 5 8 3 5 11 13 19 8 7 14 15 12 13 12 14 17 18 19 20 21 22 23 20 19 19 22 24 25 25 25 27 29 29 29 29 28 29 30 32 33 33 30 29 29 27 26 28 26
3 4 11 7 14 9 11 14 5 10 13 17 14 15 18 19 17 20 22 21 23 23 24 22 24 27 27 30 29 31 31 32 33 35 33 34 34 34 35 34 33 32 33 31 29 29 28 28 31
4 11 11 12 10 10 11 20 16 14 19 21 20 16 17 21 22 25 24 24 24 24 26 25 26 30 33 33 32 35 35 35 38 37 38 37 37 36 37 38 36 34 34 36 35 35 34 31 31
12 12 13 14 12 18 17 17 16 18 16 17 18 18 18 17 17 24 26 31 27 25 27 28 32 35 35 34 33 36 36 36 39 40 42 38 38 36 35 37 36 35 36 38 36 37 37 37 36
12 14 17 15 15 21 21 22 15 12 10 9 12 12 16 14 13 15 23 32 25 23 27 28 30 30 32 32 33 34 36 36 38 37 40 40 38 36 33 34 37 37 37 38 39 39 39 37 37
13 16 14 15 20 21 23 24 14 10 8 9 2 2 4 8 12 13 22 24 22 24 24 25 29 35 36 32 32 32 33 35 37 37 40 41 36 37 39 37 37 38 39 40 40 40 39 35 35
14 7 16 21 23 9 16 14 11 6 6 10 1 3 8 15 12 14 19 23 28 28 28 31 35 34 35 34 27 34 36 32 35 38 37 36 32 35 35 38 38 39 41 39 37 36 35 37 35
12 16 21 20 18 15 16 10 7 7 6 4 1 3 8 10 15 19 22 26 28 33 36 34 34 34 34 37 39 32 38 40 35 36 37 31 28 32 36 37 34 33 38 40 39 37 37 39 41
14 20 23 23 19 16 4 7 11 7 6 5 3 9 13 19 22 22 22 24 31 31 32 30 29 31 32 34 37 40 34 38 37 37 39 37 37 42 45 45 48 42 37 43 44 43 42 42 44
18 23 20 4 4 4 8 3 16 11 4 5 8 9 16 24 26 25 21 29 31 30 31 28 32 32 32 33 34 39 41 36 41 42 45 47 48 48 50 54 53 42 40 42 44 46 49 50 48
13 17 8 5 4 5 14 14 19 22 14 10 11 17 22 25 19 20 28 28 25 35 30 34 40 42 41 39 37 39 40 42 41 45 49 49 52 51 47 49 53 42 42 42 46 49 52 52 50
13 8 4 4 4 13 27 8 11 6 16 17 18 23 18 11 13 28 24 25 29 29 33 36 35 36 40 43 46 46 43 45 46 47 51 54 49 50 55 58 53 43 47 48 48 52 53 51 48
8 6 7 9 15 9 8 15 22 10 7 9 19 20 16 25 26 25 28 24 26 29 34 41 43 34 36 38 41 44 46 49 52 53 56 51 49 51 57 57 49 46 45 48 49 51 50 48 46
9 10 5 3 3 6 11 22 18 16 20 28 27 20 22 24 31 28 29 28 29 34 46 49 44 43 40 40 41 43 46 51 51 55 56 53 54 56 52 50 44 43 45 46 48 49 47 45 44
9 13 11 13 13 5 6 9 22 37 23 15 26 33 34 32 32 33 28 29 37 43 53 47 49 43 41 41 41 45 46 45 45 51 53 54 53 51 45 41 41 42 45 46 47 47 44 43 42
8 9 12 13 13 24 29 32 16 14 12 34 41 34 38 35 32 24 26 34 46 55 53 50 50 49 47 46 47 47 44 39 42 47 51 50 44 42 42 39 41 44 47 48 49 46 43 41 41

GFSSGP_700_spd_009.txt.gz
Wind_Speed
3 1 7 9 5 3 10 5 7 6 5 12 7 1 4 10 11 5 9 8 4 6 6 6 5 5 7 7 7 8 10 12 13 8 8 6 7 10 13 15 14 22 21 29 28 23 16 19 15
2 7 12 12 3 6 13 15 14 7 13 7 7 8 5 11 6 5 7 8 7 9 6 4 2 2 4 7 9 11 13 14 14 12 9 9 10 11 15 17 19 22 22 22 21 17 28 29 21
13 17 14 4 5 7 14 13 12 12 5 7 4 7 2 5 9 6 13 10 8 6 4 4 5 7 10 13 16 16 17 19 19 15 11 9 10 11 13 14 14 16 17 22 16 20 21 19 21
16 9 2 5 15 15 15 12 12 11 12 3 4 2 5 3 9 9 9 7 3 2 5 7 11 13 16 18 19 21 20 17 16 15 13 12 12 10 11 14 14 15 18 19 17 18 23 25 26
7 5 4 8 11 10 12 7 7 7 8 1 6 2 4 6 1 3 4 3 5 8 10 12 14 16 16 18 18 18 18 17 17 18 15 15 14 11 11 14 15 16 17 17 15 16 18 24 29
9 13 16 2 14 8 5 9 9 9 2 3 9 11 10 6 2 1 5 6 5 7 10 13 16 17 18 17 16 16 17 18 20 21 20 18 16 13 13 17 17 17 18 18 18 18 20 21 22
9 13 14 8 5 4 7 2 5 10 6 5 8 5 7 9 6 6 5 10 12 13 13 15 17 18 18 18 18 19 19 19 19 20 21 17 16 14 13 14 16 17 17 20 21 22 21 17 19
8 11 3 12 6 9 10 4 7 7 7 8 10 2 5 6 7 7 9 13 16 17 19 21 21 20 19 20 18 19 21 20 20 20 19 16 15 15 13 15 16 15 18 19 20 22 23 21 17
16 3 17 14 15 9 7 4 4 10 4 10 14 15 12 4 6 10 8 13 22 21 18 19 23 23 23 26 26 24 22 22 19 16 15 15 14 14 12 13 13 13 14 14 15 18 20 22 22
12 13 11 8 6 4 10 0 11 13 4 12 11 13 14 11 9 9 12 17 24 23 14 12 14 18 22 27 27 26 22 18 15 18 15 14 14 12 11 11 13 14 12 12 11 13 16 16 17
6 14 5 3 6 11 9 4 3 6 5 4 3 6 14 22 12 9 7 15 21 21 15 14 16 19 21 23 21 16 15 14 17 17 16 15 16 17 16 16 15 14 14 13 15 16 14 15 17
5 6 5 4 5 1 3 6 10 10 7 15 13 18 22 26 17 11 13 17 20 21 17 13 19 20 19 17 16 19 16 18 18 18 19 20 20 20 20 21 20 20 21 22 20 18 16 15 18
2 6 10 8 15 13 8 4 1 13 9 11 8 14 15 16 12 13 14 15 17 18 19 16 19 19 18 15 19 20 19 20 21 21 23 24 24 24 23 23 23 24 23 23 23 23 22 22 19
2 5 3 5 8 12 12 16 16 4 9 12 13 15 9 12 11 14 15 15 15 18 20 19 20 18 17 17 20 23 23 24 26 25 25 27 26 26 26 26 26 27 28 29 28 26 25 24 25
9 6 6 7 10 14 17 6 3 8 10 13 19 22 20 15 14 16 17 18 18 18 19 18 20 19 19 21 23 26 27 28 29 28 29 31 31 33 33 33 33 32 32 31 31 30 28 27 24
14 9 9 10 15 12 17 11 10 10 17 19 25 26 25 21 19 21 22 25 26 25 25 23 22 21 22 26 29 32 30 29 31 30 30 33 33 34 36 36 36 37 37 34 32 33 33 31 29
5 11 10 11 4 11 13 22 17 7 11 23 26 25 22 19 18 19 22 26 28 31 29 28 26 26 26 30 32 32 32 31 34 34 29 30 32 33 35 36 35 37 38 38 35 34 34 34 33
13 13 14 11 13 17 19 23 20 5 14 16 22 11 14 12 13 13 14 21 27 31 30 27 27 26 28 28 30 34 34 34 35 36 35 30 29 30 33 35 35 36 37 39 36 36 36 36 37
6 11 15 14 17 23 21 18 11 12 14 14 11 10 11 13 19 23 19 18 25 29 27 27 28 27 30 32 30 28 29 28 29 30 34 38 35 31 30 34 38 38 37 36 37 38 39 41 41
12 12 12 19 22 16 17 16 9 13 17 16 10 4 6 9 12 14 16 23 26 26 26 26 27 29 30 28 27 29 30 31 32 32 33 36 37 37 36 33 35 38 36 35 37 37 38 36 39
14 10 18 24 25 5 16 9 5 14 17 15 9 6 5 9 11 16 16 18 21 22 33 35 32 29 30 32 32 32 34 35 32 34 35 37 38 35 33 35 34 35 38 40 40 38 34 34 32
19 13 18 20 20 16 22 7 16 13 12 14 9 10 14 16 17 23 25 28 25 32 38 27 30 28 32 35 36 35 33 34 35 34 35 38 41 42 40 37 38 39 41 44 47 44 44 39 35
15 19 22 16 14 16 15 7 7 9 13 7 6 8 12 16 21 25 28 23 30 34 36 29 31 31 32 33 34 36 38 35 33 35 38 41 43 43 39 41 44 43 38 38 41 53 41 40 40
15 20 16 4 2 3 13 12 6 15 14 6 12 11 14 17 26 27 29 30 31 35 34 32 35 42 43 38 33 32 36 38 39 38 39 40 44 46 48 50 48 45 45 53 57 35 46 46 44
12 18 9 5 2 4 17 15 9 22 8 5 9 15 20 27 27 29 32 32 27 32 34 35 35 42 47 41 39 39 42 44 46 47 46 44 45 49 52 50 54 56 56 59 50 59 59 45 42
10 11 5 2 2 10 26 3 7 21 12 13 22 21 18 24 22 29 26 29 31 35 37 40 39 40 46 41 38 40 41 46 49 52 49 50 50 52 56 58 59 61 61 62 56 51 42 40 41
8 9 10 6 11 4 7 7 24 3 13 31 19 16 23 30 31 26 32 31 33 36 37 36 39 48 49 44 37 35 38 43 43 46 49 53 56 58 59 62 59 58 54 50 44 41 40 39 42
7 9 6 4 2 4 7 14 20 19 33 22 17 29 38 31 30 36 38 39 36 40 42 39 49 48 49 46 44 47 45 46 43 44 48 55 56 57 59 54 47 45 45 42 35 36 38 42 44
6 8 10 12 7 4 3 6 15 39 22 23 32 37 37 31 34 30 29 31 33 35 43 56 48 48 50 50 51 46 45 46 43 41 43 47 48 49 46 40 41 42 37 34 35 38 41 43 44
1 11 19 15 8 22 24 29 23 14 26 33 33 27 30 33 31 34 35 37 39 44 56 52 51 52 51 50 50 53 52 45 40 37 39 43 41 37 39 41 37 33 34 36 39 42 44 43 41

GFSSGP_700_spd_012.txt.gz
Wind_Speed
2 3 6 7 5 11 11 14 15 3 2 7 6 7 11 18 12 8 10 10 9 7 7 6 5 4 5 2 3 6 8 8 8 7 9 8 8 10 12 14 15 16 17 15 18 16 21 19 17
5 7 11 8 8 18 17 13 15 11 11 8 8 9 6 12 12 10 10 13 12 9 6 5 3 3 5 6 7 9 11 11 12 11 11 10 9 13 14 14 13 16 18 19 20 20 20 26 26
12 16 10 7 24 15 14 10 12 10 3 4 8 9 14 13 10 10 16 13 13 8 5 3 2 5 8 10 11 13 15 15 15 14 13 10 9 10 12 13 15 16 17 18 18 19 19 25 24
18 13 14 21 21 16 10 9 6 6 2 3 8 7 9 9 4 8 9 11 10 5 1 2 5 7 9 10 12 13 15 16 17 17 15 13 10 9 11 13 14 16 17 15 14 19 22 21 25
10 12 12 11 15 13 11 9 6 7 3 4 9 11 7 7 5 5 5 4 3 1 1 3 7 10 13 14 15 15 15 17 16 18 18 17 15 12 12 14 14 15 17 16 16 20 19 19 17
16 13 10 15 9 8 7 9 6 7 8 5 10 11 9 8 5 5 2 1 1 3 6 10 12 14 15 16 17 18 19 20 20 20 20 20 18 16 14 15 16 18 18 18 18 20 21 20 16
17 13 12 14 11 9 9 2 5 9 5 7 9 10 6 6 9 8 8 8 7 11 12 14 14 12 13 16 16 17 19 21 22 22 23 23 22 19 17 17 17 17 17 16 19 18 20 21 17
12 12 9 10 10 14 7 4 3 7 12 8 9 8 5 7 9 12 10 11 11 12 13 13 13 13 15 17 16 18 19 19 18 16 15 15 15 15 15 15 14 14 13 13 13 13 15 17 18
8 13 19 15 12 10 4 5 3 10 6 7 9 6 6 4 8 12 12 16 17 15 14 13 16 17 19 21 22 22 18 14 13 12 16 14 12 12 12 13 13 13 13 12 10 9 11 13 15
12 11 7 7 5 5 5 1 4 6 5 8 8 7 6 8 11 12 15 19 15 10 13 16 17 20 22 23 22 16 15 13 13 14 15 14 13 13 13 14 13 12 12 11 11 11 12 13 14
4 0 2 3 7 11 9 6 5 5 4 10 9 12 15 18 17 13 16 14 13 13 11 10 15 18 19 18 15 16 17 15 15 16 17 17 16 15 15 16 17 19 18 17 16 15 16 16 15
2 2 7 12 10 4 1 5 8 10 11 11 14 17 19 17 12 11 8 10 13 15 12 13 16 17 17 13 11 14 16 16 16 17 18 19 19 19 18 18 19 20 20 20 20 20 19 20 20
7 8 7 9 14 18 10 9 9 5 4 7 7 16 16 15 13 13 13 11 11 13 14 13 16 19 18 15 15 17 19 20 21 22 23 24 24 24 23 22 23 23 24 25 25 25 25 24 24
2 1 5 5 8 12 14 10 6 8 8 8 7 13 15 17 16 14 13 13 14 16 17 18 18 20 19 17 18 20 23 25 25 24 25 27 27 28 28 28 28 27 28 28 29 29 29 29 28
6 8 6 6 5 7 9 7 2 11 12 12 9 13 16 15 12 13 14 15 17 18 19 21 19 19 21 21 22 24 27 29 27 26 27 29 30 31 31 31 31 30 31 31 32 32 32 32 32
5 7 8 15 6 7 13 19 20 12 11 11 14 19 20 14 12 12 14 15 17 21 23 24 25 22 21 21 24 27 27 26 27 27 28 28 29 31 32 32 32 32 31 31 32 32 32 31 32
5 5 11 9 6 7 11 24 23 14 14 13 17 19 18 12 12 12 13 15 19 22 25 27 29 29 27 25 24 26 29 28 25 24 25 26 28 29 30 29 30 32 33 32 32 32 32 33 33
10 10 8 7 11 18 20 24 17 4 12 9 10 14 12 15 18 15 11 13 16 20 23 26 30 32 30 29 30 27 25 26 27 25 21 21 23 26 29 30 31 33 34 33 33 35 36 35 35
8 10 11 10 13 21 13 16 8 11 12 10 15 16 10 14 16 16 17 15 16 20 24 23 29 27 27 26 26 28 28 28 28 28 28 27 24 24 26 30 32 32 33 35 34 34 34 33 36
11 14 11 15 17 17 13 15 10 6 7 10 13 12 9 10 12 11 7 10 14 17 17 22 29 25 26 26 28 31 31 31 30 29 31 32 32 31 32 33 34 35 37 38 36 36 36 38 38
12 16 16 19 20 4 17 5 12 6 10 13 15 10 9 9 10 10 12 13 17 17 16 28 33 29 29 30 32 35 34 33 32 32 33 34 36 37 38 38 39 36 39 41 39 41 43 44 44
16 13 15 18 13 6 15 4 7 8 12 13 10 13 15 13 13 15 22 30 28 22 27 34 36 30 30 35 37 39 39 38 34 35 35 35 38 40 40 42 43 42 43 43 46 47 46 46 47
18 21 19 13 8 3 20 4 6 8 15 14 10 13 15 17 18 25 26 26 27 29 33 36 39 36 33 36 40 43 43 41 39 36 37 39 41 42 42 43 46 48 47 47 50 50 52 47 46
14 19 10 2 2 2 8 19 6 16 9 10 6 8 14 16 17 20 25 27 29 37 38 41 39 37 33 32 41 45 39 41 39 37 38 39 44 47 47 44 47 50 52 54 54 54 53 50 50
17 19 9 4 4 3 11 14 8 9 14 11 12 12 12 14 25 28 28 33 34 36 42 40 38 32 32 34 46 39 39 39 38 39 41 41 47 51 48 48 52 53 56 58 58 57 62 57 59
14 15 5 1 1 9 16 2 4 3 4 25 12 8 21 26 29 26 30 32 37 41 31 26 32 32 35 50 45 42 41 39 41 42 43 45 42 47 51 54 56 57 57 56 60 63 61 55 53
6 12 6 3 5 2 7 4 15 14 17 29 23 21 28 26 27 25 34 38 35 29 30 30 36 41 49 57 50 45 44 39 38 41 44 45 42 40 47 53 58 59 56 52 44 46 45 48 50
5 8 3 6 2 3 7 12 16 20 22 38 19 33 35 36 34 35 39 40 42 45 42 43 46 53 54 49 49 49 45 43 45 47 46 41 35 37 46 49 52 53 42 43 41 41 42 42 42
4 2 5 5 5 4 2 9 22 35 23 29 31 30 32 32 30 35 39 37 35 38 44 49 54 51 49 49 49 49 51 52 50 45 36 33 33 35 39 38 38 37 40 41 38 37 37 39 41
2 7 18 7 7 19 21 27 10 6 28 29 30 27 24 28 35 38 37 39 40 47 55 51 48 48 49 49 50 52 53 52 45 37 36 35 34 35 38 36 35 36 35 37 37 38 39 40 42

GFSSGP_700_spd_015.txt.gz
Wind_Speed
4 5 9 13 11 12 17 13 5 1 4 13 14 10 12 10 3 4 14 16 15 12 9 10 9 5 3 4 0 1 2 2 3 6 6 7 8 12 13 15 16 15 14 13 11 14 18 21 20
6 12 16 13 18 21 14 10 11 10 9 8 7 11 10 8 8 11 11 11 12 14 10 8 7 7 2 2 3 5 7 7 8 9 9 10 12 14 15 18 16 19 17 16 17 18 19 21 21
19 18 17 15 16 17 15 9 8 9 11 9 9 10 12 11 8 8 10 12 12 9 7 6 3 2 4 6 7 11 12 12 12 14 12 11 12 14 15 17 21 20 21 21 22 21 19 21 20
14 19 23 23 22 19 16 7 6 6 10 10 10 6 11 11 10 8 11 11 10 7 3 1 2 3 6 9 10 13 14 14 15 16 16 15 13 13 16 18 19 22 24 22 20 20 20 23 25
15 18 23 22 19 17 16 14 9 4 4 6 9 10 10 7 6 7 5 5 3 3 1 2 6 8 7 9 11 13 15 16 17 17 17 17 16 14 15 18 19 19 19 19 20 20 21 22 22
12 13 18 17 14 9 7 8 3 5 7 7 8 9 6 7 5 7 5 4 3 1 5 9 10 8 10 13 15 16 16 16 17 18 17 16 16 13 12 14 15 16 17 17 19 20 20 20 22
17 16 16 15 12 10 6 5 1 4 7 7 9 10 6 9 4 4 4 7 4 6 7 9 10 11 14 15 15 17 18 19 17 15 14 13 10 9 9 11 11 12 12 13 14 15 15 17 18
15 16 19 12 10 9 6 2 2 7 9 6 6 7 8 8 7 8 8 9 10 9 9 12 9 10 12 14 14 15 13 12 10 9 12 12 11 10 9 9 9 9 8 9 12 12 10 9 9
14 18 13 11 6 7 5 3 1 5 7 3 4 5 7 8 8 9 11 12 11 11 8 7 7 9 13 14 14 10 10 8 7 6 7 8 8 10 11 10 10 11 11 10 10 11 10 11 12
17 14 10 9 5 4 3 1 5 6 4 4 4 5 9 11 12 12 11 9 11 5 4 7 11 13 16 18 13 6 10 11 11 11 12 13 13 13 12 12 12 12 13 13 14 15 15 17 17
8 4 2 3 2 6 7 8 12 13 7 7 7 9 12 13 11 10 11 7 2 3 7 11 14 16 17 18 14 10 10 12 13 14 14 15 16 16 15 16 16 16 16 16 16 16 17 18 19
6 13 15 11 10 5 6 5 4 4 4 5 10 14 17 16 11 10 11 10 10 12 14 15 17 19 20 18 16 13 13 14 16 18 18 18 19 20 22 21 20 20 20 21 21 21 22 23 22
11 8 8 6 5 8 9 5 6 4 5 5 6 9 9 12 13 13 11 10 10 12 13 13 16 17 18 18 17 17 18 19 21 23 22 21 21 22 24 25 25 25 25 25 25 26 26 27 27
3 3 3 4 4 6 8 6 1 6 11 8 5 5 8 11 11 10 9 9 9 11 11 13 17 20 20 21 21 21 22 24 25 25 25 25 25 26 26 27 28 29 28 27 28 28 28 29 30
2 3 5 7 5 7 11 6 5 13 13 9 7 8 10 10 10 10 10 11 12 11 12 14 18 22 23 24 24 24 25 27 28 28 27 28 29 28 29 29 29 29 30 30 30 30 30 30 31
3 3 7 6 2 3 12 10 13 13 12 10 11 9 10 12 11 12 11 10 11 12 13 16 19 23 24 24 23 22 24 26 27 28 28 28 28 29 30 30 31 30 29 29 29 29 30 30 31
3 3 9 3 4 4 12 26 22 20 18 15 10 11 12 13 13 13 12 12 14 13 14 17 19 24 23 20 20 21 21 23 23 24 25 26 27 28 29 29 30 32 32 32 32 32 31 31 33
7 12 12 10 11 16 18 19 12 10 12 7 4 6 7 12 14 15 14 12 13 13 16 18 16 22 23 24 27 25 24 26 28 28 27 27 26 28 29 29 31 32 32 31 31 31 31 32 34
8 13 16 9 12 21 13 15 7 11 9 5 6 10 9 6 13 14 9 11 9 13 18 20 18 23 27 26 31 29 28 28 29 31 31 31 30 30 30 31 31 32 33 33 33 34 33 33 33
9 13 16 12 15 14 10 5 9 6 1 4 8 9 6 5 6 9 5 5 7 13 19 22 19 28 28 26 30 31 30 29 33 32 32 34 33 32 33 33 34 34 36 37 38 39 39 37 37
10 10 13 17 18 4 13 3 11 8 3 6 7 3 3 5 6 9 9 14 18 16 17 18 27 28 27 29 30 36 40 35 36 31 31 34 36 37 37 37 37 38 39 41 42 43 44 43 41
12 15 18 15 13 3 10 2 11 3 6 9 9 8 8 11 13 12 17 21 22 25 30 32 31 34 33 35 37 36 40 43 45 37 34 33 36 39 40 40 40 41 44 46 44 46 48 48 46
17 16 16 13 7 4 8 3 8 4 7 9 10 7 11 15 20 22 24 28 31 31 30 34 35 34 34 37 36 36 38 45 49 44 42 40 39 41 42 42 42 44 47 49 48 48 52 51 52
13 13 5 2 3 2 2 12 9 10 14 5 4 8 11 14 18 19 23 27 29 29 33 33 32 33 38 37 38 39 40 53 53 47 43 44 44 45 47 48 47 48 52 56 52 53 57 55 58
12 11 4 2 2 4 6 7 7 14 14 15 5 6 11 13 17 20 25 23 24 28 30 31 32 33 40 40 42 46 51 49 45 45 47 46 46 45 46 47 49 50 54 58 55 61 56 63 65
10 12 4 3 1 7 13 3 8 12 8 20 13 12 17 23 22 22 21 22 27 28 29 31 32 36 43 46 49 51 49 47 45 45 46 45 48 50 52 51 46 44 52 57 62 57 60 59 53
3 6 5 1 3 3 8 3 7 19 17 23 32 31 26 25 22 21 20 23 25 26 31 37 41 44 49 55 52 48 48 47 46 47 49 50 50 49 45 40 38 40 46 55 55 55 56 47 44
2 2 1 5 2 3 7 15 16 16 24 32 34 31 33 32 27 21 24 30 33 35 40 43 48 52 55 48 50 50 49 50 52 53 51 46 40 35 32 28 32 39 44 49 41 38 43 45 42
5 5 3 1 1 3 3 9 15 24 25 27 29 33 32 29 27 29 35 37 36 40 43 48 48 48 49 51 50 50 52 54 55 53 48 38 32 30 30 29 30 38 43 44 41 39 39 40 42
4 4 9 5 4 12 13 18 3 2 24 27 28 31 28 29 31 35 37 43 43 46 50 51 49 47 46 47 48 49 51 54 54 53 46 35 34 32 28 28 30 32 36 37 38 40 42 44 45

GFSSGP_700_spd_018.txt.gz
Wind_Speed
6 7 14 12 7 12 16 13 11 13 15 13 14 11 7 5 1 2 13 13 13 14 14 15 13 12 10 8 6 5 7 6 7 7 9 12 13 13 16 16 16 16 13 14 16 15 11 13 15
11 22 15 12 18 23 15 15 14 13 12 12 10 9 9 9 9 14 14 15 16 14 12 10 8 9 7 6 2 1 3 5 6 9 10 11 12 15 16 18 19 16 18 21 21 19 18 20 17
22 20 19 19 20 22 17 13 12 13 13 10 12 11 12 10 6 8 9 9 11 12 11 9 6 5 5 4 2 4 5 5 6 6 7 9 11 12 16 17 19 17 21 23 24 25 24 24 22
18 17 19 21 21 15 13 12 11 13 15 14 11 5 9 7 7 6 8 10 10 8 5 4 6 5 5 6 8 9 10 10 10 9 10 10 11 13 14 16 19 20 23 25 25 24 24 23 22
20 20 25 24 22 18 15 10 11 12 13 13 11 11 13 8 7 9 8 7 5 3 4 6 6 7 9 10 11 13 13 14 12 12 12 12 12 12 15 17 19 22 23 24 22 23 23 21 21
23 19 22 24 21 18 15 11 7 7 8 8 9 9 8 7 8 8 6 3 2 2 2 4 5 7 7 10 13 13 13 12 12 11 10 9 9 10 12 14 16 17 19 20 19 19 21 21 21
17 21 22 19 16 11 10 7 4 5 5 6 4 6 4 6 6 8 4 1 3 3 6 6 6 6 8 9 10 11 12 11 10 5 3 5 3 2 3 6 8 11 12 13 13 12 14 16 17
17 16 17 15 13 9 6 1 4 5 5 3 5 5 7 6 6 2 2 4 4 5 7 9 5 4 6 8 9 9 8 8 6 3 5 8 7 7 6 5 5 5 6 8 9 9 9 10 10
16 16 11 9 7 7 3 1 5 7 5 3 3 3 3 4 3 3 2 1 5 7 8 5 5 2 5 8 10 6 7 5 6 6 8 9 10 11 10 9 8 9 10 10 11 12 11 11 12
14 10 7 5 3 1 1 3 8 8 5 4 4 5 6 6 7 7 5 3 1 3 5 4 3 7 11 13 14 9 8 9 9 8 8 8 10 11 11 12 13 13 14 15 15 15 16 16 17
12 6 7 4 1 3 4 8 10 9 4 11 15 18 17 13 11 9 6 4 2 1 1 2 9 11 13 13 13 12 12 12 12 13 14 14 14 15 15 15 16 17 17 18 19 19 19 20 20
16 16 12 11 8 8 5 4 4 6 6 10 10 10 12 13 13 9 6 5 6 5 6 11 14 16 16 15 15 15 15 17 18 18 20 19 19 19 20 20 21 22 22 23 23 23 24 24 24
14 10 7 5 4 3 4 3 3 4 6 2 4 5 6 9 9 11 9 8 7 7 8 10 12 17 19 20 20 18 18 19 21 22 22 21 21 22 23 24 25 25 26 26 27 28 28 28 29
7 6 3 0 3 3 3 1 2 3 12 7 1 2 4 4 6 8 8 8 7 7 9 11 14 18 19 20 19 19 19 20 22 23 25 26 27 27 28 28 29 29 29 29 29 29 29 30 31
6 5 1 2 2 4 5 3 2 8 12 8 4 2 2 4 4 5 8 7 7 6 8 11 13 17 20 20 20 20 21 22 23 23 24 25 27 28 29 30 31 30 31 31 31 31 31 31 31
3 1 3 4 4 5 10 8 8 15 16 13 11 6 4 3 5 7 7 6 7 7 8 10 13 16 17 18 17 20 19 20 22 24 25 26 28 29 30 31 32 32 31 31 31 31 31 32 32
2 3 7 3 3 6 12 21 15 13 14 10 6 5 9 8 8 9 10 9 10 9 10 12 15 17 17 21 22 21 20 19 24 25 26 27 28 29 30 31 32 34 35 35 35 34 34 33 32
5 8 10 11 11 12 16 15 13 11 9 1 3 3 6 7 8 12 13 13 13 13 13 15 19 20 22 26 27 25 25 25 27 30 29 29 29 30 31 31 31 31 32 32 34 35 36 34 33
7 10 13 13 10 18 13 11 7 4 5 3 2 3 3 3 8 13 15 10 10 12 15 18 23 25 24 31 29 27 24 27 27 31 31 31 31 31 32 32 33 33 33 32 32 33 34 34 34
8 11 12 8 12 15 8 5 7 7 5 1 4 6 2 1 3 6 7 5 6 9 11 16 19 20 25 28 28 27 27 27 27 32 31 35 33 34 35 36 35 37 38 38 38 38 39 39 37
9 7 13 15 14 6 10 2 3 3 3 5 6 5 4 3 2 6 9 13 17 18 18 16 17 24 27 29 30 31 31 35 36 37 38 43 36 37 40 41 41 40 42 43 42 42 43 44 43
11 13 14 12 10 1 9 3 9 2 2 5 5 3 4 7 9 12 15 18 20 20 21 22 25 27 28 29 31 33 36 40 41 44 48 47 44 41 41 43 46 45 45 46 44 43 46 47 49
10 14 16 11 5 3 2 2 6 5 1 1 2 3 5 10 13 15 17 20 23 23 22 24 27 29 31 33 34 35 38 42 47 51 50 48 44 44 45 47 50 51 50 50 48 46 48 52 55
12 12 6 2 3 1 1 9 5 4 11 7 4 4 9 12 14 16 18 21 21 22 22 26 28 30 33 35 36 38 44 49 51 46 47 49 49 48 47 47 49 52 52 52 53 52 53 55 59
10 8 2 1 3 3 3 5 6 11 8 3 5 9 14 17 18 18 20 20 23 26 28 29 31 33 33 33 37 44 47 44 46 47 49 48 49 50 51 51 52 53 55 55 53 51 52 56 62
8 9 4 2 1 6 9 5 9 13 12 8 14 23 29 28 19 18 19 21 25 28 29 30 32 33 36 40 42 43 44 47 49 48 48 48 50 51 51 52 52 50 47 45 43 42 47 60 56
3 4 3 1 2 3 6 3 8 19 19 20 28 33 31 28 19 17 17 21 26 28 30 33 37 42 47 52 54 53 51 49 45 46 49 52 52 50 49 47 45 42 37 34 31 40 49 56 46
3 1 1 3 2 3 7 12 8 17 19 26 29 29 30 28 23 17 20 25 32 38 43 48 50 51 50 48 48 45 43 45 48 50 52 53 54 53 43 35 32 30 28 27 34 40 47 42 42
5 4 0 1 2 3 2 6 10 17 27 23 27 30 34 31 29 29 32 37 45 50 51 53 53 50 49 45 42 43 47 51 55 56 54 54 52 43 34 30 32 32 26 30 34 36 38 41 39
3 3 2 2 2 6 7 19 16 8 15 31 31 34 31 28 30 34 39 43 49 49 51 47 43 43 42 40 43 50 53 53 54 57 57 53 43 36 33 35 34 31 31 32 32 33 35 38 40

GFSSGP_700_spd_021.txt.gz
Wind_Speed
5 8 14 16 8 14 20 17 18 15 15 15 12 9 6 4 2 3 13 14 18 18 17 16 13 12 8 6 4 1 3 5 7 9 10 12 13 14 14 15 16 14 13 15 16 16 16 15 15
11 18 14 12 20 19 14 16 16 15 18 15 12 9 10 7 8 13 13 14 14 14 13 9 7 7 6 5 3 2 2 3 6 8 11 11 12 12 13 15 15 17 17 18 17 19 20 20 22
21 20 20 21 24 21 16 16 15 15 14 14 14 12 10 8 6 11 11 12 13 12 11 9 8 7 5 3 1 1 3 5 7 9 10 10 11 12 13 14 16 18 18 20 20 22 21 25 24
24 18 18 21 21 17 17 15 14 15 14 11 9 7 8 7 7 7 10 14 13 11 8 8 5 2 1 3 4 6 9 10 11 11 11 11 12 13 13 14 16 17 20 20 21 23 23 23 23
21 19 26 23 21 20 17 17 15 13 12 10 8 9 10 8 8 12 13 11 11 8 6 3 1 2 3 5 8 10 12 13 14 14 13 12 12 13 15 17 18 17 19 21 22 22 23 25 25
25 21 25 26 23 20 17 14 11 9 7 6 7 6 6 11 12 12 12 10 7 5 3 3 3 4 7 9 11 12 13 13 13 12 11 10 10 11 13 14 15 15 17 20 21 21 22 23 24
21 20 24 23 22 19 14 11 9 7 5 5 7 6 7 9 11 10 7 5 5 3 3 4 7 8 7 9 10 10 7 7 5 4 3 4 5 5 4 6 8 11 13 14 15 15 15 17 18
20 18 20 18 15 14 10 8 6 4 4 7 5 6 8 9 9 7 5 5 3 4 5 6 4 4 4 5 7 7 6 6 6 3 3 3 3 4 5 4 5 6 7 8 10 11 10 10 11
16 18 16 13 9 10 8 6 6 7 5 5 4 5 5 4 4 6 6 6 5 5 6 3 4 3 3 6 7 7 6 7 7 6 8 9 9 9 9 9 10 10 10 11 13 14 14 14 13
13 13 10 9 8 6 5 2 6 7 6 7 7 7 6 5 6 8 8 6 5 4 3 2 1 1 4 7 8 8 6 8 8 9 11 12 13 14 14 13 14 14 14 15 16 16 18 18 19
12 9 8 6 5 4 2 3 7 7 11 14 14 13 13 11 8 8 6 6 5 4 3 3 4 9 10 10 9 8 8 10 12 13 14 16 18 17 17 18 19 19 19 20 21 21 21 21 22
17 15 12 13 11 8 7 7 8 10 12 11 11 11 10 11 10 6 5 6 6 5 5 3 10 11 12 12 11 11 11 11 14 16 17 18 18 18 20 21 22 24 25 25 26 26 26 27 27
15 11 9 8 7 5 3 4 8 9 5 3 5 4 5 7 8 7 7 7 8 6 4 6 8 9 10 12 12 12 12 12 14 16 19 21 22 22 23 24 25 26 27 29 30 30 31 32 32
10 7 4 2 2 2 2 4 3 2 5 5 7 4 2 1 2 4 5 6 5 4 4 4 6 7 10 11 11 13 14 15 14 15 17 19 20 21 23 24 25 27 28 29 30 31 32 32 32
8 5 3 0 2 4 3 6 3 4 9 7 5 8 6 4 2 2 1 3 2 1 1 4 6 9 12 13 15 17 21 21 16 16 20 21 22 23 23 24 25 26 28 30 31 32 32 32 32
5 3 0 1 1 3 6 7 6 15 13 11 11 10 9 7 6 7 6 3 3 4 5 5 8 11 13 17 18 22 22 23 19 19 20 21 23 25 27 27 27 28 28 29 30 31 32 31 32
2 1 2 1 4 6 9 10 13 15 10 3 6 7 7 8 9 10 9 8 7 8 8 10 12 16 18 22 25 26 24 22 22 23 22 25 25 26 28 30 30 30 29 29 30 31 33 33 34
0 1 4 6 6 7 9 7 8 6 1 6 5 5 4 8 11 12 12 12 12 14 13 14 16 20 21 23 24 26 26 24 25 28 28 29 29 30 33 33 33 34 34 32 32 33 33 34 34
3 5 8 8 4 9 6 5 2 4 5 4 4 3 4 7 9 8 10 12 11 10 10 13 14 17 18 21 24 26 23 22 25 26 29 31 33 33 38 35 33 36 38 37 38 37 37 38 36
6 6 6 3 8 8 3 0 5 8 7 5 3 1 4 5 2 1 5 8 5 8 6 9 12 15 18 22 25 26 26 25 25 26 30 31 37 39 42 40 39 37 38 40 40 42 44 43 40
7 5 10 11 9 4 3 5 3 5 6 5 3 2 3 3 1 3 6 9 12 14 14 13 13 17 22 25 27 29 31 32 33 34 37 39 42 40 41 41 41 42 44 45 44 44 46 49 47
7 9 12 11 7 3 1 5 6 3 3 2 3 3 4 3 4 8 11 14 15 15 14 14 18 21 25 29 33 35 36 37 37 41 46 46 42 42 44 46 44 45 46 47 48 48 47 48 51
6 14 13 8 5 6 2 3 4 4 6 7 8 9 4 6 9 13 14 16 15 18 20 21 23 26 29 33 36 38 39 41 42 45 46 44 46 48 49 46 45 46 47 49 51 51 52 50 50
10 11 5 1 4 2 3 3 2 6 8 8 6 5 6 10 15 17 18 18 21 23 25 26 28 31 33 36 39 44 47 46 46 47 46 46 46 43 44 47 48 49 50 50 52 54 56 56 53
10 7 1 1 1 1 2 4 5 11 11 7 4 5 12 18 18 14 17 20 24 28 29 32 34 34 40 45 48 46 46 46 44 44 43 44 45 48 50 51 51 50 51 52 51 49 49 50 49
7 8 3 2 1 4 7 5 7 15 13 5 10 16 23 23 21 18 18 20 23 25 29 32 37 40 42 44 46 43 41 40 40 40 42 46 50 52 55 56 55 55 53 50 44 40 38 38 35
3 3 3 2 3 3 4 4 9 19 20 15 19 23 23 23 24 23 22 22 23 27 31 34 41 43 46 43 40 40 41 41 42 45 51 54 52 54 56 57 56 53 46 39 34 30 25 31 36
3 2 2 3 1 2 7 7 7 13 22 17 24 24 28 30 27 24 22 25 29 35 42 46 48 48 45 43 43 44 43 44 48 52 52 54 56 57 57 51 44 37 31 32 32 30 33 34 36
5 3 1 1 0 1 3 7 9 12 21 18 25 32 30 27 27 29 32 36 41 46 49 50 50 47 42 40 41 42 47 50 52 53 55 56 55 50 41 32 28 29 32 33 30 31 32 33 33
1 3 2 1 2 5 7 16 7 9 13 20 32 31 28 27 28 36 38 40 42 44 45 44 42 39 38 38 44 46 48 52 55 58 58 53 44 35 30 27 32 33 32 33 32 32 33 33 33

GFSSGP_700_spd_024.txt.gz
Wind_Speed
8 11 17 18 5 11 14 12 13 13 10 15 13 9 6 6 6 3 12 13 15 14 12 11 9 8 4 5 5 2 2 3 4 5 8 10 12 12 12 13 13 13 14 14 15 15 17 18 17
10 17 19 12 11 18 15 14 13 10 16 14 11 9 6 2 4 9 13 13 13 13 12 9 7 5 6 5 4 2 3 5 7 9 11 13 13 14 14 13 13 15 17 16 19 20 20 22 22
19 17 11 10 12 16 16 12 15 16 15 14 12 10 7 5 8 14 13 13 13 14 12 11 8 6 3 3 2 3 5 7 10 12 13 15 16 15 16 15 17 18 18 18 20 21 23 23 23
22 20 16 14 17 15 15 16 14 15 14 12 9 5 4 5 10 12 13 16 16 15 11 8 7 5 3 1 5 8 10 12 14 14 15 15 17 17 17 16 17 18 18 18 19 20 22 23 22
22 16 18 19 16 15 16 14 12 9 10 9 6 4 4 8 9 15 18 18 15 11 10 7 4 2 4 7 10 13 14 14 15 15 15 14 13 14 16 17 17 18 18 19 20 21 22 22 23
13 15 19 19 17 15 14 13 11 8 8 5 6 4 6 12 14 16 15 12 11 10 5 1 3 6 9 11 11 11 11 11 12 11 10 9 10 10 10 12 15 17 18 19 19 20 21 22 23
15 14 16 18 17 14 12 13 7 7 6 5 6 7 11 12 12 12 10 8 6 4 2 3 6 9 9 8 8 7 5 6 7 5 4 6 7 7 7 7 8 10 13 15 16 17 17 18 19
18 16 17 15 13 12 11 9 6 6 7 7 6 4 9 12 12 11 7 7 7 5 5 6 6 5 5 5 6 5 4 4 6 6 5 7 9 10 10 10 10 10 11 12 13 14 14 14 14
14 13 14 13 11 11 11 7 5 6 5 4 6 8 9 10 12 11 9 9 8 8 6 4 4 3 3 4 4 3 4 4 5 6 8 10 12 13 13 14 14 14 14 15 16 17 18 18 18
9 11 9 10 11 10 8 6 3 6 6 6 6 6 7 8 11 12 11 10 9 8 6 4 2 2 2 3 4 5 5 6 8 9 10 12 14 16 18 18 19 20 20 20 20 20 21 22 23
11 10 11 10 10 9 7 7 7 6 7 7 6 9 7 7 9 9 10 10 9 8 6 4 5 4 3 3 4 5 6 7 10 11 13 15 16 17 17 19 20 22 23 24 25 26 26 26 26
12 11 12 13 11 9 7 8 7 9 7 11 11 9 9 7 6 8 8 9 8 7 6 7 5 4 3 5 7 8 8 8 9 10 11 12 13 15 16 18 19 21 24 26 27 28 29 30 30
12 13 13 10 9 8 7 7 9 10 10 8 7 7 5 4 5 4 6 8 7 9 9 7 4 2 6 8 7 7 9 11 12 12 10 12 15 16 18 20 21 22 23 24 26 27 28 30 31
12 9 6 5 5 4 5 8 8 8 5 3 10 8 6 4 4 3 4 6 8 8 7 4 1 2 4 6 6 8 13 15 15 13 14 16 17 17 18 20 23 25 26 27 27 27 28 29 30
9 8 4 4 4 6 5 6 7 9 6 6 7 13 11 9 7 6 6 8 9 8 7 5 4 6 8 10 12 17 20 21 21 19 19 20 21 21 20 19 21 24 26 28 29 30 30 31 32
8 5 4 3 4 2 2 6 5 13 12 13 14 14 14 13 10 12 10 9 8 6 8 8 8 10 12 14 18 21 23 22 22 22 23 24 26 26 26 24 25 27 29 29 29 29 30 30 31
4 3 2 1 5 3 1 3 10 17 15 10 14 16 16 16 16 17 13 11 9 9 11 11 12 14 16 18 22 23 22 23 23 24 25 26 28 29 29 30 30 33 33 33 31 31 32 33 33
4 4 2 1 5 3 2 3 8 7 5 7 8 12 13 15 17 17 16 14 14 15 15 15 15 16 19 21 22 21 22 23 23 24 27 26 28 28 30 32 32 34 34 33 35 37 37 38 36
4 1 2 3 3 2 1 2 1 8 10 8 8 10 11 11 13 14 15 17 17 17 16 16 16 19 20 22 20 21 22 23 24 25 27 27 29 33 36 38 38 37 37 36 35 38 40 40 41
1 2 1 3 4 2 0 4 6 8 8 8 8 6 5 8 10 11 11 10 10 10 12 15 18 21 21 21 23 25 26 28 30 32 33 35 36 37 42 44 41 40 42 44 42 41 43 44 43
4 1 3 5 7 4 6 4 5 8 8 8 7 7 7 8 8 9 9 10 13 15 18 19 19 20 22 24 28 31 34 35 36 36 36 37 40 43 47 44 43 45 46 46 43 43 44 46 45
3 6 10 9 4 5 9 6 4 6 7 7 8 8 9 8 8 9 11 13 16 18 19 19 20 23 26 30 34 37 38 38 42 47 47 46 46 48 46 42 45 46 44 45 46 48 49 51 53
4 11 11 8 5 5 7 7 3 8 5 4 11 10 8 7 8 10 13 16 18 19 20 23 27 29 31 35 38 42 42 44 51 53 51 47 46 44 43 43 42 43 46 48 49 51 54 56 56
8 9 8 1 3 6 6 4 9 7 5 2 9 9 9 9 10 15 17 19 22 24 25 27 30 32 35 38 42 43 51 47 47 50 45 44 42 39 39 45 48 50 51 53 54 56 56 55 55
8 5 3 3 5 1 6 5 2 8 10 11 11 10 11 13 18 21 19 19 23 26 27 29 30 33 37 40 44 49 49 49 46 43 43 42 41 43 49 52 53 53 55 57 59 58 56 53 49
5 5 3 3 2 1 4 5 5 12 15 15 14 15 16 19 21 24 26 26 26 26 28 30 33 37 42 45 48 48 44 40 39 39 40 44 48 52 54 55 56 57 57 58 55 48 44 41 40
4 2 2 1 3 4 3 2 5 14 18 17 16 18 21 24 27 27 22 21 23 26 30 33 38 41 42 43 42 41 39 37 39 42 44 47 51 54 56 57 55 51 47 42 36 34 34 33 31
1 3 2 2 3 4 2 6 9 9 15 19 22 23 23 27 26 22 19 23 26 29 33 38 40 40 42 42 40 36 36 41 44 47 50 54 57 58 54 45 39 35 29 28 32 34 32 29 28
4 2 2 1 1 3 4 6 9 6 10 16 22 24 32 31 28 25 26 30 33 35 37 40 41 40 37 35 35 37 41 45 49 53 56 57 54 45 36 32 29 26 29 33 31 30 27 28 29
4 4 3 3 3 5 7 15 13 6 13 19 27 31 29 31 27 31 33 36 39 38 40 36 37 37 33 35 38 42 46 49 52 53 52 45 37 32 28 28 26 29 33 36 38 38 36 34 33

GFSSGP_700_spd_027.txt.gz
Wind_Speed
7 12 18 18 6 8 9 10 9 9 8 6 9 5 6 3 3 3 10 9 10 12 10 11 10 10 6 6 4 3 3 4 4 4 7 9 11 14 14 14 14 15 16 16 15 16 15 16 18
12 17 20 6 10 12 14 9 12 8 11 11 10 9 5 4 7 4 8 10 10 9 10 11 10 7 4 3 2 2 4 6 8 9 12 13 14 15 15 16 16 16 18 19 19 20 20 19 21
15 21 8 6 12 12 13 10 10 11 10 7 4 7 5 4 7 10 10 10 10 12 10 9 7 6 4 3 3 5 8 11 13 14 15 17 15 15 17 17 17 18 19 19 21 22 22 21 22
20 14 5 11 12 9 13 12 12 9 7 6 5 2 0 7 5 10 12 12 13 12 10 8 6 4 3 4 7 9 12 14 15 15 15 15 16 16 17 18 19 20 20 21 21 21 21 22 23
18 9 9 11 12 11 13 12 9 7 5 3 2 2 2 7 7 11 13 14 14 12 9 7 5 4 5 7 11 13 12 11 11 12 12 11 12 14 15 16 17 19 20 21 21 22 21 22 22
4 9 12 13 13 12 11 9 9 8 6 3 4 4 3 8 9 12 14 14 12 10 8 5 4 5 9 12 12 11 8 7 8 9 8 7 8 10 11 12 13 14 16 18 20 22 22 23 23
7 8 13 14 13 12 9 8 7 6 5 3 4 2 7 11 14 15 14 12 10 8 5 4 6 10 11 8 7 7 5 6 6 7 7 7 9 10 12 13 13 13 13 14 16 18 18 18 19
8 9 13 13 13 11 8 7 6 5 6 3 8 2 10 13 12 12 10 8 7 6 6 8 9 7 7 5 6 7 7 7 7 7 7 9 11 12 14 14 15 15 16 16 17 17 18 18 19
10 12 12 9 9 7 8 5 5 6 3 6 6 8 10 11 12 11 9 8 8 8 9 8 6 6 6 8 6 7 6 7 7 8 8 10 13 15 17 16 18 18 18 19 19 20 21 22 22
3 7 9 7 6 9 8 5 5 6 5 5 7 9 11 12 14 13 12 12 13 13 9 8 7 7 6 5 5 6 7 9 11 12 13 14 15 17 20 19 19 20 21 22 24 24 25 25 26
1 6 6 7 8 7 6 6 6 7 5 6 6 7 11 9 11 13 12 10 10 8 7 9 7 6 4 2 3 5 6 7 10 12 13 16 16 18 18 19 19 21 21 23 25 26 26 28 28
4 7 7 8 9 7 6 6 5 6 8 8 7 8 10 6 9 11 11 10 10 9 8 8 7 7 3 2 2 3 6 10 12 15 15 15 15 18 19 20 20 21 23 25 25 27 29 28 30
8 9 9 8 7 7 8 5 5 8 5 6 7 8 9 9 9 11 11 11 9 10 9 8 8 7 4 2 2 3 6 10 13 15 16 17 19 20 21 22 22 23 23 24 27 28 30 31 30
10 8 7 6 6 4 6 6 7 8 6 7 9 8 9 9 10 9 10 10 10 10 10 9 9 7 6 7 7 9 13 17 20 19 19 19 20 22 23 23 25 25 24 24 25 27 28 29 31
10 7 5 6 6 4 4 9 8 8 6 6 7 11 11 10 10 9 10 10 11 10 10 11 11 10 11 12 14 15 19 21 22 21 23 24 25 26 26 26 25 25 25 27 28 27 28 30 29
9 8 10 5 5 7 6 12 11 7 9 7 10 11 14 13 12 11 11 10 10 9 10 12 13 15 16 17 19 20 23 25 26 25 27 27 26 26 26 26 26 29 30 31 33 32 32 32 33
8 11 4 5 6 4 5 2 3 11 14 14 13 14 13 13 14 13 12 12 12 11 12 14 17 19 21 24 21 24 26 26 26 25 24 28 28 29 28 29 28 32 33 32 31 31 35 39 38
7 6 5 3 2 4 6 6 6 5 3 5 10 13 14 13 13 15 15 14 16 21 20 20 21 25 25 25 25 26 26 25 25 25 27 29 30 32 33 33 34 36 37 35 35 36 37 40 41
1 3 4 3 5 2 5 4 2 4 4 6 7 7 8 13 22 27 24 24 22 22 23 25 26 27 24 26 27 27 26 27 29 32 36 36 37 37 39 41 41 41 44 46 43 42 44 43 42
2 4 3 4 4 2 4 6 4 6 9 9 11 11 9 12 17 19 20 21 21 18 16 15 19 21 23 28 29 29 30 32 35 37 41 42 44 44 45 45 45 48 50 49 44 44 45 42 41
4 3 4 6 7 9 9 11 8 7 8 10 10 9 8 8 9 14 13 12 13 14 15 19 22 24 25 27 31 32 33 37 39 42 42 42 46 48 51 53 49 48 45 43 42 41 42 46 44
6 4 8 9 9 12 13 9 14 11 9 7 6 5 5 5 10 11 12 13 14 17 22 25 27 29 29 30 34 35 37 41 44 45 48 51 47 48 47 45 46 44 41 42 44 47 50 52 53
5 10 9 9 11 13 13 13 16 15 10 6 3 3 10 11 11 12 14 16 19 22 25 27 30 32 33 34 36 39 42 44 46 49 54 55 54 48 45 43 41 42 43 48 52 55 57 57 57
7 8 10 7 7 9 10 9 17 15 11 8 3 5 14 14 14 15 18 21 26 26 24 27 28 31 34 35 37 40 45 48 51 55 53 48 44 40 40 43 46 49 52 55 57 58 58 58 58
8 8 8 5 5 4 3 7 1 7 9 9 5 5 14 15 16 17 23 26 31 32 29 26 28 30 36 39 42 46 50 49 46 44 42 39 40 43 46 49 51 55 58 60 61 60 57 53 52
5 4 3 5 4 7 4 7 5 8 6 10 7 11 16 18 21 24 25 29 30 27 25 24 26 30 33 38 41 40 40 42 40 39 39 43 47 49 52 56 59 61 61 55 48 45 45 39 36
5 3 3 5 4 5 12 3 8 8 7 5 6 7 12 21 26 25 29 30 30 28 27 27 29 35 34 34 34 37 37 37 38 38 41 46 50 54 57 58 56 49 42 40 37 34 35 37 37
3 4 4 1 3 4 5 9 11 10 9 8 7 9 12 18 19 20 25 27 30 32 35 39 43 42 37 35 37 39 37 36 38 43 48 51 53 55 53 48 40 36 34 34 32 31 33 30 28
5 4 5 6 4 4 5 6 4 4 9 12 13 14 14 15 16 18 20 23 25 25 33 41 40 37 35 37 35 36 37 41 46 49 52 51 53 51 43 37 33 32 33 33 32 33 35 37 38
3 5 5 7 8 7 9 15 8 2 6 12 15 14 17 17 16 19 21 22 24 33 41 40 35 33 35 34 35 38 42 44 47 49 51 49 44 40 37 32 27 25 24 31 34 36 38 36 34

GFSSGP_700_spd_030.txt.gz
Wind_Speed
10 14 19 20 5 10 15 8 8 6 5 10 8 14 11 3 3 12 20 13 10 10 11 8 8 9 4 2 1 3 3 4 4 6 8 9 10 12 14 14 15 16 17 18 17 16 16 16 18
12 18 20 9 12 21 12 11 15 12 10 12 14 5 6 8 4 5 12 12 7 7 8 9 9 7 3 2 3 2 3 5 7 10 11 11 13 14 15 15 15 16 16 17 18 18 18 20 19
15 21 13 8 16 30 13 13 15 12 13 6 6 8 11 12 6 8 3 6 7 2 7 8 8 6 3 3 3 5 7 10 13 14 14 14 14 15 16 16 17 17 17 18 18 18 20 20 20
20 17 9 11 11 10 13 13 12 10 8 6 3 2 6 13 7 7 8 7 6 7 8 8 7 4 4 4 6 10 13 13 13 12 12 12 11 11 12 14 16 17 18 19 20 21 20 20 21
21 14 15 9 12 14 13 12 9 8 5 6 2 8 1 8 5 9 9 8 9 10 9 7 4 4 6 9 12 14 13 10 7 8 8 7 7 8 9 11 13 15 15 16 18 18 19 19 20
10 7 15 11 12 10 9 7 4 7 6 4 6 7 4 4 4 8 10 12 10 8 6 3 4 6 10 12 12 11 7 4 5 6 7 6 6 8 9 11 13 15 16 16 17 17 18 18 18
7 9 20 16 12 8 8 6 2 3 1 5 2 6 2 5 6 11 12 10 7 5 5 5 7 10 12 11 8 6 7 7 7 9 9 8 10 11 12 14 14 15 16 17 18 19 19 19 18
12 18 11 11 11 13 6 4 4 6 6 9 7 9 7 10 9 10 10 7 6 6 7 9 11 11 9 7 6 8 8 8 9 9 9 10 12 14 14 15 17 17 17 17 18 19 20 21 21
5 5 12 9 12 8 7 5 7 7 1 6 5 4 10 9 10 11 10 8 7 9 9 10 15 9 8 4 7 8 8 7 9 10 12 15 15 16 14 16 17 18 19 20 20 21 22 23 23
3 10 13 9 8 9 8 5 5 9 4 5 6 6 8 11 12 11 10 9 10 12 10 12 9 7 7 9 6 4 6 6 7 8 12 16 16 17 20 21 19 21 20 21 22 21 23 25 25
8 13 10 8 7 7 8 5 6 5 5 3 5 9 4 8 10 11 6 4 6 7 1 10 5 6 6 6 6 8 8 9 9 10 12 17 18 20 21 23 25 25 25 26 25 24 23 23 24
2 7 9 9 12 8 6 5 5 3 11 8 7 8 9 5 6 6 8 7 6 9 10 14 4 5 6 6 4 1 3 7 12 17 18 19 20 21 23 23 24 24 26 26 25 26 25 26 24
5 7 8 8 10 6 8 5 2 4 8 8 6 7 9 8 7 7 7 9 7 11 12 14 6 7 7 6 5 5 8 11 15 19 22 20 20 21 24 25 26 27 28 29 29 28 28 29 30
8 8 9 7 5 4 9 4 10 8 4 5 8 6 5 5 6 7 10 13 13 14 12 11 13 7 8 9 9 11 13 16 19 22 22 21 23 25 27 28 30 30 31 32 31 30 29 28 28
9 7 5 4 3 1 4 9 8 10 7 6 8 8 9 8 9 10 11 12 10 11 11 13 17 13 12 14 14 15 20 21 23 25 26 26 28 28 28 29 30 30 30 30 30 31 31 29 27
6 6 7 8 6 6 7 11 13 11 8 8 8 8 12 12 10 11 11 10 10 10 9 13 16 24 16 18 22 23 25 25 26 29 30 30 31 29 28 29 30 31 33 33 33 32 30 31 32
7 9 9 7 6 5 7 5 11 9 10 12 11 13 11 12 12 11 13 8 8 11 14 12 16 22 25 23 24 27 27 28 29 31 27 33 35 32 34 35 36 37 38 37 35 35 36 38 39
12 8 2 2 5 3 6 8 4 4 4 7 9 11 9 9 12 16 19 22 24 23 24 24 23 23 27 28 29 29 31 32 32 32 32 36 38 40 38 38 38 39 44 46 44 45 46 46 46
7 4 1 6 2 4 8 9 4 2 1 4 6 11 13 18 22 28 26 29 33 28 25 22 26 27 28 26 28 29 32 33 31 33 37 39 42 42 45 48 51 46 45 46 46 49 49 48 46
2 2 3 2 5 5 5 9 5 6 6 7 9 14 20 24 27 29 30 29 24 21 22 21 19 17 20 25 28 29 31 32 33 36 41 44 47 48 47 51 52 50 48 45 43 43 44 44 41
4 3 3 3 7 11 11 11 12 9 9 12 15 12 5 8 19 23 23 19 14 13 15 17 21 24 24 28 32 31 32 35 37 38 41 44 46 48 53 54 52 50 47 45 41 40 41 45 44
4 1 6 9 10 13 15 13 19 15 12 11 11 10 6 6 12 9 9 11 13 15 17 22 27 29 29 29 33 35 35 37 38 40 43 47 48 53 53 51 50 49 47 46 44 46 48 50 52
4 11 10 9 11 13 15 10 19 21 16 12 9 7 11 11 9 10 14 17 17 19 22 25 28 31 34 31 30 33 36 37 40 44 48 50 50 47 47 48 45 45 47 49 51 54 56 57 59
7 9 11 11 11 13 17 18 20 15 17 15 10 8 6 7 10 15 17 19 24 25 28 28 30 29 31 35 32 34 35 38 41 43 44 45 45 44 42 42 45 48 51 53 55 58 59 59 57
7 8 8 4 6 3 8 1 4 13 14 12 11 7 5 8 12 11 16 20 23 26 30 32 32 29 30 31 36 41 43 41 40 39 40 41 41 40 42 45 50 54 56 57 56 53 49 47 45
5 4 3 4 5 9 4 6 10 15 20 15 11 8 8 5 11 10 14 21 26 28 29 30 30 30 35 40 41 41 38 36 37 38 39 39 42 47 51 53 55 55 54 52 47 40 41 39 38
6 5 4 5 7 4 8 2 9 9 5 3 4 3 6 6 12 13 14 19 29 30 28 32 30 34 40 39 39 37 37 38 38 38 41 44 47 49 51 52 53 50 46 42 38 36 35 35 35
7 4 3 1 2 3 10 11 8 7 6 6 6 6 8 9 11 12 21 25 29 33 33 38 42 45 45 42 38 36 37 36 37 41 43 44 47 49 50 50 48 44 40 36 34 32 32 33 32
4 3 4 6 7 2 3 1 9 5 4 6 4 9 13 15 21 18 25 31 29 36 37 37 45 52 45 38 36 37 37 38 39 40 44 47 49 47 47 45 40 32 28 28 27 34 35 34 37
3 2 3 3 6 8 11 18 18 3 4 9 15 13 12 14 14 18 22 24 36 36 41 40 46 51 39 36 38 38 40 40 41 43 46 47 48 47 45 34 33 32 33 33 38 41 39 38 32

GFSSGP_700_spd_033.txt.gz
Wind_Speed
11 12 16 14 7 6 9 1 8 8 18 11 7 7 11 9 9 4 13 6 10 12 12 9 8 9 6 3 3 2 2 2 3 6 9 11 12 13 14 15 15 15 15 14 14 15 16 15 16
12 16 17 13 5 4 10 11 19 16 19 14 10 9 1 6 7 13 13 8 6 11 12 9 8 9 4 3 3 2 3 6 8 12 14 14 14 14 15 14 15 14 14 13 13 15 16 17 18
15 18 16 7 4 13 13 9 18 17 8 5 7 6 1 3 3 5 6 8 14 10 10 9 9 7 4 2 3 4 7 11 14 12 10 10 10 11 11 11 12 13 14 14 14 15 16 16 17
18 17 10 6 8 5 17 12 9 17 15 6 1 3 6 4 4 4 3 6 10 9 9 9 8 6 3 4 5 9 13 13 10 7 8 8 7 6 7 8 9 11 12 12 12 14 15 16 17
19 15 10 6 18 17 15 11 12 14 8 5 3 6 4 7 6 4 7 10 8 7 8 8 6 3 4 7 10 12 11 7 4 6 8 8 7 8 8 9 11 13 14 15 14 12 11 12 13
21 10 6 7 17 22 18 13 6 8 10 5 2 2 3 3 5 8 7 9 8 8 7 6 3 4 8 10 10 8 5 3 6 7 9 9 8 10 12 12 14 15 15 15 16 16 16 16 15
14 4 7 10 16 13 16 11 15 11 17 11 3 2 3 3 6 7 6 9 9 8 6 4 5 8 11 9 7 5 5 7 7 9 9 9 10 11 13 14 15 16 17 17 17 17 17 16 17
1 10 6 1 11 16 15 10 5 9 14 9 5 3 6 7 7 8 8 10 7 6 7 8 8 11 9 7 5 6 6 6 7 8 8 9 11 13 14 16 17 18 19 19 19 19 20 20 19
3 17 19 14 18 13 10 11 4 2 5 10 10 10 6 10 8 8 7 7 8 10 10 11 7 6 5 6 7 6 5 5 5 8 9 11 13 12 14 16 17 18 19 20 20 20 22 22 22
7 4 17 14 13 10 9 2 6 8 4 8 12 6 2 7 7 7 7 7 10 11 12 13 9 7 6 6 6 6 5 4 5 7 11 14 18 20 21 22 23 24 24 23 22 22 23 23 25
7 12 16 21 12 14 9 4 10 8 6 4 3 2 6 8 7 7 8 9 8 8 9 7 5 8 7 7 7 5 4 5 6 9 15 20 22 22 22 23 24 25 26 26 26 28 28 27 24
7 5 9 18 19 11 8 9 6 9 7 2 3 7 2 4 6 8 4 5 11 16 13 9 7 7 6 7 8 9 9 11 13 16 18 18 21 22 24 25 27 28 28 29 30 30 30 30 29
3 6 5 13 18 14 11 13 6 10 8 6 2 7 4 5 2 3 6 6 10 15 18 15 8 5 7 6 6 7 11 13 16 17 19 21 22 22 24 26 27 27 28 29 30 30 29 29 30
7 5 6 13 16 11 13 7 12 7 6 9 5 4 4 7 6 2 8 10 13 14 16 21 13 5 9 7 8 8 13 15 20 22 23 24 26 27 27 28 28 27 27 28 29 30 31 30 28
10 9 5 7 5 6 12 8 12 11 6 4 5 3 6 3 1 6 7 13 17 18 20 19 19 16 13 12 13 14 18 22 25 27 28 28 29 29 26 28 31 31 31 31 31 32 34 35 34
10 10 11 7 6 5 4 7 11 15 11 9 6 5 7 9 6 8 13 11 15 14 16 17 18 22 13 18 23 20 22 22 25 30 32 31 32 28 28 30 31 34 36 37 42 40 40 40 39
10 11 14 14 7 4 2 7 19 10 9 6 9 10 8 11 13 13 14 15 17 15 16 17 17 23 25 18 20 27 26 26 29 31 36 37 36 32 32 34 37 40 41 41 43 42 43 43 42
5 8 17 15 11 7 5 8 13 10 7 1 7 14 24 22 22 21 22 21 22 18 21 21 21 26 28 29 30 28 26 29 31 33 34 36 36 36 37 38 43 42 45 45 47 50 46 45 43
3 9 10 15 8 3 7 4 8 5 7 12 11 11 30 23 25 25 28 26 27 27 21 22 29 29 29 30 25 24 27 28 28 30 29 32 37 41 40 46 47 49 49 51 49 44 42 42 41
5 4 9 7 5 8 4 4 11 11 11 11 17 20 19 22 26 26 28 28 27 27 26 23 23 22 21 24 27 28 28 28 28 30 35 39 42 44 45 47 49 50 50 46 43 41 44 42 40
3 2 2 3 3 6 7 6 13 15 16 17 18 23 26 27 25 25 26 27 25 19 17 17 18 19 24 28 30 31 31 32 34 34 36 38 42 44 46 49 48 46 45 45 44 43 43 45 46
3 4 6 9 8 7 9 6 20 21 20 16 15 16 19 21 20 19 20 18 15 17 18 20 22 24 25 26 29 32 32 32 32 35 37 40 42 44 45 43 44 45 46 44 46 48 50 51 52
3 6 9 8 9 9 11 11 22 23 22 19 18 16 16 18 18 11 12 14 16 17 18 20 24 27 30 31 32 31 31 31 33 36 43 44 44 44 45 44 42 42 44 46 49 53 55 56 56
4 6 9 11 10 4 11 11 12 29 25 22 22 20 14 17 15 14 15 17 19 21 23 25 24 25 28 31 34 38 40 42 43 42 43 43 43 44 42 41 42 44 48 50 52 53 54 52 50
5 5 5 3 2 4 13 7 4 10 24 22 22 17 12 10 9 8 13 19 25 28 27 27 28 29 30 31 35 41 41 42 41 39 41 42 42 41 41 42 44 46 49 52 53 53 49 44 42
6 7 4 0 1 6 13 6 8 11 13 10 7 9 9 9 8 11 19 25 27 29 30 27 28 29 32 36 43 43 41 38 38 41 43 44 43 44 44 47 50 50 52 53 52 49 45 39 33
4 7 3 2 3 3 2 10 7 6 5 9 13 11 9 8 12 16 19 26 29 32 34 35 38 39 42 46 49 49 40 36 37 39 41 43 43 46 48 49 51 51 49 48 45 39 34 31 28
10 8 3 2 1 2 6 6 4 6 8 7 6 6 9 9 10 11 18 28 31 35 35 39 41 42 46 52 50 48 37 36 37 39 42 41 43 46 49 50 49 46 44 41 35 32 33 33 36
4 3 1 3 2 4 1 3 5 3 3 2 8 4 4 9 16 22 24 27 31 35 34 44 41 45 49 53 47 40 35 40 40 39 40 41 45 48 47 45 43 42 37 37 36 35 36 39 40
4 1 2 2 3 3 3 8 10 6 9 6 6 11 15 19 20 25 24 28 32 36 40 38 48 55 56 46 40 37 39 40 38 39 41 46 46 46 44 40 36 32 34 33 34 38 41 40 38

GFSSGP_700_spd_036.txt.gz
Wind_Speed
13 13 11 10 7 3 5 8 11 6 12 14 16 15 13 17 16 6 15 16 9 12 14 12 9 10 6 3 2 2 3 4 5 8 12 14 15 15 15 14 14 13 13 12 13 13 13 14 15
12 10 13 11 5 6 14 11 11 12 5 7 9 7 10 11 7 7 12 15 11 15 14 10 9 9 4 2 3 2 3 6 10 14 14 12 11 11 12 12 13 12 13 13 13 13 13 13 14
12 12 12 6 10 5 17 12 15 13 8 7 2 4 6 5 10 9 10 10 14 16 15 9 9 9 4 2 2 4 8 12 14 11 7 6 6 6 5 5 5 6 7 8 8 9 11 13 14
11 14 12 7 10 7 18 21 15 9 9 5 3 3 6 6 7 4 10 13 14 13 11 10 10 7 4 2 6 10 13 13 8 4 6 8 8 8 7 7 8 10 11 11 11 10 9 9 10
14 15 6 7 11 22 15 15 12 14 9 6 1 7 3 3 2 3 13 14 12 13 12 11 9 6 3 6 11 12 9 5 2 5 8 9 10 9 10 11 12 13 14 14 13 13 12 11 10
14 18 8 4 17 15 13 17 17 14 5 7 3 6 6 5 1 9 12 14 15 12 11 9 6 3 6 10 10 6 3 3 5 7 9 10 10 11 12 13 14 14 15 15 15 15 16 16 16
18 8 4 10 16 12 13 19 9 8 6 3 2 2 5 2 8 11 12 13 12 12 9 7 4 5 9 9 5 3 4 4 6 7 8 9 10 12 13 15 16 17 17 18 18 17 17 17 17
11 4 2 14 20 5 13 15 16 11 11 3 3 5 3 6 11 13 14 13 12 10 7 5 6 8 9 5 3 5 5 5 6 6 6 8 12 14 15 16 17 18 19 20 20 19 19 18 18
3 6 5 11 19 20 9 9 10 7 4 3 1 5 5 10 12 13 13 13 10 7 6 6 8 9 7 5 5 5 5 5 5 5 6 8 10 14 18 19 20 20 20 21 20 20 20 21 21
12 5 5 15 19 18 12 8 5 5 5 8 13 11 5 10 10 11 11 9 7 8 9 10 10 6 4 5 5 4 4 5 5 6 7 10 14 18 20 21 22 23 23 23 23 22 22 23 21
12 8 19 19 17 8 8 5 10 8 5 8 7 4 7 9 9 9 9 7 6 5 2 4 5 4 3 4 2 2 4 4 5 7 11 14 17 19 20 22 24 25 24 24 24 24 23 22 22
13 13 14 15 12 8 11 9 4 3 3 3 4 7 3 4 7 6 7 5 3 2 8 9 7 7 5 5 3 4 4 6 10 13 16 19 21 22 22 22 23 23 24 24 24 23 24 24 24
7 8 15 22 13 10 13 6 4 8 6 3 1 6 6 7 3 1 1 3 7 10 14 16 13 11 8 7 8 9 11 13 14 16 20 21 22 23 23 23 24 24 24 25 25 25 26 28 28
8 10 10 17 15 13 14 7 9 8 3 3 3 6 5 6 9 12 7 6 6 10 16 19 15 10 10 8 12 18 19 19 20 20 22 22 23 25 26 26 25 25 27 28 29 32 33 33 32
2 9 9 14 13 13 13 10 11 10 6 4 1 5 4 2 4 8 8 6 7 11 14 15 14 16 11 9 15 17 17 22 24 26 25 25 25 27 26 25 25 29 30 31 34 36 38 39 37
3 3 6 8 7 11 9 7 14 13 8 5 3 4 2 5 3 6 9 11 10 11 12 11 16 18 13 12 13 12 18 26 28 27 28 29 28 27 27 28 31 35 35 39 39 40 42 43 43
10 9 12 7 8 4 4 10 19 17 11 7 11 11 9 13 13 15 15 14 16 16 15 16 18 18 17 16 19 25 26 25 27 30 32 31 32 32 31 34 36 38 38 42 42 43 46 47 47
9 13 17 17 13 8 6 9 21 18 16 15 16 17 19 17 21 24 23 21 20 20 17 20 19 20 20 22 23 25 23 26 28 30 30 33 34 37 39 39 40 39 42 43 45 47 47 47 47
1 1 16 18 13 6 8 14 18 16 16 17 15 17 18 21 22 27 30 26 21 22 19 18 20 24 27 25 23 21 24 28 29 32 34 35 35 38 39 41 44 45 47 48 49 48 45 42 44
9 17 17 14 7 4 7 15 14 15 15 16 15 14 15 26 26 25 30 25 22 24 24 26 30 28 21 18 21 23 25 26 27 30 32 36 39 40 42 44 46 47 48 47 45 44 45 44 44
8 14 15 9 4 4 1 14 16 17 18 18 15 15 16 18 19 19 22 25 27 29 28 23 21 20 21 23 26 27 27 29 30 33 36 37 38 40 42 45 46 46 45 45 44 43 43 44 46
7 6 2 4 6 3 4 5 18 19 20 18 21 20 18 20 18 18 23 28 26 19 18 19 21 24 28 30 28 25 24 24 27 31 35 40 42 43 43 43 43 44 45 46 45 46 48 50 51
2 4 4 3 4 6 4 3 19 22 21 21 22 19 19 15 16 17 19 16 14 18 22 25 26 29 29 28 28 29 33 39 41 40 39 40 42 42 42 44 45 45 45 46 48 49 50 51 52
2 3 3 4 5 3 7 2 15 25 25 21 17 20 19 16 15 13 11 11 11 16 20 21 25 25 26 28 29 30 36 42 44 45 44 42 40 40 41 41 43 45 46 46 48 50 50 51 50
4 2 2 3 2 5 9 2 5 12 19 22 20 20 14 12 13 12 14 14 21 26 19 23 27 32 34 36 39 44 46 49 51 50 45 40 39 40 41 44 44 44 47 48 50 51 48 45 44
5 6 3 3 2 4 4 4 3 5 12 17 14 9 4 14 19 17 18 21 25 30 31 31 35 36 39 43 44 51 50 51 50 44 40 41 43 45 47 47 46 47 50 52 50 46 43 39 35
4 5 4 3 2 1 3 6 6 6 9 13 17 17 16 2 11 13 16 19 21 26 30 33 38 42 41 45 40 52 55 50 45 39 39 43 47 48 48 50 50 52 52 50 45 41 35 34 34
10 6 2 3 2 1 2 6 2 9 5 3 8 9 8 15 12 13 15 19 25 32 33 36 40 43 44 45 51 53 50 45 40 41 42 42 45 48 50 52 52 50 46 43 41 38 35 35 35
4 5 3 2 2 4 0 1 1 6 7 9 8 4 6 10 9 15 22 25 28 31 35 38 43 50 49 45 50 46 41 40 39 36 40 43 44 46 45 47 44 42 43 41 38 38 36 37 38
4 4 3 3 2 1 2 5 5 1 5 9 10 15 18 21 22 25 21 26 29 35 38 43 49 45 44 45 48 42 39 43 45 41 52 44 39 38 39 35 34 36 38 39 36 35 36 37 37

GFSSGP_700_spd_039.txt.gz
Wind_Speed
9 11 8 11 7 3 9 9 13 16 18 16 18 14 15 13 13 5 16 16 14 15 13 12 11 9 7 5 3 2 3 2 4 8 12 15 15 15 15 14 14 14 13 15 15 15 13 12 13
9 6 8 13 5 5 2 19 12 9 15 13 13 11 11 13 6 8 18 19 17 16 14 12 10 9 6 2 4 3 3 6 10 13 14 11 10 11 9 8 8 8 9 10 11 12 13 12 13
7 8 13 7 11 7 8 11 11 13 11 9 1 12 8 7 7 16 16 16 18 18 16 11 9 9 4 3 3 4 7 11 14 11 7 7 8 8 8 7 7 7 9 10 10 10 10 10 11
10 13 13 7 10 10 10 16 17 13 10 7 12 7 7 10 6 8 14 15 16 16 15 11 10 9 6 4 4 8 12 12 9 3 5 8 9 9 9 10 11 12 12 12 12 11 12 12 12
11 14 11 5 7 12 13 17 12 12 13 6 3 5 4 8 8 10 14 18 16 15 15 13 12 9 6 4 8 11 9 4 2 4 6 7 9 10 11 12 13 13 14 14 14 14 13 13 13
10 14 7 4 13 16 23 20 11 12 9 6 5 5 2 9 7 13 15 16 17 14 13 11 9 8 4 6 9 6 2 2 4 5 6 8 10 11 12 13 13 14 14 14 14 14 13 12 12
16 12 6 11 14 18 20 18 15 12 6 4 3 3 1 10 16 15 15 15 15 15 12 11 8 3 5 8 5 2 2 3 5 7 8 8 10 12 14 15 16 17 17 17 17 16 14 14 14
17 8 7 5 8 13 16 11 9 7 6 6 2 4 4 10 17 16 17 17 16 14 11 8 4 5 8 6 2 2 3 5 4 5 6 8 11 13 14 16 17 18 19 19 19 19 18 18 17
16 4 12 20 22 22 14 20 12 9 5 2 1 4 8 9 14 14 14 14 12 10 8 5 7 9 7 4 2 1 2 3 4 5 5 7 10 12 15 16 18 19 20 21 21 21 20 19 19
8 8 10 15 10 15 22 18 12 7 1 7 8 9 1 10 12 12 11 10 8 6 5 8 10 8 5 2 2 2 2 2 2 3 5 8 12 16 17 18 19 21 22 24 23 22 22 20 19
5 1 8 22 7 18 18 9 6 5 6 7 5 3 7 12 13 12 10 8 6 5 2 1 3 4 2 1 2 1 0 1 3 6 8 12 18 20 19 21 22 24 23 23 22 23 22 22 21
8 17 18 17 19 19 14 12 11 4 5 5 5 7 4 6 8 9 11 9 7 5 6 8 7 5 2 3 3 2 3 6 8 11 15 17 18 19 19 21 22 23 23 24 24 23 23 25 26
15 15 15 15 20 14 14 8 6 7 2 4 5 7 9 11 9 4 4 3 4 8 11 12 9 7 4 1 2 4 6 9 12 16 20 21 21 20 21 23 23 23 24 27 29 29 29 30 30
13 15 20 16 15 14 11 9 8 10 4 4 7 9 9 9 10 10 6 8 9 11 10 12 13 10 7 7 8 12 13 14 14 20 24 24 23 24 25 25 24 26 29 31 32 34 35 37 36
9 15 16 14 15 13 10 7 6 5 4 1 6 8 5 3 2 2 1 4 6 7 6 8 13 13 11 8 11 13 14 13 21 23 23 21 24 26 27 28 29 31 32 35 36 39 40 41 40
7 10 12 17 9 11 12 10 10 10 8 1 4 3 4 7 8 8 6 6 3 5 8 11 12 14 14 10 10 10 18 23 25 23 23 25 27 29 31 34 35 35 36 38 40 40 41 44 45
5 4 6 9 11 8 10 5 12 12 9 6 7 7 9 12 14 14 13 14 12 13 15 17 18 19 16 13 17 19 20 26 27 27 29 31 32 33 36 37 36 37 37 39 42 45 47 49 51
8 8 11 10 9 9 7 5 16 16 12 13 11 12 15 17 19 19 18 17 17 18 19 22 21 19 18 18 19 25 24 23 25 27 28 31 33 36 35 40 40 37 39 46 48 50 51 54 55
8 12 13 12 10 13 9 10 20 19 17 16 16 17 20 21 24 25 25 24 22 21 20 21 21 21 23 24 26 24 23 24 24 26 27 30 33 34 37 39 46 46 47 49 51 53 55 54 53
2 2 9 15 12 7 13 16 19 19 18 19 20 20 18 21 23 26 25 24 25 19 19 23 27 27 26 20 21 22 22 23 22 24 27 29 33 36 39 41 44 47 49 52 54 53 51 49 49
9 13 18 16 9 5 7 16 17 18 18 18 18 17 16 14 17 21 17 19 21 23 23 21 20 18 18 19 20 21 22 23 23 24 29 32 36 40 42 44 46 47 47 47 48 48 48 48 46
12 15 12 9 7 6 9 6 16 19 20 19 18 16 13 10 10 11 13 14 16 11 11 13 16 19 21 21 19 19 19 22 28 32 35 37 40 40 41 44 45 45 46 48 48 47 47 47 48
6 8 5 5 4 2 1 5 11 19 21 22 21 17 14 10 11 12 12 14 9 8 12 18 20 19 19 21 25 26 31 34 38 41 42 46 47 43 41 42 44 46 48 49 50 51 51 51 52
7 7 6 6 3 2 2 3 14 26 28 25 20 14 14 9 7 9 9 9 10 11 20 18 17 21 26 33 34 37 40 44 46 48 47 47 45 42 42 44 46 47 50 52 53 53 53 54 54
2 7 3 1 0 4 4 1 4 23 17 20 19 16 13 12 8 5 13 14 18 24 25 26 29 33 32 38 40 41 46 50 50 49 49 48 44 42 43 46 49 50 49 51 52 52 52 50 47
2 2 3 5 3 2 2 1 1 8 12 17 15 16 15 15 14 19 21 20 20 26 29 31 34 35 38 41 43 49 52 49 50 49 48 43 41 43 44 45 48 51 52 53 54 50 43 43 42
4 3 3 5 3 1 1 2 2 3 8 14 15 16 20 16 9 15 16 17 23 24 27 29 32 38 43 44 48 50 48 48 47 44 41 41 43 41 43 49 52 51 51 47 39 36 37 40 41
7 6 2 2 2 1 3 5 6 13 12 10 11 13 15 16 17 15 20 21 19 25 27 30 34 39 43 48 46 46 48 47 44 40 42 42 44 49 51 45 44 46 41 37 34 33 36 39 40
5 3 2 2 2 4 1 5 9 8 11 13 15 18 21 20 18 19 26 23 30 25 28 31 38 44 46 43 44 45 44 42 42 46 47 46 45 47 45 45 44 43 41 39 35 34 37 40 41
4 5 4 1 3 3 2 6 9 10 11 12 15 19 18 24 21 23 23 26 22 29 31 35 41 41 41 41 42 42 45 47 45 45 48 50 48 49 47 40 46 42 44 35 34 35 37 40 40

GFSSGP_700_spd_042.txt.gz
Wind_Speed
10 9 8 9 8 6 6 4 3 7 15 15 25 18 11 7 12 2 18 19 20 19 17 16 14 12 10 9 6 2 0 2 4 7 11 13 11 10 10 9 9 10 10 11 11 11 12 13 13
7 9 11 11 9 7 4 10 8 9 10 15 15 5 9 6 4 5 22 20 22 20 17 15 13 12 9 6 4 2 1 4 8 11 10 7 7 7 9 10 9 10 10 11 11 11 10 11 11
9 11 11 5 12 8 2 14 10 18 14 11 7 10 5 7 2 8 14 19 21 20 17 13 12 11 8 4 3 2 4 9 12 8 4 6 8 10 10 10 10 10 10 11 12 11 11 11 11
13 12 10 7 12 8 5 17 16 15 10 9 9 2 5 2 10 12 15 17 20 19 17 13 12 10 6 4 2 4 10 9 4 3 5 8 9 10 11 12 12 12 12 13 13 13 12 12 11
12 12 8 8 7 12 10 14 15 9 8 5 10 3 6 7 11 12 15 16 18 18 15 12 11 9 5 3 3 7 7 1 3 5 7 8 10 11 12 12 13 13 13 13 13 13 13 13 14
11 10 9 5 9 8 13 17 10 5 4 6 8 6 6 14 13 13 16 17 19 16 12 11 10 8 4 3 6 5 1 3 4 6 7 9 10 10 11 12 13 14 14 14 15 14 13 13 13
10 11 6 13 14 16 23 16 14 10 5 10 2 5 5 15 18 16 19 18 17 15 12 11 9 6 3 6 6 1 2 4 5 6 7 7 7 9 11 12 13 14 14 15 16 16 16 16 16
13 7 7 13 11 15 17 19 12 10 5 8 5 3 4 14 21 19 20 19 18 16 14 11 8 5 4 6 2 2 3 5 5 5 5 5 6 9 11 12 13 15 17 19 19 18 17 17 16
16 8 11 17 8 13 15 8 5 17 13 7 7 3 3 15 19 18 17 17 16 15 12 9 6 5 7 2 1 3 4 5 5 4 3 4 7 10 13 14 16 16 18 21 22 21 20 19 17
13 11 7 12 23 10 8 14 19 15 6 8 8 4 8 14 15 14 13 12 11 9 6 6 8 8 3 2 3 3 4 5 3 2 4 6 11 14 15 15 16 18 20 23 23 23 22 21 20
7 7 11 14 8 6 21 23 20 8 4 9 7 4 10 12 15 14 13 10 7 5 4 4 3 1 2 3 3 4 4 2 2 5 8 11 15 17 17 16 17 19 21 23 25 25 24 23 24
9 4 8 19 12 14 19 20 12 6 6 9 10 9 7 9 11 11 11 7 4 4 6 6 7 6 5 6 6 4 2 1 4 7 11 15 18 19 18 19 20 22 24 24 25 24 25 27 28
8 10 12 24 16 10 17 15 10 7 3 8 12 15 16 16 12 8 7 5 6 7 11 12 10 7 5 4 3 2 2 4 7 10 13 18 19 19 19 21 24 27 26 26 26 26 29 30 31
11 9 11 16 16 18 16 8 8 9 5 10 16 14 16 16 15 12 13 11 8 7 7 6 5 4 1 3 6 4 4 6 6 15 19 22 22 21 23 27 29 28 28 29 29 30 32 34 34
13 13 19 20 14 16 13 9 6 5 5 10 11 10 10 9 10 10 8 7 5 3 4 4 5 7 8 7 8 6 6 9 20 19 23 21 21 25 28 30 32 31 32 33 33 35 36 39 39
8 12 14 15 15 11 10 8 6 6 4 6 6 7 8 6 5 6 3 4 4 6 10 12 15 16 15 13 10 8 15 12 20 22 22 23 26 28 29 30 32 35 34 33 35 35 40 41 44
6 9 8 13 11 7 12 3 6 7 8 7 5 6 8 8 9 9 9 8 8 11 14 19 21 23 24 25 9 6 13 17 20 21 22 24 26 28 28 33 35 37 39 34 39 43 48 49 49
9 6 7 8 10 6 8 13 11 13 13 10 9 11 13 12 14 15 15 15 16 17 21 23 26 28 26 22 24 18 18 19 18 21 22 24 23 28 30 33 35 38 45 47 50 49 51 54 56
3 6 9 10 10 11 10 10 10 14 16 14 14 16 18 19 20 21 21 21 22 22 24 23 23 23 21 24 18 15 13 15 18 22 25 27 27 29 31 35 39 43 47 50 53 55 57 58 58
1 5 5 9 11 10 11 14 13 19 18 15 16 21 22 21 18 18 21 22 22 24 21 15 18 20 15 15 17 19 21 22 23 23 23 25 28 29 31 35 39 43 47 50 52 53 53 53 53
3 5 13 13 10 7 7 14 14 18 17 17 18 19 16 14 11 10 8 10 11 14 15 10 10 12 14 16 16 16 17 20 22 25 28 32 35 37 40 42 45 44 44 46 47 48 50 51 50
6 9 7 9 7 3 8 4 14 17 19 19 18 15 11 5 5 3 3 11 9 5 6 8 12 13 11 13 17 21 25 28 32 38 43 45 45 44 43 46 46 45 44 45 46 47 48 50 51
7 9 7 4 4 4 6 5 11 19 19 20 19 13 9 7 6 3 3 4 9 5 4 11 13 13 18 22 24 31 34 37 41 46 47 46 47 47 49 48 46 45 46 49 51 53 54 55 55
6 8 7 5 3 1 3 4 7 16 23 23 19 14 11 11 8 2 4 5 7 13 22 26 27 23 25 27 31 34 37 40 46 47 46 48 48 49 48 47 47 48 50 50 50 50 52 54 54
4 6 0 0 1 4 5 6 8 8 17 21 18 16 15 14 10 9 11 14 22 33 28 25 23 22 26 29 34 40 42 46 48 46 48 48 47 45 45 46 47 47 48 50 49 48 45 42 35
5 8 4 4 3 3 3 4 4 6 11 8 18 19 17 13 13 20 25 29 25 18 18 26 28 28 29 32 38 42 46 48 48 48 47 47 46 46 47 45 46 47 47 46 45 41 38 36 34
5 4 4 3 2 1 3 5 8 5 9 13 12 16 14 17 17 16 23 19 20 24 25 25 29 30 31 35 41 46 46 47 48 47 46 46 44 46 47 48 48 47 48 45 41 39 38 35 34
8 7 3 3 3 3 4 7 10 8 8 11 11 11 14 17 19 20 20 19 24 25 27 31 26 30 33 39 46 44 46 46 45 45 45 46 48 48 49 51 49 47 41 39 42 36 42 35 35
8 7 4 4 2 4 1 5 8 8 6 8 11 14 16 19 23 22 23 25 27 27 29 30 32 34 39 40 41 42 44 46 47 49 49 51 51 52 50 43 41 39 41 42 36 39 31 31 34
8 8 7 4 4 5 2 7 7 9 10 14 17 18 21 23 24 24 25 25 26 28 31 31 31 38 36 39 41 44 46 48 49 50 51 53 54 48 42 40 39 43 46 43 29 25 28 32 35

GFSSGP_700_spd_045.txt.gz
Wind_Speed
10 9 8 10 6 6 9 6 3 7 7 10 18 16 15 8 12 2 10 26 26 24 22 19 16 14 13 11 8 4 2 0 3 7 12 10 7 8 9 10 9 8 8 9 10 11 10 10 9
10 9 10 10 7 8 5 9 8 8 7 19 12 10 7 14 1 1 24 25 26 23 21 19 16 14 12 9 6 3 1 1 5 10 8 4 6 8 9 9 9 9 8 9 9 9 9 9 8
10 10 12 9 10 9 6 11 8 8 8 11 8 12 5 7 7 15 17 17 23 23 21 17 16 14 11 8 6 3 1 5 9 5 2 5 7 7 9 9 9 9 9 9 9 9 9 9 8
13 14 13 11 8 9 9 14 16 19 22 9 2 1 11 1 3 8 15 21 24 22 19 17 15 13 9 8 5 1 5 7 1 3 4 6 8 9 10 10 11 11 11 11 11 11 11 11 11
15 15 12 8 8 10 8 19 14 10 7 5 6 8 2 3 2 10 16 23 23 21 17 15 14 11 9 6 2 4 5 3 5 5 6 8 9 10 10 10 10 10 11 12 13 13 13 12 12
17 13 7 6 6 13 10 17 18 14 10 2 3 2 4 5 13 17 19 24 24 20 15 14 13 10 7 3 3 3 3 4 6 6 8 9 9 9 8 8 9 10 11 14 16 17 17 17 16
13 8 6 6 10 14 18 18 11 6 3 7 3 6 5 8 16 19 20 23 23 20 14 13 11 9 5 2 4 3 5 6 7 8 8 7 7 6 7 8 9 10 12 14 17 19 19 18 18
9 6 8 12 11 13 17 18 12 8 4 3 7 11 5 11 19 19 22 22 20 18 15 13 11 7 2 3 3 5 7 8 8 8 7 5 4 5 8 9 10 12 14 16 17 19 20 21 20
11 6 4 10 16 16 16 16 6 9 10 10 5 3 4 11 18 19 19 18 17 16 15 13 9 4 3 3 5 6 7 8 8 6 4 2 3 6 9 10 11 13 15 17 19 20 21 20 19
10 9 7 8 15 16 12 7 6 15 7 11 8 4 7 14 18 17 16 15 16 14 11 7 4 5 4 4 7 8 9 9 6 3 0 3 7 10 11 12 13 14 17 19 20 20 20 20 21
10 12 8 4 12 4 5 18 18 7 3 2 2 5 15 18 19 18 16 15 13 9 4 4 5 6 8 10 10 10 10 8 5 3 3 6 9 12 14 13 14 17 19 20 21 21 21 22 23
4 5 12 9 12 16 15 15 11 5 7 7 13 11 15 17 17 18 16 11 10 7 7 8 10 11 12 12 13 13 11 8 5 5 6 8 13 15 16 17 18 20 22 23 23 23 23 24 26
13 9 11 16 18 11 11 9 10 10 6 12 17 17 15 15 15 15 14 11 11 12 11 10 9 8 10 13 13 12 9 7 6 7 9 12 15 18 18 20 22 24 25 25 25 25 26 28 30
13 11 12 24 21 13 12 12 10 7 11 18 21 20 19 16 13 12 14 16 13 9 7 5 5 7 10 11 11 9 6 6 6 11 15 15 18 18 20 23 26 27 27 26 29 30 30 29 32
4 9 13 22 21 17 15 10 11 11 12 13 14 13 15 16 18 18 16 15 12 9 8 8 9 11 11 11 11 12 9 7 8 23 23 18 21 20 23 26 29 31 33 31 33 28 32 39 39
15 14 17 14 15 17 14 12 9 11 12 10 6 7 10 12 12 12 14 13 13 13 14 15 18 19 19 17 18 19 11 13 17 17 17 20 21 23 26 27 29 30 36 32 35 36 41 37 46
9 13 12 16 14 14 15 8 11 11 13 12 7 6 7 8 9 9 9 12 14 15 17 20 23 23 24 25 24 27 20 8 12 14 17 21 26 28 30 31 32 34 34 37 40 42 44 46 48
8 12 11 16 12 6 11 7 5 7 15 14 11 9 9 9 10 12 13 14 16 17 20 22 26 31 30 30 14 15 8 7 11 15 19 23 26 27 28 30 33 36 37 40 43 45 48 50 52
5 6 9 12 13 12 10 8 6 6 16 16 15 14 12 12 14 17 17 20 21 23 25 26 28 23 19 8 5 5 7 8 11 14 18 21 24 27 31 35 37 39 40 41 42 44 46 47 50
3 3 4 11 15 12 10 9 7 9 14 19 18 17 17 17 18 17 14 10 10 14 16 18 20 9 10 7 10 11 12 13 15 17 20 23 28 33 36 34 35 37 40 42 43 44 46 48 50
4 2 8 9 11 10 9 9 11 12 16 21 20 20 20 17 12 8 6 5 5 9 12 5 4 6 7 8 10 11 14 17 20 25 29 34 37 38 39 40 40 42 42 42 42 43 45 47 48
5 5 6 9 10 5 6 4 12 16 18 21 21 20 15 10 7 6 6 5 4 3 4 3 9 11 12 12 12 16 19 24 29 34 38 40 40 42 43 44 44 44 44 45 45 46 48 48 49
4 5 5 7 6 4 6 5 12 16 21 22 21 16 11 8 8 8 6 6 6 3 3 13 15 17 20 19 19 23 27 31 36 41 42 42 43 44 43 44 45 46 47 49 48 47 47 48 47
3 5 4 4 3 2 9 10 7 15 19 22 20 15 11 11 10 7 5 5 7 9 14 24 28 23 21 23 23 27 32 34 40 42 42 43 43 43 44 45 46 49 49 48 46 46 46 44 40
5 6 0 1 2 3 10 7 13 9 11 9 14 14 13 12 10 8 9 13 16 18 18 16 18 20 22 30 28 31 34 38 42 41 41 42 43 44 45 47 48 48 47 48 47 46 45 43 40
8 8 5 4 3 1 6 6 5 4 5 8 12 12 13 12 10 12 14 12 15 13 16 20 24 27 27 28 30 36 39 42 40 40 41 43 45 46 46 47 47 48 49 48 46 43 40 39 37
7 6 8 3 2 1 4 7 9 8 5 10 10 13 14 12 12 12 14 16 17 19 20 26 23 30 29 31 32 37 40 40 41 43 46 46 46 47 48 49 50 49 47 44 40 37 37 28 29
9 5 4 4 4 3 3 7 9 2 3 9 12 10 13 13 11 14 17 20 19 21 24 26 27 31 28 32 38 39 39 41 44 44 46 48 49 49 50 49 47 45 41 38 39 39 32 26 27
10 10 6 5 3 3 1 4 4 4 7 7 9 12 16 15 15 17 20 21 22 25 26 28 31 35 35 44 39 37 40 42 43 46 48 48 48 48 48 47 44 41 38 36 37 34 27 26 26
10 10 10 5 5 5 3 6 3 3 6 12 15 17 18 19 21 21 23 23 26 28 29 31 35 38 41 38 38 39 40 42 44 45 44 45 47 47 47 45 41 38 34 35 33 28 27 26 29

GFSSGP_700_spd_051.txt.gz
Wind_Speed
11 11 9 7 9 13 22 23 14 11 10 6 13 8 9 18 12 13 17 19 15 25 23 21 19 18 17 15 12 9 6 4 2 2 5 2 3 5 6 6 6 6 7 7 8 8 9 9 10
11 10 9 6 15 22 21 22 9 12 13 10 9 8 11 12 11 8 10 14 19 24 23 22 19 18 17 14 11 7 4 2 1 4 1 3 4 5 5 6 7 7 8 8 8 8 9 10 10
10 10 6 10 19 24 14 2 9 8 4 6 8 12 17 10 13 13 16 26 24 25 23 18 19 19 17 13 9 6 4 2 3 1 3 5 5 5 5 6 6 7 7 7 8 9 9 10 11
8 7 10 13 19 16 13 8 11 7 5 8 10 10 13 6 11 19 21 25 25 23 20 23 20 19 15 12 8 5 4 4 2 4 5 5 5 6 4 4 5 6 7 7 9 10 11 11 11
9 9 15 16 18 9 7 6 6 14 6 8 6 8 16 15 15 12 25 24 19 22 23 22 21 18 14 11 7 4 4 4 6 5 6 6 6 5 4 4 5 6 6 7 9 10 12 13 13
9 10 18 19 17 12 9 13 18 13 9 3 5 3 5 5 3 13 24 20 17 21 22 20 19 16 13 11 7 5 5 6 6 7 7 7 6 4 2 3 5 6 7 8 10 12 14 16 17
13 15 17 16 5 10 15 15 15 10 15 8 4 7 4 4 12 19 19 24 24 18 18 18 17 14 13 9 7 6 7 8 8 9 9 9 7 3 1 4 6 7 8 9 11 13 15 17 19
12 14 18 15 12 14 14 12 12 10 7 17 3 10 5 6 17 25 36 27 26 24 20 19 16 14 11 8 7 7 9 10 10 12 11 9 6 3 3 6 7 8 9 11 13 14 16 18 20
12 14 20 13 15 16 19 10 10 6 8 4 5 5 4 5 11 21 19 26 24 21 21 18 16 13 9 6 7 8 9 11 13 13 11 9 7 5 8 9 10 11 12 14 15 17 17 19 21
14 13 6 4 11 18 5 10 10 7 4 1 2 9 10 7 10 14 16 22 21 18 18 17 13 10 8 7 8 10 12 13 13 13 11 10 8 8 11 10 11 13 14 16 18 19 20 20 20
14 14 9 9 2 4 4 8 13 5 5 4 8 10 4 8 13 15 15 18 17 17 16 14 12 9 9 10 11 13 14 15 15 13 12 10 9 11 11 13 14 15 16 19 21 23 22 25 25
9 12 9 12 16 5 9 13 15 11 5 4 10 9 13 15 16 16 16 18 19 16 13 11 12 12 13 14 15 15 16 17 15 13 11 9 10 13 13 13 13 16 21 23 23 22 27 29 30
9 4 4 12 11 8 7 8 8 8 1 9 12 18 18 16 16 17 18 19 15 13 11 11 12 12 13 14 15 18 17 18 17 13 11 10 11 16 14 15 20 27 20 27 27 29 32 31 34
9 6 10 7 6 2 10 3 1 4 9 15 16 18 17 17 17 18 17 15 12 10 9 9 10 11 13 14 15 18 20 20 18 15 12 12 19 20 22 26 22 23 25 29 31 34 31 34 34
9 7 8 8 7 3 8 6 6 8 12 16 16 17 16 16 18 17 17 15 13 11 10 9 9 11 14 17 20 21 23 23 19 13 8 12 24 23 22 28 26 25 30 33 33 35 35 38 39
12 8 13 10 11 9 13 14 8 9 12 15 16 16 16 17 16 15 19 19 16 15 14 14 14 16 16 18 21 24 27 23 16 24 24 24 33 31 25 26 27 30 32 31 33 36 39 40 41
11 11 13 6 13 10 10 14 13 12 12 13 14 16 16 17 17 20 21 20 20 20 19 17 18 18 22 21 25 23 28 30 29 19 31 22 24 22 24 27 27 29 33 35 37 37 39 42 41
9 12 12 14 15 12 9 8 12 16 14 13 14 15 16 19 19 20 21 21 20 22 22 20 21 21 23 26 29 22 13 23 23 10 16 18 18 20 22 27 29 32 34 35 39 38 38 39 41
3 12 11 10 11 12 12 8 11 14 17 17 17 16 16 18 19 19 20 21 21 22 25 22 23 25 24 23 14 11 3 4 6 10 12 15 19 19 22 29 32 33 35 38 39 38 39 40 41
6 7 12 9 11 11 11 11 13 14 18 20 17 16 15 20 17 19 20 20 22 24 27 27 26 20 15 11 9 6 5 7 9 11 14 15 19 22 27 28 31 33 33 37 37 37 39 40 42
8 7 11 11 13 12 11 15 15 15 15 18 18 17 18 19 21 18 17 20 21 20 18 15 12 10 6 4 7 13 14 11 12 15 20 21 25 29 32 33 33 37 39 39 42 42 43 42 43
7 6 3 6 15 21 18 17 17 20 17 16 21 22 18 18 18 19 19 18 16 14 13 11 10 10 10 12 16 11 10 8 15 20 24 29 30 35 36 37 39 40 41 42 43 42 42 43 42
10 4 5 9 15 13 16 12 27 19 17 15 18 18 18 20 19 18 17 16 16 12 9 9 13 16 20 20 13 12 15 17 22 24 28 34 37 42 42 42 42 42 42 42 41 41 41 39 39
4 2 4 8 14 11 16 15 9 17 12 14 15 18 18 18 18 17 17 16 11 10 11 16 19 16 12 14 16 18 22 24 24 27 31 37 38 39 42 43 44 44 43 40 38 38 36 38 32
6 7 12 7 8 10 3 6 21 4 4 11 14 16 17 18 18 18 15 12 12 13 14 15 15 14 14 17 19 21 24 27 31 33 33 36 37 38 40 42 42 41 41 40 39 32 31 34 32
9 11 8 5 8 7 4 9 7 8 7 8 13 15 17 18 18 17 15 14 14 14 14 14 16 18 20 21 24 27 29 30 34 38 36 35 36 38 41 43 44 43 41 40 38 32 31 35 36
7 9 6 6 7 9 15 7 6 10 8 7 12 17 18 18 18 18 18 16 15 16 16 17 20 22 23 24 28 32 33 38 37 36 33 35 38 41 43 43 43 42 41 40 37 37 29 35 37
10 5 5 8 3 7 11 9 5 8 9 9 15 17 18 19 19 19 19 18 17 18 19 20 23 27 26 31 32 34 41 35 33 33 34 37 40 42 43 43 42 41 39 38 36 33 28 32 34
8 12 10 7 7 4 4 3 7 4 8 10 14 16 19 20 20 19 19 22 21 22 23 23 27 30 32 34 38 36 39 35 34 35 36 39 41 42 42 42 41 40 39 39 34 30 30 36 36
10 11 12 11 9 10 7 8 5 4 8 8 11 16 18 19 20 21 26 26 26 28 29 29 31 32 40 44 33 40 37 34 34 37 38 40 41 41 41 41 41 40 39 37 35 31 30 28 28

GFSSGP_700_spd_054.txt.gz
Wind_Speed
11 8 6 5 8 12 21 24 22 16 9 6 4 5 13 11 10 9 13 17 11 16 24 22 22 21 20 18 15 12 8 6 2 2 2 3 6 7 7 7 8 8 8 8 9 10 10 11 11
10 8 5 4 14 21 23 12 3 11 15 18 11 4 9 14 20 18 20 18 14 24 27 24 22 21 20 18 14 11 8 5 1 2 2 4 6 6 7 8 8 8 8 8 9 10 11 11 11
7 7 7 10 17 27 25 9 3 7 5 17 7 15 15 19 19 16 16 17 19 28 26 24 21 19 19 17 13 10 7 3 2 1 4 5 6 7 8 8 8 7 7 7 9 9 10 11 12
5 1 10 13 21 22 22 8 13 12 8 8 6 11 13 14 15 14 17 15 27 29 28 25 21 21 19 16 12 9 6 4 2 5 6 6 7 7 7 7 6 6 6 6 7 8 10 12 13
5 8 16 17 17 21 12 6 9 10 9 10 5 7 9 11 6 8 18 27 23 29 32 27 20 19 18 14 11 8 6 4 6 7 7 7 7 6 6 5 4 4 4 4 5 7 10 13 14
11 9 16 21 20 19 8 13 17 16 11 8 4 4 1 6 15 19 16 22 25 27 30 24 21 19 16 14 11 8 4 4 7 8 9 8 7 5 4 2 3 4 4 5 6 8 11 13 15
12 15 19 20 19 12 6 6 9 19 5 5 6 4 2 2 6 18 29 22 22 24 30 20 20 17 15 13 9 4 4 6 6 8 9 8 7 5 2 2 4 6 7 6 8 10 12 14 15
12 14 21 24 25 9 9 20 13 5 8 5 5 13 2 9 7 11 21 27 22 25 26 16 17 16 15 11 6 4 5 6 7 8 8 7 6 4 3 5 7 9 10 11 11 12 14 16 17
12 17 21 21 12 11 13 13 12 25 4 3 2 7 10 6 8 12 17 20 19 23 22 20 19 19 14 7 4 4 6 8 9 9 9 8 7 6 4 6 9 11 12 13 14 16 17 18 20
14 17 17 17 21 19 22 27 12 6 13 3 11 4 7 4 7 15 16 23 20 17 20 20 15 12 9 6 3 6 8 9 10 11 11 10 8 9 8 9 11 12 14 16 17 18 21 23 23
14 18 15 6 3 5 12 7 13 6 3 9 2 1 3 4 10 12 29 21 14 19 16 16 14 10 8 5 5 8 9 11 12 12 11 9 8 8 11 12 12 17 18 20 26 24 24 25 26
14 12 12 2 10 8 5 10 7 10 3 3 10 6 1 8 11 15 18 19 17 12 12 11 10 8 7 8 9 10 11 13 14 14 14 11 9 10 14 15 22 26 24 25 26 25 27 30 33
13 6 9 9 10 13 12 6 2 8 8 12 7 2 14 10 14 8 25 15 12 11 10 9 9 10 10 11 10 14 15 15 18 16 17 13 11 13 16 17 16 20 25 23 24 28 30 34 35
9 13 1 2 5 3 9 3 9 12 12 8 14 13 12 13 10 14 6 9 10 10 8 8 7 7 9 8 10 13 15 19 19 17 17 15 13 19 22 21 19 21 22 25 28 33 33 35 35
4 3 6 5 4 3 12 10 13 11 12 18 14 14 12 13 12 13 12 11 8 6 5 6 6 6 7 8 11 13 14 16 17 20 18 22 20 24 26 23 23 23 25 28 31 33 34 36 37
6 4 5 8 7 8 3 7 13 14 15 15 15 13 13 15 14 16 12 8 8 9 9 8 7 8 10 12 11 11 18 25 19 29 27 20 34 29 24 26 23 26 29 30 31 34 35 37 39
6 8 12 10 11 8 3 7 11 13 15 15 14 15 15 15 9 11 13 11 12 12 11 12 11 12 13 19 18 20 22 17 15 24 35 31 30 27 25 28 23 26 28 31 35 36 37 39 40
15 16 14 12 11 12 10 7 14 13 13 15 17 17 15 16 15 16 16 15 13 17 17 15 15 15 20 21 23 23 16 13 11 12 25 33 26 22 27 26 24 24 30 34 35 37 38 40 41
7 7 16 12 12 9 11 15 14 16 15 21 15 14 16 18 19 12 17 19 17 20 24 19 19 20 22 23 22 15 12 8 6 4 10 17 19 21 23 24 27 30 34 38 40 40 40 39 41
12 2 10 10 9 13 14 13 13 15 17 14 15 18 18 16 20 17 19 19 21 26 27 21 25 25 23 17 12 9 8 11 12 12 16 19 19 21 26 26 31 35 36 37 40 39 41 40 40
6 6 8 7 11 13 10 16 17 18 19 19 23 21 21 21 21 19 21 22 24 26 26 25 23 17 15 13 11 14 16 13 14 15 17 17 21 23 27 29 33 36 38 38 40 41 42 42 40
8 1 8 9 17 12 12 4 11 13 15 19 19 19 20 23 18 20 24 22 23 22 19 18 14 13 11 12 14 16 12 14 17 20 16 25 23 27 30 32 36 36 37 39 41 41 42 40 41
4 6 7 11 11 9 14 12 28 24 24 25 24 24 25 21 25 27 23 20 17 15 14 11 11 12 12 15 17 10 11 15 19 23 27 29 30 34 36 38 38 40 41 42 43 44 43 41 42
3 4 10 11 16 9 18 22 7 21 21 20 21 24 22 25 26 24 19 17 15 11 11 11 13 17 15 13 13 15 17 21 24 24 26 29 35 36 37 36 39 40 40 40 40 41 40 37 35
7 10 8 10 9 6 9 20 12 14 10 24 25 17 24 23 23 19 19 17 14 13 13 15 17 17 16 17 17 18 21 22 25 29 30 36 35 33 33 35 37 38 39 39 39 38 41 37 35
9 13 4 2 5 5 9 7 11 11 7 12 15 17 19 19 21 19 19 18 15 16 16 16 18 19 19 19 21 22 25 28 27 29 37 32 33 33 34 36 37 39 39 39 38 38 40 42 31
7 5 2 9 9 5 8 16 8 9 7 7 14 17 18 21 20 21 21 19 21 19 17 16 20 24 24 23 24 27 29 31 35 35 37 37 33 33 35 38 40 40 40 40 39 39 39 39 33
9 8 5 4 2 5 13 20 11 13 8 9 14 16 18 20 19 21 23 22 23 23 22 17 20 26 27 26 30 33 36 35 35 37 37 36 35 35 38 40 40 40 40 40 39 38 38 34 32
9 11 13 13 10 2 3 6 7 8 7 6 14 16 20 19 19 20 22 23 25 25 27 22 23 29 30 31 31 33 39 39 35 37 37 36 36 37 40 41 40 40 40 40 39 37 36 34 33
9 9 11 12 10 7 11 14 5 4 8 6 10 17 19 19 21 21 23 25 27 31 30 27 27 32 34 29 31 34 40 39 38 38 36 36 38 40 40 41 41 41 39 39 36 36 34 33 32

GFSSGP_700_spd_057.txt.gz
Wind_Speed
7 6 7 6 9 9 13 14 13 24 9 10 13 13 9 5 9 8 7 5 19 16 22 23 23 24 24 22 19 15 13 9 5 3 5 7 8 8 9 10 10 10 9 9 9 10 11 11 10
5 7 10 8 11 14 17 15 15 16 12 12 9 8 7 10 10 10 12 14 17 16 24 25 26 24 23 21 18 14 11 8 4 3 7 8 8 9 10 10 10 9 9 8 8 9 9 10 11
3 7 12 4 11 19 17 12 14 16 15 14 13 13 10 6 17 26 20 20 14 16 28 30 28 25 22 19 16 13 10 7 4 5 9 9 9 10 10 10 9 8 7 7 6 7 9 10 11
5 6 8 14 18 13 19 28 17 12 6 13 10 12 10 12 17 20 16 17 18 20 32 30 28 25 22 19 15 12 9 6 4 8 9 9 10 10 9 9 7 6 5 4 5 7 8 10 13
8 7 10 12 19 22 23 15 15 13 1 2 4 10 7 9 15 14 16 18 19 32 33 33 28 28 23 18 15 12 8 5 6 10 10 10 10 9 9 7 6 4 3 4 4 7 9 10 11
7 4 11 20 16 7 1 10 8 7 4 2 10 11 8 8 12 14 17 19 23 33 33 30 31 23 22 18 14 10 6 5 7 9 9 9 9 8 7 5 3 3 3 3 5 7 8 10 11
5 11 20 26 30 15 13 9 10 1 7 6 7 4 3 3 10 11 16 21 26 23 25 27 25 18 17 16 12 8 5 6 9 10 9 10 9 8 6 2 2 4 5 5 7 8 10 11 13
6 10 19 20 25 13 11 11 9 6 11 10 4 7 8 4 6 12 17 22 24 22 27 22 20 17 15 13 10 7 5 9 9 10 10 10 10 7 5 2 4 7 8 9 10 11 13 14 15
8 19 27 23 23 11 9 16 15 12 7 7 11 7 8 6 5 8 17 22 20 25 30 24 20 16 19 14 8 4 5 8 8 9 9 10 8 7 5 5 7 10 12 14 12 13 15 15 16
6 12 18 13 18 14 18 16 12 12 15 17 18 5 10 5 10 10 9 17 23 26 25 23 21 20 11 7 4 2 3 6 8 9 9 11 10 9 7 8 10 12 13 15 13 17 20 17 19
7 17 14 18 7 12 15 18 4 5 4 1 7 11 9 12 18 16 13 22 22 17 22 19 13 9 6 5 2 3 3 6 8 10 12 11 12 12 10 10 14 14 19 23 23 28 24 25 27
13 15 15 6 6 5 9 1 6 5 6 3 7 8 9 16 17 15 16 12 19 19 16 15 15 10 9 5 7 8 7 9 13 12 11 11 11 10 11 16 16 17 15 19 23 22 24 26 29
17 12 3 6 9 5 4 3 4 8 7 5 12 9 12 14 20 20 23 18 17 16 18 13 8 8 9 10 8 7 6 9 10 11 13 13 13 13 16 18 16 15 19 22 21 21 25 28 29
9 7 1 3 2 5 3 11 7 0 11 11 11 13 13 14 27 17 21 18 17 15 11 9 9 8 3 5 10 12 10 9 10 12 14 17 18 19 19 19 21 21 20 21 21 22 27 30 32
4 1 3 3 3 1 1 4 10 7 9 14 15 14 11 6 5 10 18 13 10 10 9 6 3 4 7 9 7 6 8 11 10 14 18 21 24 23 23 24 22 21 20 21 23 25 30 32 33
3 4 4 3 11 11 2 2 7 7 18 13 12 9 9 6 3 5 7 7 10 8 6 5 3 3 2 4 6 8 12 15 16 22 25 28 28 24 23 24 27 25 25 26 25 27 30 32 36
4 10 9 6 17 4 8 5 9 10 14 15 12 16 15 13 11 8 6 4 4 6 5 1 3 6 5 7 10 13 15 17 17 17 20 24 30 31 36 28 29 28 29 30 29 31 34 37 38
5 5 9 12 17 9 12 9 14 13 11 12 9 16 17 15 12 11 11 6 4 3 4 4 7 12 12 14 16 18 19 13 13 13 12 14 24 28 32 33 27 29 32 33 34 34 37 40 41
14 16 12 16 15 12 14 14 17 14 14 15 12 12 12 13 13 14 15 14 11 8 9 11 12 14 15 18 20 19 14 11 8 10 11 11 15 24 26 26 28 29 31 33 33 39 39 37 39
16 17 30 21 16 12 18 17 17 19 19 14 12 16 14 11 10 11 14 21 19 14 15 17 18 15 21 23 20 15 12 11 15 11 11 13 15 19 24 26 27 28 28 31 36 37 37 38 38
9 12 3 6 9 11 12 17 19 20 16 13 13 16 20 18 14 15 17 20 21 20 20 19 20 21 23 20 14 14 15 19 17 13 14 16 21 21 23 24 28 30 32 34 34 36 37 37 36
3 14 11 4 4 7 6 4 2 18 18 15 17 17 22 23 24 20 21 23 23 20 20 21 24 23 18 13 17 18 19 19 16 17 16 19 17 25 26 29 33 33 34 36 37 38 39 39 39
8 8 3 3 14 14 8 3 10 22 20 21 24 26 26 24 24 26 26 22 25 24 22 21 17 15 14 20 19 18 18 20 20 21 22 25 27 29 32 35 33 34 35 36 38 39 40 40 40
3 9 9 6 6 11 25 13 9 21 25 23 23 23 24 27 27 25 25 24 20 19 17 16 17 17 17 16 16 16 19 19 21 22 23 25 27 34 39 36 39 39 38 39 39 39 40 40 40
10 8 2 5 7 5 10 11 24 16 19 21 26 29 31 29 30 31 31 29 20 18 18 18 16 14 14 16 18 18 20 21 23 26 27 31 30 35 36 35 34 35 36 37 38 38 38 40 42
12 8 3 4 2 6 2 9 1 15 19 17 19 27 25 30 35 34 28 22 16 15 15 16 17 16 16 16 18 19 21 24 26 28 37 38 35 34 36 33 33 33 36 37 38 37 38 40 41
14 4 10 8 11 4 4 3 6 14 15 16 23 25 28 23 25 24 22 20 14 17 17 18 20 21 20 17 17 19 22 26 30 34 41 44 33 32 33 33 32 35 37 38 38 39 39 40 38
9 7 6 6 1 3 4 5 10 18 16 10 18 16 14 18 20 20 21 21 19 19 19 22 25 26 24 21 21 23 29 31 31 34 40 39 34 34 32 32 34 37 38 39 39 38 38 38 37
14 14 12 12 9 5 1 3 3 8 8 5 9 8 9 12 15 18 20 23 24 23 21 22 25 27 28 28 29 28 30 32 40 39 39 35 35 35 34 35 37 38 40 38 38 37 36 36 36
11 8 8 12 9 5 2 10 7 5 9 9 7 9 11 12 12 16 19 24 25 26 25 28 29 29 30 31 34 33 35 38 37 40 35 35 37 37 35 37 38 40 40 36 36 37 35 34 35

GFSSGP_700_spd_060.txt.gz
Wind_Speed
9 9 10 10 7 6 8 9 6 11 10 11 9 8 9 10 8 7 10 12 15 21 25 24 23 27 26 25 22 19 15 11 8 8 9 9 9 10 11 12 11 10 8 7 7 7 7 8 8
7 8 11 10 7 7 13 12 10 8 10 24 20 10 7 6 12 11 13 15 18 20 25 26 27 29 28 26 21 17 14 11 7 7 9 10 9 9 11 11 10 9 7 6 6 7 8 9 9
8 10 10 5 9 15 9 9 10 15 12 15 15 12 10 10 16 20 14 15 21 25 26 27 32 30 28 23 18 14 12 9 6 6 10 9 9 10 10 10 9 7 6 5 5 6 7 9 10
9 10 8 9 11 10 21 24 23 13 11 7 10 16 14 12 18 16 16 12 18 24 30 36 32 33 30 23 19 15 11 8 5 8 10 10 10 10 9 8 7 5 3 2 4 5 7 8 10
10 8 7 8 4 14 18 10 13 8 7 8 8 12 10 10 20 15 15 18 22 27 35 35 35 31 27 24 21 15 11 7 4 9 11 10 10 9 8 7 5 3 2 3 3 5 7 8 9
10 9 10 2 8 14 16 10 5 5 3 2 8 9 10 8 11 13 17 18 24 33 36 34 32 29 25 23 17 13 10 5 6 11 10 10 10 8 7 5 3 2 2 3 4 6 8 8 8
11 8 11 8 11 19 19 16 13 11 17 12 5 4 7 9 11 13 15 17 19 27 32 36 31 31 31 20 13 10 5 5 11 12 11 10 9 8 6 3 0 3 4 5 6 8 9 9 11
6 8 9 11 14 16 10 10 8 13 6 5 3 6 4 7 9 12 15 17 20 37 34 29 28 28 19 14 12 8 7 9 11 11 9 10 9 8 7 5 5 5 6 7 8 8 10 12 13
7 13 13 13 10 9 11 14 13 17 19 19 19 14 11 6 7 11 14 22 21 20 29 29 26 24 16 14 12 8 4 6 8 10 11 10 11 10 10 9 9 9 10 8 8 8 12 16 14
9 9 8 12 11 15 10 15 20 15 16 16 18 18 13 10 7 13 12 17 21 23 24 25 28 26 20 13 9 4 4 9 11 10 11 11 11 10 12 12 12 14 13 13 12 12 17 16 16
6 13 13 19 14 9 11 16 6 5 6 5 10 19 16 14 14 11 12 16 22 23 25 31 26 17 13 9 4 2 5 7 9 9 10 10 12 14 15 14 16 14 14 16 14 20 21 23 22
15 19 10 9 9 9 11 9 2 3 5 5 9 6 13 11 14 13 20 14 24 23 20 19 15 14 8 4 3 5 6 4 6 6 7 9 12 15 16 16 16 15 17 17 21 22 23 22 23
17 5 5 5 5 6 7 7 7 4 5 11 8 15 11 14 16 17 25 25 25 25 17 15 14 11 7 2 2 1 2 4 3 6 8 11 14 16 16 16 18 16 19 22 22 22 22 22 25
9 8 5 2 2 4 1 2 4 2 6 12 14 13 13 19 11 22 24 22 21 20 21 18 14 7 3 9 9 6 5 4 3 5 9 13 14 16 18 18 18 18 21 22 20 20 21 22 24
5 1 5 6 6 4 5 3 2 6 12 18 17 15 10 8 6 14 23 22 19 16 12 10 5 10 11 8 6 6 5 8 7 8 12 14 18 20 22 21 21 22 22 21 21 21 21 25 28
4 4 6 3 5 5 2 2 4 8 9 16 14 15 7 9 8 15 21 21 20 14 11 8 9 10 4 3 4 5 8 9 11 10 15 18 22 25 27 27 26 27 28 24 19 22 27 30 32
2 6 3 2 5 7 4 6 5 10 10 13 12 11 8 7 8 10 11 11 11 9 9 7 6 2 4 3 6 8 10 12 11 12 15 18 22 27 28 29 33 32 29 28 28 30 32 33 34
6 12 9 11 12 11 8 8 10 8 12 11 13 13 6 3 7 14 15 14 13 11 10 7 4 5 7 9 10 11 13 14 12 13 14 16 17 19 21 24 25 28 30 31 33 33 33 33 38
15 16 23 12 16 15 15 10 17 13 14 12 13 13 8 6 4 7 10 9 9 8 7 7 6 9 10 11 13 15 17 13 12 11 16 17 16 18 18 22 25 27 31 33 33 33 33 36 40
14 19 21 21 18 17 20 14 20 16 17 15 8 11 11 13 14 12 11 8 5 5 6 6 8 11 12 14 16 17 15 13 13 16 16 14 15 17 19 20 24 28 29 31 34 35 38 39 40
21 21 17 9 4 13 14 17 24 21 21 18 14 12 13 15 19 18 18 15 14 15 14 14 14 13 15 18 20 16 14 14 16 14 14 14 15 18 21 24 29 30 31 32 33 37 40 40 39
16 9 14 9 6 9 2 9 20 25 25 22 18 20 18 18 19 19 16 18 20 20 20 20 18 17 20 21 16 14 15 15 14 15 14 16 17 22 21 25 27 26 26 32 35 37 39 40 39
8 10 2 4 4 4 6 2 14 20 26 24 25 24 24 23 20 19 18 18 20 23 23 23 21 23 23 17 14 15 15 15 15 16 17 19 24 25 29 31 30 30 35 36 36 38 38 40 40
13 8 7 9 2 2 11 6 20 20 27 28 27 25 26 24 23 22 22 23 26 18 18 24 27 24 17 14 15 17 17 16 18 20 21 25 29 24 35 39 31 35 36 37 38 38 40 41 41
7 8 3 3 3 5 5 8 18 14 15 26 28 26 24 25 24 26 29 25 19 21 22 20 19 16 14 15 16 16 17 18 20 22 27 23 29 38 43 48 37 34 35 36 38 40 40 41 42
13 7 4 3 3 5 4 7 9 10 12 14 16 18 27 26 26 29 30 24 27 25 22 18 17 17 16 16 15 17 20 22 25 27 32 29 29 40 41 42 35 33 34 37 40 40 39 41 42
7 8 6 3 7 4 4 7 12 13 15 14 19 28 24 26 27 28 29 28 28 24 20 19 20 19 17 17 17 20 23 25 28 28 31 42 38 37 47 39 36 33 36 39 39 39 40 41 42
11 7 2 4 2 3 4 7 8 13 17 17 18 24 23 26 27 26 24 24 19 19 18 19 20 20 22 22 23 23 24 28 26 39 38 36 45 42 39 36 36 36 39 39 38 39 41 42 42
17 12 12 10 10 4 1 4 3 1 10 3 6 4 3 10 15 14 14 14 15 17 18 21 21 23 23 22 22 24 31 35 35 32 31 41 45 45 38 37 37 37 40 36 37 40 42 41 40
16 17 21 15 7 6 4 6 6 8 12 11 9 8 4 5 8 9 10 12 16 18 21 21 21 25 24 26 30 31 35 41 33 38 45 40 44 47 42 42 38 40 38 34 39 41 41 39 38

GFSSGP_700_spd_063.txt.gz
Wind_Speed
12 11 13 9 7 6 6 4 2 11 13 9 13 10 10 20 15 8 7 14 11 18 24 27 28 28 29 29 25 22 17 13 8 4 5 6 8 9 10 10 9 8 7 6 6 7 8 10 10
10 10 10 7 4 7 7 6 8 6 7 16 13 6 11 15 13 13 10 12 12 20 26 29 31 30 29 27 22 20 15 11 7 5 7 8 8 8 9 9 8 7 7 7 6 7 9 10 11
8 8 8 3 9 9 5 6 14 12 11 10 12 15 10 15 14 7 9 12 14 20 25 30 31 31 30 26 26 19 14 9 6 5 8 8 9 9 8 7 6 6 5 5 5 7 9 12 12
6 9 6 12 10 8 12 18 15 11 6 9 11 9 15 16 13 7 9 17 16 21 30 32 32 33 31 29 25 20 16 12 5 7 10 9 9 9 7 6 5 4 3 4 5 8 11 13 14
6 6 10 8 3 5 11 14 10 4 6 4 6 9 13 13 12 13 14 16 14 23 31 33 34 32 32 30 24 20 17 9 6 10 10 9 9 8 7 5 3 2 1 2 3 7 11 13 15
9 9 7 7 4 9 15 9 7 3 4 6 10 10 12 12 10 11 12 16 20 27 35 38 39 36 31 28 22 21 11 6 6 12 12 10 10 9 7 6 4 3 2 2 4 6 7 12 13
10 10 10 8 7 10 10 6 6 8 10 13 18 18 12 9 8 9 12 19 25 33 37 37 36 30 23 28 25 12 9 6 9 13 11 12 12 11 10 7 6 5 5 5 6 7 8 8 15
10 9 8 7 9 8 9 6 9 11 10 8 12 6 11 10 10 14 14 16 18 18 36 37 33 31 30 25 15 14 7 7 11 11 13 13 13 11 9 9 8 9 9 8 8 8 9 11 17
10 9 8 9 6 7 12 7 9 12 12 14 16 15 15 13 11 9 12 15 13 25 32 35 36 32 32 19 15 11 9 11 13 15 14 14 13 12 11 11 12 11 11 10 7 7 9 12 12
8 10 7 7 7 12 8 10 12 12 16 19 22 23 15 11 10 9 14 13 15 23 31 32 32 40 24 18 14 6 5 11 14 13 13 12 11 12 12 13 11 12 10 9 11 9 13 14 17
9 13 8 16 9 6 9 10 9 6 9 10 11 14 16 11 13 10 10 15 21 24 19 24 20 30 28 20 12 7 5 5 8 10 11 10 11 12 13 13 14 15 14 13 11 16 17 19 17
13 7 14 4 5 4 6 8 4 3 4 7 7 10 12 9 10 12 10 12 16 23 33 34 28 22 19 15 9 5 5 4 6 7 8 10 11 13 14 16 16 16 15 15 18 19 20 20 21
5 7 6 5 3 2 4 7 7 5 5 10 9 14 12 10 8 8 13 21 25 25 22 21 19 15 10 8 6 2 5 2 4 4 5 9 11 13 15 16 17 18 16 17 20 22 22 22 23
9 7 6 5 2 7 4 6 7 6 6 5 7 8 9 9 11 13 24 29 23 19 17 15 14 11 4 4 7 7 7 5 3 3 5 6 10 13 15 16 18 18 18 16 19 23 22 24 23
8 5 5 5 4 6 1 3 5 3 15 10 10 24 22 13 8 14 28 24 24 24 19 17 14 13 13 12 11 9 4 3 3 3 6 9 12 15 18 19 21 21 20 22 25 23 23 24 26
4 3 1 3 4 5 4 3 1 3 5 12 15 13 12 17 18 23 22 20 18 18 13 11 16 16 14 11 8 4 1 3 5 6 8 12 15 18 20 22 25 24 25 25 27 25 24 29 31
7 6 1 2 5 6 6 6 3 6 7 7 8 12 12 15 18 17 16 14 14 15 19 19 17 10 7 7 4 2 3 5 6 8 10 13 16 19 21 23 22 22 23 23 23 27 30 32 33
1 6 10 11 9 12 12 6 7 5 7 7 4 9 7 10 13 16 18 17 15 15 15 15 12 7 5 6 5 5 7 9 10 11 12 13 16 18 19 21 21 21 21 24 27 30 32 34 36
8 11 17 7 7 13 14 16 13 9 10 10 7 5 7 8 6 12 15 15 16 14 12 10 8 5 6 6 7 8 10 12 12 12 12 14 18 18 18 20 22 23 25 29 31 33 34 36 37
16 17 18 13 6 12 12 14 18 15 10 10 5 4 8 10 12 12 12 11 11 9 8 8 8 7 7 10 11 11 14 14 13 13 13 18 16 16 19 19 22 26 28 31 33 33 35 36 40
16 17 14 13 14 9 9 11 17 20 17 15 15 12 10 9 7 8 8 5 7 7 7 9 10 10 12 13 13 13 15 13 12 14 17 14 15 17 21 23 24 25 28 31 30 31 36 38 40
17 7 10 12 11 5 9 4 19 25 23 21 19 17 14 13 12 12 7 6 7 9 12 13 17 16 16 16 15 16 14 13 14 16 14 13 16 18 22 23 24 26 30 33 34 36 36 39 39
12 11 9 6 5 7 8 6 7 27 29 26 25 23 22 16 17 15 12 9 9 9 9 14 17 19 19 20 18 14 13 14 14 13 15 15 19 24 24 28 24 34 38 38 35 38 38 39 39
4 10 7 7 3 1 2 3 5 16 22 26 27 28 28 21 19 19 16 15 14 15 12 14 17 19 22 21 18 13 13 13 13 15 18 20 27 28 22 25 37 33 35 43 40 38 40 40 41
6 3 3 2 3 4 3 4 12 14 14 18 24 29 31 28 23 19 17 16 19 14 13 15 17 21 23 20 16 14 13 13 14 17 23 27 30 35 27 44 34 37 43 40 40 40 41 40 42
7 6 3 3 3 3 3 5 7 12 14 12 9 14 24 25 25 22 20 23 22 15 16 19 24 21 18 17 17 16 16 16 18 25 27 33 30 24 32 37 44 43 43 39 41 41 40 40 42
8 9 9 2 3 1 5 11 15 13 12 10 12 13 16 15 16 20 19 21 19 19 23 28 21 16 16 17 19 20 21 21 25 29 31 37 32 34 31 42 39 47 41 44 43 42 42 45 42
10 10 6 6 3 3 5 6 10 11 11 11 12 13 14 17 19 19 18 18 20 23 28 23 17 15 18 21 22 20 21 29 32 31 36 40 44 34 40 45 43 43 50 44 44 45 41 39 41
19 19 14 9 5 4 1 6 8 8 5 6 6 7 7 9 10 14 16 17 19 19 19 18 18 16 17 16 18 19 26 27 29 38 39 42 42 41 45 51 46 53 47 44 39 34 35 39 43
24 24 18 12 7 7 6 13 10 12 17 11 11 7 7 7 6 7 10 11 11 11 12 15 17 16 16 18 22 28 28 31 35 44 38 45 41 47 45 47 47 47 40 31 31 35 40 42 44

GFSSGP_700_spd_069.txt.gz
Wind_Speed
10 12 11 10 6 5 7 4 8 6 15 11 9 8 5 5 9 6 3 6 10 16 23 27 26 26 24 22 20 19 16 14 11 6 7 7 7 9 11 10 10 10 8 9 10 11 12 12 13
9 11 9 9 7 10 6 3 1 2 11 13 12 16 17 14 16 15 11 10 10 18 24 28 29 27 24 22 21 19 16 13 10 8 10 12 12 13 12 11 9 8 7 8 10 10 11 13 14
10 10 8 5 8 6 3 3 9 12 5 11 16 11 14 11 11 14 10 7 10 20 25 29 30 29 27 24 22 21 17 14 8 10 13 14 12 12 12 9 8 7 7 8 9 10 12 13 14
9 9 7 8 5 3 2 6 6 4 6 8 11 14 13 12 7 10 9 12 17 20 24 28 29 30 28 25 24 23 19 14 11 13 15 15 13 12 11 9 7 5 6 7 7 9 11 11 11
9 8 7 4 4 3 5 2 3 1 5 6 6 7 7 9 8 9 11 15 17 20 25 30 31 30 29 26 25 23 19 16 15 16 16 16 14 13 11 9 6 5 5 5 8 9 10 10 12
7 5 3 3 3 7 6 2 3 1 2 5 7 6 8 7 7 8 14 15 18 23 28 32 33 30 31 30 30 29 25 21 17 15 17 17 15 13 10 6 5 4 5 6 8 9 9 12 13
7 5 4 2 4 7 8 4 5 1 3 7 9 9 10 10 9 10 15 17 20 24 30 35 35 34 37 38 37 31 25 24 18 16 18 17 15 12 7 5 2 2 4 5 6 7 9 9 11
5 4 4 2 5 6 9 7 5 7 8 9 8 5 5 4 3 7 9 14 19 25 28 35 41 43 41 39 39 30 27 26 24 20 19 17 14 10 7 3 1 3 3 5 7 7 8 10 11
2 4 3 2 2 8 8 7 8 11 13 12 11 11 10 9 10 9 10 13 20 27 25 35 38 39 41 43 40 39 27 20 19 20 17 15 13 10 8 4 3 4 4 6 6 8 10 10 13
2 4 2 3 8 7 7 9 11 13 13 14 13 13 14 18 19 15 12 17 20 23 24 24 30 26 27 24 31 34 25 17 19 18 15 13 10 10 6 5 5 6 7 7 9 11 11 13 14
3 3 5 6 8 5 4 7 10 10 10 11 12 13 15 11 9 11 14 12 15 19 23 24 29 35 24 25 33 24 17 19 20 18 14 13 10 9 7 8 8 6 8 10 11 13 13 14 16
6 6 9 5 4 5 6 8 6 7 11 10 10 8 6 10 12 12 12 12 10 30 33 39 37 25 32 23 25 23 18 18 16 14 12 11 10 10 10 10 9 9 10 12 14 15 16 16 18
7 8 5 2 2 5 5 5 5 11 17 15 15 12 8 10 12 11 8 6 29 17 19 17 14 26 38 38 36 19 14 14 13 11 11 12 11 10 9 10 9 11 12 13 15 16 17 19 19
3 4 3 2 1 4 4 5 5 9 18 6 8 10 9 9 8 9 11 10 14 18 16 18 15 40 30 23 21 17 15 15 15 14 12 10 9 9 8 9 12 14 13 14 16 15 17 18 17
6 4 2 2 1 2 4 6 5 7 14 14 7 11 10 8 9 8 13 23 35 40 41 37 34 29 24 20 18 16 16 15 13 12 11 10 8 7 7 10 11 10 13 16 12 14 16 16 20
4 3 1 3 3 3 6 9 6 7 9 12 14 18 14 13 14 13 31 22 22 22 23 24 22 19 19 21 19 17 16 14 13 12 11 10 9 9 10 12 13 12 13 11 12 15 16 19 23
4 3 3 0 5 3 7 9 9 6 4 6 8 14 21 19 28 27 17 15 14 14 18 20 20 20 20 20 20 17 13 11 11 9 9 9 7 9 10 12 12 11 11 13 14 16 19 22 26
10 8 4 6 5 7 8 8 8 7 4 0 3 9 17 22 21 17 17 18 17 21 21 19 18 20 20 19 16 14 10 9 8 8 7 8 9 10 11 12 12 12 13 14 17 21 24 26 27
9 6 8 8 11 7 8 11 7 8 6 3 5 5 12 16 15 17 18 18 20 21 21 19 18 17 15 14 11 9 7 7 6 7 11 9 10 12 13 14 14 15 16 19 22 24 25 28 30
9 11 12 15 2 9 7 6 7 10 6 4 2 9 12 14 16 17 20 21 19 18 18 17 16 14 13 12 11 10 9 7 8 9 9 9 12 14 15 15 16 16 19 24 27 27 25 31 28
8 5 7 10 4 7 7 8 11 11 12 10 10 10 13 10 11 14 15 17 18 16 15 13 13 13 12 11 13 13 9 10 8 10 11 12 15 16 16 16 16 17 21 23 24 27 29 36 31
12 4 6 9 3 1 2 3 7 12 14 16 14 15 14 16 17 16 15 14 13 14 15 16 18 17 15 15 13 13 12 12 14 14 14 13 15 15 16 16 16 19 24 31 29 26 30 32 32
9 6 7 6 3 3 4 4 6 9 13 13 16 18 17 16 17 18 15 15 14 15 16 16 17 19 19 18 15 15 15 14 17 18 15 13 15 16 18 19 21 30 31 30 29 33 40 33 37
6 6 5 3 2 2 4 8 5 8 10 7 9 16 21 20 19 17 18 19 17 18 17 17 19 20 20 21 17 16 17 17 18 17 16 15 17 17 20 23 29 31 32 33 34 31 44 45 37
7 6 1 1 2 2 5 4 10 10 8 8 8 9 16 22 23 21 21 20 20 19 18 18 16 15 15 16 18 16 18 20 19 19 18 17 19 22 24 26 29 36 35 35 33 42 41 42 41
10 9 5 3 3 2 4 6 6 10 12 10 11 13 12 18 22 22 21 21 17 16 17 15 11 13 14 13 15 18 20 20 20 21 20 21 23 24 27 31 31 35 36 37 33 42 37 40 38
11 11 7 5 3 1 5 8 11 6 9 14 9 7 4 6 11 17 17 17 18 21 14 15 15 15 16 16 16 19 21 21 21 20 20 24 21 23 25 26 34 44 34 43 44 40 42 42 42
11 6 4 4 3 3 3 5 8 5 7 8 7 3 3 5 9 13 14 16 14 13 17 18 16 15 17 19 19 19 22 21 21 20 18 19 20 26 25 24 34 30 38 44 41 42 42 42 37
17 13 9 5 4 2 2 5 6 8 9 10 11 11 6 1 3 8 13 14 15 17 18 17 16 15 18 17 18 20 22 22 17 20 18 22 26 34 34 26 31 42 36 40 43 42 42 38 33
18 16 12 8 5 9 9 16 16 3 5 14 12 11 9 4 6 8 9 10 15 19 20 19 17 15 11 10 9 11 15 19 21 21 23 17 27 28 28 32 35 33 37 41 42 41 37 33 34

GFSSGP_700_spd_072.txt.gz
Wind_Speed
8 9 9 8 5 8 15 9 9 7 12 24 14 9 9 11 9 6 5 8 10 15 20 24 23 23 22 20 19 18 16 14 11 9 8 7 6 8 13 15 14 12 11 11 10 11 12 14 16
7 9 8 6 9 15 15 7 6 5 10 18 18 13 11 14 14 10 11 8 10 15 21 26 26 25 23 21 19 19 18 17 15 12 9 8 9 13 16 16 14 12 10 9 9 11 12 13 15
8 9 4 6 11 15 9 4 7 9 11 15 26 20 15 19 20 12 9 12 11 12 22 25 27 27 25 24 22 21 21 19 17 13 10 12 14 14 16 15 13 11 9 8 9 10 11 12 13
8 9 7 7 11 6 6 6 7 6 14 16 21 26 18 17 17 9 9 15 17 15 22 26 28 28 27 26 24 24 23 21 17 13 14 14 14 16 16 15 12 10 9 8 8 9 9 10 12
8 6 6 9 9 7 7 6 4 3 6 8 11 14 23 15 13 8 12 14 15 19 23 29 29 30 29 26 25 25 24 21 17 14 16 15 15 16 15 13 12 9 8 8 7 6 8 9 10
5 4 7 8 3 4 7 5 3 3 4 5 8 10 6 6 6 5 8 11 15 21 21 27 30 30 29 28 27 27 25 22 18 16 17 18 16 15 14 12 11 8 7 5 5 6 6 8 9
4 6 7 6 4 0 6 6 1 1 3 8 8 6 10 8 5 8 11 17 18 22 25 27 31 31 37 36 32 28 26 25 19 19 15 15 17 15 13 11 8 6 4 4 4 4 5 7 7
3 3 5 4 3 1 6 4 4 5 8 9 8 3 7 8 4 6 14 16 21 26 29 33 35 37 37 39 32 29 28 24 22 22 17 18 16 14 11 8 7 4 2 2 3 4 6 6 8
2 4 4 4 3 3 5 7 6 8 12 12 10 10 12 9 6 5 8 10 17 23 28 32 40 38 34 30 38 31 26 26 22 25 22 18 15 13 11 9 6 4 1 1 2 5 6 7 8
1 3 2 4 6 7 10 8 10 13 12 12 13 13 13 14 13 11 14 16 18 22 27 25 29 32 46 43 43 37 32 30 24 21 21 18 14 11 9 6 4 3 1 3 5 7 8 10 10
4 4 6 8 11 12 9 10 12 10 8 8 11 13 15 16 13 15 14 17 19 23 26 27 34 35 37 32 30 39 37 30 24 24 19 15 14 11 8 7 6 3 5 6 7 9 10 12 12
8 10 11 10 6 5 7 10 6 5 8 16 16 12 11 10 12 13 15 18 15 19 25 24 33 29 32 29 21 36 31 30 25 20 18 16 13 10 10 9 5 6 9 8 9 10 12 13 15
10 12 9 3 4 7 7 6 6 5 18 22 14 16 13 13 12 13 12 17 17 18 29 40 38 38 31 32 39 34 26 28 25 19 17 15 13 13 11 8 8 9 9 10 12 14 15 17 18
10 5 4 2 5 7 4 6 4 10 16 19 5 13 12 12 12 13 14 13 13 22 38 36 24 23 31 18 27 36 30 25 19 17 17 16 14 11 10 9 9 10 12 13 15 17 16 15 13
5 3 2 4 4 5 6 4 4 8 13 16 4 8 9 12 11 11 12 10 16 13 16 27 32 33 36 30 27 22 18 17 18 18 16 14 12 11 10 11 11 11 14 15 15 14 14 14 14
4 3 7 4 4 4 5 6 9 9 11 14 7 8 4 6 12 12 15 17 17 16 30 39 39 30 26 24 22 20 20 21 19 18 16 13 13 12 12 12 12 12 11 12 13 13 13 15 18
9 8 6 4 4 5 5 7 7 8 8 9 8 8 13 13 19 31 25 26 26 24 27 26 26 23 20 21 21 22 21 20 18 17 16 15 14 14 15 14 13 11 11 12 11 13 16 20 21
9 9 6 7 5 9 10 10 9 6 5 5 6 10 12 20 21 20 15 14 16 17 16 16 17 19 19 21 19 19 18 17 16 15 14 13 14 15 14 13 12 12 12 12 13 17 20 20 21
9 9 8 8 9 10 10 10 9 6 2 3 1 5 14 17 13 11 13 14 17 19 18 16 17 18 19 18 16 14 12 13 14 14 14 13 14 13 11 14 13 13 12 14 16 19 22 23 24
10 11 13 9 6 9 9 9 8 7 2 1 2 3 10 14 15 14 16 20 21 20 19 18 17 17 16 15 15 14 14 14 13 13 14 16 15 13 14 13 13 14 15 17 19 21 24 22 20
12 14 10 10 8 9 11 10 9 7 8 8 7 8 10 11 14 17 19 20 21 21 19 18 17 16 16 17 18 17 14 13 13 12 14 16 13 14 13 13 14 15 18 22 23 24 27 33 35
12 9 10 8 6 8 6 4 6 9 8 10 13 15 15 14 16 18 18 19 18 19 20 20 20 20 19 19 18 18 17 15 14 15 15 17 16 14 13 13 15 17 21 25 27 32 34 30 34
9 9 7 7 7 6 7 8 5 6 9 11 11 18 19 18 18 19 19 20 21 22 21 22 21 21 21 21 19 19 20 20 19 19 22 17 17 17 15 16 19 21 24 28 32 35 33 38 32
7 7 5 6 7 9 5 6 4 6 5 5 7 12 20 21 21 21 20 20 21 22 23 23 22 22 23 23 22 22 23 23 23 23 18 19 20 19 18 19 22 24 25 29 36 34 29 27 33
8 8 9 7 7 5 4 5 12 9 6 6 8 10 14 23 27 25 25 24 25 24 23 22 22 23 22 23 23 23 21 24 25 25 22 21 21 20 21 24 25 26 28 32 31 30 24 32 33
14 13 7 6 5 5 4 7 4 8 10 8 10 12 14 18 25 32 29 26 26 26 25 23 25 22 20 19 18 18 26 28 25 26 23 22 23 24 25 27 27 25 28 32 38 31 36 38 38
12 12 11 4 4 6 9 10 11 8 6 9 8 9 8 11 18 26 32 33 28 26 23 19 23 22 19 18 23 22 23 25 26 25 25 26 25 26 27 26 27 31 29 33 34 37 39 38 40
12 13 8 8 5 7 7 10 10 6 3 1 3 4 5 7 14 18 25 29 30 29 27 27 22 21 21 21 22 24 24 27 27 27 26 25 25 26 24 27 33 34 30 28 35 39 38 39 41
17 14 11 7 6 4 4 6 7 7 8 7 5 5 3 2 5 14 18 21 26 28 26 25 29 26 23 21 21 22 23 25 27 27 26 25 27 30 23 31 36 21 26 28 33 35 37 39 40
18 17 18 12 10 8 7 15 14 15 9 7 9 8 6 4 4 5 7 13 24 29 29 28 27 26 23 20 17 17 18 22 23 24 26 29 31 25 17 29 33 24 31 30 34 37 39 39 37

GFSSGP_700_spd_075.txt.gz
Wind_Speed
6 7 7 7 9 13 20 23 13 11 14 15 19 29 24 21 10 26 19 19 13 15 16 20 22 21 21 21 20 19 17 15 12 9 6 4 2 6 12 15 15 14 13 13 13 13 14 15 15
5 7 6 5 13 22 21 6 4 11 10 14 19 28 29 27 28 6 10 10 9 10 18 21 23 23 23 22 21 20 19 17 14 10 7 4 6 13 16 16 15 14 13 13 13 12 14 14 14
6 7 5 16 19 23 16 2 9 8 11 16 16 21 20 28 5 12 12 8 11 13 17 22 25 25 25 24 23 22 20 18 15 11 7 6 12 17 18 16 15 14 13 12 12 12 12 12 13
6 5 7 10 17 15 11 13 9 15 23 17 14 22 21 24 21 12 11 12 16 14 18 24 28 28 27 26 24 23 22 20 16 12 9 12 17 18 18 16 15 13 12 11 11 10 11 11 12
5 4 11 19 13 10 7 9 8 21 13 12 16 19 26 28 20 17 11 19 20 23 31 31 30 29 27 26 25 24 23 20 17 14 13 16 19 18 17 15 14 12 10 10 9 9 9 9 9
6 7 15 18 5 5 6 16 23 16 9 8 11 15 10 18 25 23 16 19 21 27 19 27 29 30 28 27 25 25 23 20 18 15 16 16 17 17 16 15 13 11 9 8 7 7 6 7 7
7 10 17 11 9 3 5 4 6 15 13 8 2 7 7 9 13 26 18 18 24 30 35 32 32 33 32 31 31 29 26 23 20 20 21 21 20 15 16 14 12 10 7 6 6 5 5 6 5
8 9 14 8 8 3 5 2 3 10 17 16 5 12 4 10 11 13 14 18 17 18 18 26 35 32 35 35 36 33 29 25 24 22 20 20 15 18 15 13 11 8 6 4 4 2 3 3 5
7 10 15 5 8 8 7 8 13 10 11 14 10 11 11 12 8 9 15 14 15 17 22 23 29 36 39 39 37 30 29 28 26 23 21 24 21 19 15 14 9 6 4 4 1 1 2 4 6
5 15 5 5 8 10 11 11 10 12 12 11 13 13 14 15 13 13 14 16 14 17 21 22 27 37 40 44 38 39 36 29 25 25 26 20 19 17 14 10 8 8 7 3 1 2 5 7 8
7 12 7 6 11 11 10 9 12 10 14 4 8 14 17 15 17 20 18 18 13 14 19 21 28 33 31 34 23 32 33 32 32 31 22 21 19 14 14 11 11 7 4 5 3 6 6 8 10
12 10 9 11 11 7 9 9 9 9 10 17 17 16 18 15 14 15 15 13 16 16 17 20 22 27 29 38 46 29 33 43 40 34 26 20 17 15 11 13 9 8 8 5 7 7 8 11 14
12 12 11 11 9 8 10 9 7 7 15 17 15 13 15 16 14 14 13 17 18 17 18 19 23 29 28 31 28 25 34 41 32 21 17 20 16 13 15 11 9 8 8 8 10 11 13 14 14
11 11 10 9 8 10 9 9 5 8 14 17 18 11 9 13 13 13 14 14 13 15 12 17 34 32 35 28 29 34 42 36 27 26 24 25 17 14 13 12 10 9 9 11 14 14 14 13 11
10 12 13 12 8 8 9 13 12 9 8 13 16 10 13 14 12 14 14 13 10 22 28 32 36 40 34 22 18 24 36 34 30 30 21 18 16 14 15 12 10 10 11 15 14 14 13 12 12
11 13 14 12 6 9 7 10 12 6 7 5 12 11 7 11 12 11 12 12 15 15 23 35 12 18 15 28 30 32 32 27 25 22 19 19 18 16 14 13 11 10 13 13 12 12 12 13 14
16 11 12 9 7 8 9 7 4 4 5 3 5 7 20 4 12 9 9 15 14 16 21 21 30 28 21 20 23 23 25 25 20 20 20 19 18 16 15 14 12 13 13 12 11 12 13 14 16
8 14 8 11 7 7 11 12 7 2 2 2 1 3 14 27 24 18 23 26 25 27 29 29 28 21 18 19 22 23 22 21 22 20 20 20 17 15 16 15 14 14 13 13 14 14 15 16 18
12 12 11 10 10 10 13 12 8 6 5 7 6 6 3 5 11 15 15 15 18 17 18 17 20 16 17 17 18 18 17 17 18 19 18 17 17 17 18 17 14 14 14 15 16 16 17 19 20
14 14 13 14 10 9 11 12 8 9 8 10 8 10 12 10 7 10 13 16 15 17 19 19 17 17 17 17 16 15 15 15 17 17 18 18 19 19 19 16 14 13 14 16 17 18 20 22 21
14 15 14 17 9 13 13 14 13 11 12 12 12 12 14 17 8 12 13 16 18 20 19 19 18 17 16 17 18 17 16 16 17 17 18 19 19 18 18 15 15 15 16 18 19 21 22 24 28
17 12 11 11 12 6 12 8 16 15 12 15 16 17 17 17 13 14 16 19 18 17 15 15 17 18 19 19 20 19 17 16 17 18 17 18 25 19 18 16 18 17 19 20 21 24 27 28 32
15 8 9 11 14 16 10 11 11 13 12 15 17 19 20 21 18 14 17 17 18 20 19 19 19 20 21 21 21 19 20 21 22 22 21 21 19 23 22 20 20 21 21 23 25 27 28 32 34
12 9 10 11 14 14 13 13 10 10 9 5 8 16 22 23 24 23 17 19 20 20 21 22 23 22 23 22 23 23 22 24 21 24 27 26 21 18 25 25 24 25 25 25 27 32 33 34 31
14 12 12 8 9 10 8 7 12 7 5 6 7 9 15 23 26 26 27 25 23 24 24 24 24 24 24 24 25 24 24 26 24 26 29 31 28 27 26 27 28 29 28 28 32 35 32 37 36
19 18 11 6 3 6 6 7 12 7 6 8 9 10 13 16 25 28 29 29 28 27 27 25 25 24 25 25 23 24 25 28 23 28 27 30 32 29 29 30 32 31 31 30 33 32 28 37 37
16 24 18 14 7 10 11 10 13 12 9 8 7 9 10 14 20 25 29 30 30 30 29 28 26 26 28 26 23 21 22 23 24 29 31 31 31 32 32 31 31 33 28 32 38 37 35 32 35
15 15 14 15 10 10 14 15 14 6 5 5 4 3 6 9 12 16 24 30 31 33 29 27 27 25 23 24 28 27 25 25 27 29 31 32 32 35 32 30 32 31 32 41 37 30 27 30 31
20 17 16 16 17 6 9 7 3 1 6 8 8 6 5 4 7 11 15 21 27 32 34 33 30 30 29 25 25 28 27 29 31 30 30 29 32 35 30 30 33 35 37 35 29 27 29 33 34
24 23 24 20 18 15 19 20 16 13 14 13 10 10 9 6 5 6 7 13 20 23 29 32 33 34 35 36 34 30 28 28 26 26 26 26 29 31 30 36 29 20 29 25 26 25 30 34 36

GFSSGP_700_spd_078.txt.gz
Wind_Speed
6 5 6 2 10 14 22 23 20 24 13 11 16 12 20 22 27 21 20 35 44 24 18 21 22 22 22 22 23 21 19 16 13 10 6 5 6 10 16 17 15 16 16 16 17 17 16 16 14
2 4 6 6 17 24 19 13 17 11 12 12 9 12 18 30 34 44 43 48 12 8 16 20 22 23 23 24 25 23 20 17 14 10 7 6 8 15 18 17 16 16 16 16 16 16 15 13 12
2 5 8 16 20 27 27 10 10 9 13 17 24 20 18 26 30 39 43 42 22 14 14 21 24 27 27 27 26 24 21 19 15 12 8 8 13 19 19 18 16 15 16 16 16 16 13 13 13
3 7 11 14 15 15 20 15 8 11 18 15 16 18 17 29 30 36 26 34 17 21 21 25 27 29 28 26 25 23 22 19 16 12 9 11 17 20 19 17 16 15 15 15 15 13 12 12 12
6 6 15 21 21 24 11 11 19 21 26 29 33 18 14 23 26 21 11 23 22 22 21 26 28 26 25 23 21 22 21 19 16 13 10 15 19 19 18 18 16 15 14 13 13 11 10 10 10
9 14 21 20 19 12 12 15 22 15 19 26 21 22 12 14 17 19 27 26 23 29 28 26 28 27 26 25 25 24 22 19 16 13 13 18 20 20 19 17 16 14 13 12 11 9 8 7 7
10 13 21 21 19 8 14 17 15 15 19 20 11 5 13 11 12 19 27 24 24 35 36 27 32 31 29 29 28 26 24 21 18 15 19 21 22 20 19 17 15 13 11 10 9 7 6 5 5
11 14 19 20 20 12 16 10 16 10 16 18 13 14 6 4 10 15 16 22 25 13 19 38 35 34 31 29 29 28 27 25 20 20 23 24 23 23 19 17 14 13 12 9 7 5 4 1 3
11 15 17 16 14 12 13 10 14 16 19 8 3 19 16 10 9 7 14 27 15 15 13 5 18 36 34 34 35 33 29 25 24 26 25 25 23 17 17 17 15 12 8 8 5 3 2 1 3
11 14 12 15 12 15 15 15 16 13 20 20 34 9 14 17 11 10 10 11 16 11 7 7 1 19 30 35 38 37 32 30 29 27 24 20 19 24 21 19 14 12 8 5 4 4 2 3 5
13 18 17 15 15 16 16 15 13 15 16 20 25 16 25 17 15 11 12 13 15 12 11 10 12 21 35 37 33 48 49 43 39 40 34 26 26 23 19 15 13 8 6 7 5 5 4 7 10
15 16 17 16 15 14 13 17 15 14 10 16 16 18 22 15 15 9 8 6 12 10 7 8 17 27 29 34 33 28 28 36 50 36 34 35 25 22 17 14 10 9 9 8 8 5 7 10 12
15 17 16 16 15 12 12 16 13 11 10 23 19 22 22 15 12 10 7 6 4 11 13 11 24 30 30 32 24 32 35 39 37 32 32 27 22 19 15 13 12 11 11 10 7 8 9 11 10
17 18 17 15 13 15 14 13 9 17 14 22 18 22 13 13 14 10 9 8 12 10 9 16 18 18 25 32 36 32 27 38 33 33 33 29 30 21 16 13 11 11 11 9 9 10 11 10 8
17 18 16 21 16 17 9 15 12 20 7 13 17 16 17 13 17 12 8 10 7 8 9 15 17 26 45 44 39 38 31 34 39 41 33 26 23 16 17 13 12 12 9 9 10 12 11 9 10
19 16 14 21 9 13 10 17 21 4 2 8 15 18 21 13 10 11 11 9 10 9 11 17 29 31 30 29 26 25 16 37 44 39 29 24 18 16 16 14 14 11 9 10 11 10 10 11 12
15 19 21 17 10 9 13 13 11 7 8 5 14 12 20 23 2 9 9 12 13 10 17 20 16 21 17 18 15 15 25 34 27 23 16 14 17 19 18 16 15 11 11 11 11 10 12 13 15
6 13 14 16 9 6 10 14 10 6 5 9 14 14 12 27 17 6 5 7 11 14 20 9 24 29 28 30 33 30 30 27 22 20 19 18 19 19 17 18 13 15 14 12 12 12 14 15 14
17 20 17 13 5 10 14 14 11 9 8 10 10 12 7 8 13 18 17 20 21 23 24 23 17 18 18 19 20 23 22 23 23 22 21 20 19 19 18 19 16 16 15 13 14 14 15 16 15
14 17 16 17 10 8 14 16 10 12 11 15 10 9 5 3 4 6 11 15 17 19 24 22 17 13 13 13 15 18 18 19 19 18 18 18 19 19 18 20 17 19 17 15 16 15 18 21 19
14 16 17 17 16 13 11 17 11 8 13 12 8 10 6 3 5 7 11 12 16 17 18 18 17 15 14 15 17 17 17 16 16 16 17 17 18 18 20 21 18 21 20 17 18 18 21 23 23
16 13 17 14 14 11 12 13 19 14 16 16 14 17 17 10 4 7 10 12 12 14 15 14 14 16 15 15 15 15 13 12 12 15 17 17 18 21 20 23 24 23 23 21 21 22 23 22 28
18 12 11 11 15 16 16 15 15 13 19 21 18 17 19 15 11 8 9 10 12 14 13 14 17 17 18 17 16 16 15 16 17 18 17 18 22 23 20 21 25 26 25 26 24 25 24 26 26
16 14 13 14 16 15 18 14 11 4 13 13 15 20 22 22 17 14 13 15 14 16 17 17 16 16 18 20 20 20 19 20 20 18 18 22 24 24 25 23 26 29 29 31 29 26 27 29 29
18 14 12 4 10 9 7 6 11 6 8 9 5 16 16 24 24 21 20 21 19 21 20 20 21 21 21 19 20 22 21 22 22 21 22 25 26 25 31 33 31 31 32 34 31 30 32 32 32
20 20 14 5 3 5 4 7 5 8 9 6 6 10 9 17 22 27 27 24 23 23 22 24 23 22 24 22 19 22 24 24 27 26 22 27 27 27 29 35 36 34 37 35 33 34 35 37 36
20 26 24 27 10 13 12 6 16 9 3 5 5 6 10 14 17 26 28 31 31 28 27 24 24 23 25 27 22 22 24 26 28 25 23 24 26 33 32 33 37 38 40 34 34 36 39 40 44
26 18 21 20 7 9 9 15 8 3 11 8 4 5 3 10 15 19 26 27 33 31 31 28 26 28 27 28 27 27 26 27 28 26 27 27 27 30 32 35 37 40 43 29 36 39 45 42 37
24 24 16 21 18 6 4 5 5 10 4 5 4 6 6 6 10 12 17 24 30 32 31 33 32 30 31 31 31 27 24 28 32 31 29 30 31 31 30 38 39 38 26 31 35 38 32 34 34
25 24 25 19 14 13 13 18 13 8 9 10 11 11 9 10 8 11 9 16 24 27 30 34 38 33 35 35 35 36 29 25 30 31 28 30 28 23 27 22 33 28 34 36 25 22 29 33 29

GFSSGP_700_spd_081.txt.gz
Wind_Speed
7 5 5 7 7 7 22 29 26 27 18 11 12 9 15 11 15 22 17 12 13 18 25 31 25 30 31 30 28 26 24 21 18 16 14 13 13 17 21 20 19 19 18 18 19 19 17 14 11
3 4 7 3 10 16 21 13 20 15 14 19 18 12 12 16 20 26 32 29 27 32 26 26 34 34 34 32 31 28 25 21 17 15 12 12 14 19 22 20 19 19 19 19 19 17 14 12 11
1 5 8 6 13 26 24 20 11 14 17 19 24 18 18 13 16 25 38 40 36 35 46 36 36 37 36 34 31 29 24 21 17 13 11 11 16 21 22 20 19 19 18 18 18 16 14 13 12
2 8 9 13 19 21 12 16 13 15 21 26 28 31 23 21 18 18 27 34 40 41 42 44 40 40 37 34 31 28 25 21 17 14 10 11 18 22 22 20 20 19 18 18 17 15 14 12 11
7 0 11 21 29 29 20 16 22 28 29 24 28 36 41 30 27 16 18 20 22 18 28 30 49 43 38 34 31 28 25 22 19 15 11 14 20 21 21 20 19 18 17 16 15 14 12 10 9
5 8 20 30 31 34 20 19 23 23 25 25 24 26 6 17 23 18 21 19 27 19 25 32 39 40 38 35 33 30 26 23 20 15 13 18 23 23 21 19 18 17 17 16 14 13 10 9 8
1 10 21 30 28 16 14 16 20 22 24 27 23 12 8 16 17 15 18 21 25 25 29 31 38 40 40 37 34 32 28 25 22 18 18 23 24 24 21 20 19 17 15 14 12 11 10 7 7
10 18 28 21 25 21 13 15 20 23 21 22 19 19 24 12 12 12 12 18 16 25 24 3 34 48 43 40 36 32 29 26 23 20 23 26 25 24 22 20 18 16 15 14 11 9 7 5 3
3 17 21 19 20 13 17 20 19 14 21 20 18 18 24 14 11 12 10 10 7 12 30 37 18 60 44 41 35 31 29 26 24 24 26 28 27 25 25 21 18 17 13 12 8 7 4 2 1
15 18 24 18 18 22 21 18 18 19 17 21 21 20 25 17 11 12 14 7 10 9 18 10 15 33 37 36 32 33 31 30 26 27 29 29 29 25 22 21 17 14 12 10 7 6 2 2 2
16 21 21 22 19 15 18 11 14 14 20 13 21 20 23 20 22 17 15 12 10 10 7 6 7 6 10 24 35 34 35 33 29 32 35 34 30 26 19 24 21 16 11 9 6 4 3 3 4
17 24 20 21 18 22 23 12 20 16 17 20 24 25 23 24 20 21 11 8 7 9 7 6 11 14 22 28 28 31 38 33 34 41 37 35 37 22 23 22 16 14 12 8 3 7 7 5 5
25 16 14 18 24 14 11 15 17 20 24 21 18 18 21 20 14 14 12 8 6 6 4 2 3 10 23 28 26 36 40 29 34 41 32 36 28 25 28 20 17 13 11 5 7 9 7 7 6
15 20 20 21 22 21 18 20 20 19 23 21 14 18 20 21 14 12 9 6 5 9 8 5 5 16 15 16 29 33 32 28 35 37 38 38 27 28 25 20 14 12 10 6 10 9 8 8 6
16 17 18 18 18 24 15 17 22 14 19 12 15 17 19 26 17 12 10 9 10 9 6 4 9 11 19 18 27 31 37 32 40 39 38 35 27 29 18 14 16 14 9 9 10 9 9 7 7
15 15 22 21 20 12 15 24 11 11 9 10 10 16 22 21 8 8 11 9 10 12 10 17 10 17 15 24 32 38 31 33 33 29 31 29 31 26 25 20 15 11 9 11 9 10 8 7 6
14 25 18 23 24 18 17 21 20 13 16 16 13 13 15 24 5 4 6 6 8 9 9 14 6 11 23 40 39 32 28 18 29 37 31 34 33 27 20 18 15 12 14 11 11 9 9 8 9
12 16 20 22 10 13 9 19 11 6 5 12 11 15 11 15 17 5 5 4 7 7 6 11 6 14 19 16 21 21 19 16 24 36 31 26 31 23 19 16 16 17 16 12 11 10 11 11 11
17 26 23 19 8 16 13 17 16 11 11 13 12 14 8 6 10 14 16 10 12 13 6 6 15 21 21 21 24 24 22 20 25 24 24 25 23 21 18 18 18 18 15 14 13 14 15 13 12
24 22 15 16 15 17 13 17 16 10 14 14 14 13 5 5 5 6 12 22 27 25 25 25 23 23 21 19 21 21 22 20 18 18 18 17 16 18 20 19 17 19 18 17 17 17 18 18 15
17 16 17 16 17 17 16 16 9 19 20 17 17 12 4 1 2 4 5 11 16 19 18 17 17 18 18 18 19 19 19 19 20 18 16 15 16 18 19 14 17 21 21 19 19 21 21 21 18
13 15 16 16 12 13 12 10 22 12 23 23 18 16 6 4 4 2 3 6 8 11 13 12 14 13 15 15 16 17 14 12 12 14 14 16 17 19 18 19 18 20 25 22 23 25 24 24 23
17 16 16 12 13 17 20 9 18 8 28 24 19 17 15 3 5 5 3 5 7 6 7 9 12 13 13 14 14 13 14 12 13 15 15 15 16 17 19 20 17 19 23 26 27 29 28 26 28
16 17 17 9 14 14 23 10 20 15 20 20 24 22 18 10 6 8 8 10 11 10 10 11 11 13 13 13 14 13 12 14 15 14 13 14 16 20 21 22 25 27 25 27 31 32 31 28 30
19 16 6 4 2 5 6 7 23 16 16 17 19 26 19 12 8 8 10 15 15 15 14 13 13 13 13 13 12 12 13 15 16 16 16 16 19 22 22 23 25 29 34 33 34 35 35 34 32
23 28 15 6 3 3 11 9 5 5 11 13 10 7 16 20 19 14 9 11 14 18 18 18 18 17 18 17 17 17 17 18 19 20 20 20 22 20 21 24 27 29 33 38 41 36 38 35 34
21 23 26 20 2 1 10 18 5 6 12 11 11 6 12 19 22 21 19 18 17 16 19 22 22 21 22 20 20 19 19 21 21 22 22 22 23 20 23 27 28 30 35 39 41 42 39 31 35
28 19 20 20 7 6 6 15 6 9 9 6 6 10 9 9 9 16 24 23 25 22 19 18 19 23 24 26 24 22 21 23 25 25 24 23 24 24 26 27 28 31 33 43 44 39 29 31 39
26 27 16 21 21 6 3 6 2 16 9 15 5 7 10 15 19 15 21 20 25 27 26 25 22 18 19 26 28 28 26 27 27 26 28 26 26 26 27 26 23 28 25 27 29 30 30 32 32
37 31 29 23 16 11 9 10 13 6 7 7 5 13 11 10 12 14 12 20 18 21 26 29 24 22 19 21 26 28 32 30 33 28 25 26 27 29 28 27 26 28 22 22 23 27 31 31 31

GFSSGP_700_spd_084.txt.gz
Wind_Speed
7 6 6 9 3 6 10 11 19 17 4 8 12 16 12 8 8 2 0 6 8 12 19 23 23 33 37 36 35 32 28 25 22 21 20 18 17 18 20 18 18 18 18 18 17 15 13 12 11
4 4 5 6 4 9 12 10 20 20 19 15 13 20 20 24 20 16 13 12 12 14 20 25 31 38 38 38 37 33 30 26 22 19 17 16 18 20 21 19 18 18 19 18 17 15 13 11 10
4 4 4 4 6 12 16 22 17 15 19 25 27 26 23 23 25 24 19 24 6 8 17 23 32 33 34 39 37 34 29 25 21 17 15 14 18 22 21 20 19 19 18 18 16 14 11 10 11
4 5 7 7 16 20 25 28 16 21 23 27 21 19 31 28 21 20 15 18 17 17 11 24 36 43 33 46 38 35 31 26 22 19 16 17 21 24 23 21 21 20 18 16 14 12 10 7 8
5 1 5 13 22 23 30 11 9 16 20 20 24 18 21 19 10 15 16 22 22 16 19 20 31 30 33 54 40 37 32 28 25 21 19 18 23 24 23 22 21 19 18 16 14 12 8 4 5
6 5 9 16 18 25 12 11 14 16 23 21 22 20 18 22 18 12 19 22 20 16 21 23 27 42 39 60 44 40 35 32 27 23 19 20 24 25 24 22 21 19 17 14 12 10 7 3 1
6 5 10 15 17 29 12 14 14 16 17 18 16 16 23 23 25 21 14 18 15 18 25 26 31 49 58 42 49 44 39 33 29 23 21 25 27 26 25 23 21 19 17 15 13 10 7 4 2
1 9 8 12 21 24 9 14 17 12 13 21 23 25 23 31 7 5 9 11 15 19 17 23 43 46 37 66 54 47 38 33 29 25 25 28 29 28 26 24 22 20 18 16 13 12 9 5 3
5 10 14 20 22 20 14 17 16 14 14 20 26 24 25 20 13 11 14 13 16 14 15 20 23 33 34 65 53 50 39 34 30 27 29 31 31 30 27 26 23 21 19 16 14 11 5 4 3
9 14 10 16 19 27 17 23 20 18 25 26 25 26 28 22 22 14 13 15 14 10 10 21 13 29 61 52 51 41 39 35 30 29 31 33 31 30 29 27 23 19 15 12 11 7 5 3 4
9 15 18 26 21 23 20 20 17 19 25 29 29 24 25 21 23 18 14 17 16 12 6 3 6 33 44 49 47 42 38 34 31 30 31 33 34 36 35 27 18 15 14 14 11 9 5 5 6
14 15 17 21 18 19 21 22 18 19 24 28 31 27 26 25 19 15 12 12 8 10 5 6 5 16 17 33 37 36 29 31 33 33 34 39 40 35 30 24 17 20 18 11 8 6 4 5 8
18 19 18 18 17 18 19 23 20 23 26 27 23 18 19 24 24 18 12 10 9 6 6 7 12 14 11 22 25 29 36 35 35 34 36 40 36 33 26 24 20 19 18 10 11 7 5 7 10
22 22 17 18 17 19 21 26 22 22 24 23 18 19 22 24 28 15 11 9 6 6 5 6 10 14 16 22 33 34 35 38 40 27 35 40 29 31 28 26 19 19 14 13 11 8 6 10 11
22 21 19 20 15 19 21 23 27 21 24 21 12 16 20 27 24 3 6 8 5 11 5 7 11 10 10 24 33 36 39 25 32 32 41 32 32 29 33 29 22 19 14 12 11 8 9 12 9
22 20 17 2 8 15 17 19 15 19 17 19 14 16 18 24 12 2 6 6 8 7 4 4 1 14 6 25 32 30 37 36 34 41 42 40 36 32 33 23 22 18 13 13 12 9 11 11 8
16 17 13 11 8 10 16 19 19 21 20 17 12 14 13 17 18 4 3 11 10 8 10 15 12 11 21 17 21 29 35 34 36 36 40 33 36 37 25 25 21 18 15 15 13 11 11 12 12
13 15 13 18 22 12 10 14 19 21 16 11 12 12 12 12 18 18 3 9 12 14 15 14 22 13 16 21 27 39 41 28 28 22 26 33 33 32 26 27 25 19 17 16 13 14 15 15 13
24 21 21 21 16 17 14 21 17 18 19 14 14 13 13 9 11 13 16 6 11 13 16 15 16 15 22 23 21 25 22 19 22 21 28 33 27 27 32 27 24 19 17 16 17 17 16 15 14
24 25 28 24 15 12 16 16 18 15 17 15 15 12 13 8 7 9 12 14 17 15 19 19 18 19 15 12 17 22 22 20 22 27 28 28 30 32 28 27 22 16 18 17 18 19 19 17 18
25 29 28 22 14 20 10 13 11 12 18 18 18 13 10 5 4 5 7 10 11 19 19 19 20 20 22 24 26 27 29 29 28 29 31 30 27 27 27 25 21 18 18 19 21 22 23 21 21
28 17 19 15 11 9 11 10 19 16 23 23 21 17 13 7 3 2 4 4 7 13 14 16 18 18 18 19 19 19 20 19 23 27 25 26 27 29 23 20 19 19 20 23 21 24 25 26 24
28 23 17 16 16 17 17 10 22 17 17 25 22 16 13 10 6 4 5 5 5 7 10 12 13 15 16 15 15 14 16 15 15 17 19 21 21 22 23 20 21 21 23 23 23 24 28 29 29
22 21 18 16 10 7 8 5 23 18 23 22 24 21 15 15 11 7 10 11 8 9 9 10 11 11 11 12 13 12 12 14 16 17 16 17 18 17 19 18 18 19 23 25 25 25 30 33 35
25 24 7 4 3 6 8 9 21 17 15 16 19 19 20 17 10 11 11 12 12 10 9 9 10 10 11 12 12 12 14 15 13 13 13 14 15 17 16 19 19 20 22 23 23 29 31 38 38
25 28 14 6 4 4 6 8 12 13 14 23 18 21 15 18 16 12 11 9 10 13 13 13 12 13 11 11 10 10 12 16 17 17 16 17 18 18 20 22 23 23 24 26 28 28 37 36 42
26 31 26 20 6 2 6 15 17 12 8 10 10 14 18 18 16 15 15 15 13 12 11 14 17 15 15 13 14 15 16 17 17 18 19 21 21 25 25 25 25 25 25 25 22 29 32 35 42
30 27 19 14 7 4 6 16 11 10 18 13 14 11 11 11 14 14 17 18 18 17 17 15 14 16 17 19 21 22 22 21 21 22 23 23 24 27 29 29 24 20 24 25 24 24 25 35 29
32 35 21 21 18 6 3 9 18 14 19 16 13 12 13 10 11 12 10 15 19 19 22 21 18 16 16 16 20 23 25 26 26 28 29 27 27 27 29 29 28 23 25 25 24 22 20 20 21
31 37 35 20 11 9 18 15 9 13 15 15 10 11 12 13 14 12 12 12 15 19 22 21 21 20 19 17 18 18 21 26 29 30 35 37 34 29 26 28 29 28 27 25 25 24 22 28 26

GFSSGP_700_spd_087.txt.gz
Wind_Speed
8 5 5 6 4 4 6 9 17 18 15 12 12 16 14 16 14 7 5 8 9 17 20 18 20 20 22 23 21 27 36 23 31 27 24 20 16 14 15 16 15 14 13 13 13 14 12 10 8
6 3 4 3 2 4 9 15 20 16 16 16 18 19 18 18 14 12 16 15 11 11 14 17 17 20 27 28 29 35 33 31 29 26 21 17 15 15 18 18 17 17 15 15 14 13 12 9 6
4 1 1 2 3 11 14 24 23 13 17 15 17 19 14 17 22 24 18 15 11 16 16 19 24 18 28 29 39 37 33 31 27 23 20 18 18 20 20 20 18 18 16 15 13 12 12 10 9
3 2 4 3 9 14 20 16 9 7 12 16 18 16 19 20 28 23 19 16 13 17 17 24 27 25 31 30 39 36 35 31 27 25 22 21 22 22 22 20 20 18 17 15 14 13 14 12 9
3 2 3 7 9 15 9 8 9 10 9 14 17 20 23 23 18 23 16 14 13 13 17 23 24 30 30 41 33 43 38 34 30 27 24 22 24 24 24 22 20 19 16 15 13 13 12 10 8
7 7 6 5 8 14 5 5 8 9 11 14 18 24 24 19 24 22 14 19 15 16 18 22 26 30 31 46 37 39 42 38 33 31 24 24 27 27 26 23 22 20 18 16 14 13 11 9 7
4 5 8 8 9 12 14 9 8 12 11 16 21 21 21 17 26 17 11 11 16 16 17 22 24 26 40 46 40 33 43 43 34 30 25 26 29 29 27 25 24 22 19 16 12 9 9 8 4
7 7 10 8 10 12 17 19 14 19 13 18 23 19 20 21 18 11 6 7 12 10 12 16 16 25 29 33 43 39 52 36 40 31 26 31 33 31 28 26 24 22 18 15 12 9 7 5 3
8 11 10 7 15 22 19 24 16 17 15 21 23 25 23 19 17 12 9 13 13 19 19 13 18 27 33 41 43 56 56 42 39 30 30 35 35 32 31 27 25 23 21 17 12 7 4 3 3
14 14 9 13 20 24 22 15 16 19 22 24 24 25 21 19 19 15 12 13 13 17 15 17 17 41 46 51 52 39 47 49 37 34 35 37 36 35 33 30 27 24 21 15 12 7 4 5 2
16 17 13 16 17 19 16 13 17 23 26 26 27 28 21 20 18 18 12 11 13 15 13 14 25 21 58 61 65 63 44 39 40 36 37 40 39 37 34 33 32 29 17 14 10 6 7 4 3
21 17 17 17 17 18 17 16 22 26 26 28 31 27 18 21 21 23 15 10 9 9 12 8 8 12 35 47 58 51 47 42 39 36 37 39 37 38 40 35 30 20 15 15 12 11 7 9 4
19 19 19 20 18 16 19 22 25 27 27 27 28 27 21 25 27 35 15 9 9 7 6 8 2 15 25 45 48 49 44 39 35 36 38 39 41 41 33 30 25 24 19 14 16 10 9 10 6
23 24 24 24 23 20 23 24 28 26 22 26 25 22 20 24 31 25 8 5 9 7 9 9 9 13 12 30 38 46 41 40 42 37 39 39 40 38 26 27 24 22 18 16 14 10 13 12 9
22 24 24 20 22 23 18 21 23 14 14 22 23 20 20 24 29 13 4 2 9 13 5 11 12 11 17 17 25 30 35 35 34 41 40 35 38 32 25 28 22 23 18 19 15 11 13 13 10
18 20 22 3 7 15 15 19 18 15 17 21 21 16 17 21 26 13 5 7 12 9 8 9 17 14 18 22 29 30 35 36 41 39 39 39 39 27 30 29 26 25 20 19 13 12 13 12 9
18 19 15 13 12 14 20 17 16 17 17 18 16 13 16 21 21 12 2 7 5 11 12 10 9 15 15 21 25 37 27 39 44 44 34 40 34 32 32 30 26 25 22 17 14 14 14 14 12
20 19 16 16 12 20 23 23 17 23 17 15 14 13 15 19 19 17 8 12 11 11 12 17 11 13 16 11 33 25 26 37 41 36 34 38 41 38 28 32 32 28 23 17 16 17 16 14 14
21 15 13 13 13 25 19 14 12 20 19 14 10 9 13 15 16 16 15 2 14 13 9 14 19 21 15 24 23 26 30 34 33 37 37 40 33 33 33 34 29 24 20 17 20 19 16 14 15
27 26 22 14 13 22 15 20 17 18 19 12 11 9 9 13 11 12 14 16 11 16 17 17 14 19 16 24 19 23 23 19 27 33 27 26 26 35 38 31 28 22 23 23 22 18 17 18 16
29 27 19 17 17 19 18 21 18 16 13 14 17 14 6 8 9 7 9 12 13 15 15 15 15 17 16 17 20 21 24 26 26 29 29 27 29 38 38 34 26 25 24 25 22 21 20 21 21
30 23 21 18 19 16 11 10 18 20 14 11 17 18 12 8 5 6 5 7 10 10 12 13 15 18 19 24 25 25 27 25 25 29 29 28 31 32 33 31 27 25 27 28 26 23 20 21 24
29 19 21 21 24 23 18 15 18 17 21 15 14 17 13 9 5 3 3 1 4 8 10 11 13 15 19 21 20 20 20 21 24 25 25 25 27 31 29 26 28 31 32 28 25 22 22 19 22
18 21 21 23 19 8 16 12 19 14 17 15 14 13 16 12 10 8 8 5 4 3 6 8 9 11 13 16 18 20 20 20 21 22 22 25 27 26 26 26 24 27 28 27 26 22 26 26 24
26 24 5 6 6 6 14 11 27 19 14 15 11 10 10 14 11 11 7 5 7 5 4 5 7 6 7 9 11 14 14 15 14 15 17 20 22 21 20 24 26 27 25 25 26 25 25 27 28
31 30 13 6 4 5 10 8 13 6 10 16 17 11 13 12 16 14 10 7 6 9 11 8 6 5 7 8 9 11 13 13 15 16 17 19 20 21 23 26 27 27 25 27 26 26 26 30 35
37 31 25 29 5 2 7 12 22 16 14 10 12 18 16 14 17 16 17 13 13 12 10 11 13 13 12 12 14 14 14 14 14 15 18 20 22 24 27 29 31 29 29 27 26 26 25 25 25
41 22 19 18 7 5 5 11 16 8 5 9 11 11 10 9 13 15 16 16 16 17 17 15 15 21 19 18 17 17 17 17 17 20 21 22 24 27 29 31 33 33 33 29 26 29 29 27 28
38 42 29 21 26 8 2 8 23 13 7 14 14 12 10 9 8 7 11 11 11 18 21 21 18 17 23 23 24 23 22 22 24 25 27 28 29 30 31 33 36 38 40 33 21 26 28 29 28
29 41 41 27 8 12 20 20 4 10 13 17 12 14 13 11 9 11 10 8 7 8 12 19 20 19 17 19 19 20 22 23 25 26 29 31 34 35 39 39 38 39 33 30 32 28 30 31 30

GFSSGP_700_spd_090.txt.gz
Wind_Speed
8 7 3 3 5 6 8 7 13 14 10 11 13 13 14 13 15 14 12 13 11 13 16 27 26 24 25 23 19 20 25 21 27 25 22 19 17 15 13 13 14 13 11 12 11 11 10 9 8
8 4 1 2 4 5 9 13 14 6 7 12 11 15 15 16 16 18 14 19 21 15 21 19 26 26 27 25 20 21 25 18 19 24 23 21 20 18 16 14 13 11 11 13 14 12 11 8 7
6 3 2 0 1 6 10 11 10 6 5 8 12 17 19 21 19 22 23 16 24 19 24 25 26 26 25 25 23 24 29 25 23 24 25 23 21 19 17 16 16 14 13 13 13 12 11 9 8
5 4 4 3 3 7 5 5 7 5 10 11 14 19 23 22 22 23 24 26 24 27 27 24 30 31 28 25 24 25 26 36 25 22 24 24 22 20 19 18 17 16 16 15 14 11 10 9 8
4 4 6 5 5 7 1 3 5 5 12 13 15 20 25 24 21 22 24 17 16 23 29 31 29 35 23 25 24 25 23 32 28 25 25 25 21 21 21 21 20 18 17 17 15 14 12 10 8
5 8 6 8 3 5 8 6 6 8 12 13 16 21 24 23 22 26 26 19 16 19 25 26 23 40 29 32 30 34 27 32 31 28 28 25 22 23 23 22 21 20 19 17 17 15 13 10 8
7 9 10 11 7 3 10 14 11 13 13 12 15 22 25 24 23 22 12 10 16 17 19 21 24 30 33 36 38 43 37 26 42 35 32 24 25 26 24 24 24 22 19 17 15 13 10 9 9
10 9 11 13 9 10 19 19 15 15 14 11 17 20 26 25 22 18 13 9 6 9 16 18 24 31 37 47 45 42 37 29 40 35 33 27 28 29 27 27 25 22 20 18 16 15 14 11 8
14 14 13 13 10 19 17 19 15 15 16 15 20 23 28 27 22 19 15 12 8 10 15 15 19 28 37 45 44 57 49 35 45 42 37 29 33 32 30 27 26 23 20 17 17 14 10 7 5
18 17 13 9 13 19 16 16 16 16 16 20 23 25 27 25 21 21 20 16 15 17 18 21 19 22 27 41 44 51 47 46 42 41 34 34 37 33 32 31 28 23 21 19 14 10 8 5 3
20 19 12 14 15 17 18 17 16 17 19 22 25 25 26 26 25 25 22 25 18 19 20 19 21 29 33 37 44 50 51 58 53 44 35 38 39 38 37 35 30 25 21 16 11 9 8 4 2
26 23 20 21 20 18 18 19 21 21 23 28 27 23 25 22 24 29 33 22 20 19 18 17 25 31 33 47 46 49 58 54 46 45 39 43 42 40 38 32 28 23 19 14 11 11 7 4 5
23 22 25 26 25 22 20 22 26 29 26 23 21 23 22 22 24 31 21 7 13 11 12 15 15 20 21 32 57 52 49 47 42 40 41 42 42 40 36 33 30 21 16 12 12 11 7 6 8
21 21 27 30 29 26 26 26 29 22 20 15 18 20 21 21 24 30 16 4 8 9 7 11 7 14 3 40 50 55 49 30 44 42 40 41 39 39 39 33 27 20 15 12 12 14 10 9 9
24 28 30 29 28 24 19 23 25 22 15 18 20 20 17 19 24 27 19 5 9 9 9 11 6 6 9 42 41 52 48 32 41 41 36 37 39 39 37 36 30 29 20 18 19 15 11 10 10
22 25 26 6 9 8 12 19 16 15 14 18 19 17 16 18 22 23 18 11 14 7 10 10 7 7 8 21 38 39 36 42 45 41 41 44 39 36 38 29 27 25 21 18 22 17 16 11 12
26 27 24 16 13 11 11 18 12 19 22 21 20 15 14 17 20 20 19 10 10 11 10 6 8 11 15 19 29 32 35 42 42 41 46 42 49 38 30 25 25 29 22 22 22 19 16 13 13
24 23 25 23 15 12 18 19 14 13 18 20 20 14 10 14 18 18 21 11 16 13 12 15 11 14 20 14 33 29 39 39 37 35 40 43 40 37 33 30 30 30 29 24 22 21 17 14 13
26 20 16 15 16 21 18 21 13 14 19 21 17 9 9 11 16 16 18 13 21 15 18 18 15 13 14 16 24 34 36 27 38 45 49 48 39 48 40 36 34 32 31 24 23 22 17 15 15
31 28 28 23 16 22 19 22 17 15 16 17 17 13 9 9 12 12 14 15 10 12 11 21 22 22 17 14 15 32 39 33 47 45 46 44 32 39 41 42 35 30 30 26 25 19 18 19 19
34 33 30 26 20 23 23 22 18 13 17 20 17 14 12 6 9 9 11 11 13 5 6 12 17 23 20 16 17 24 29 37 47 33 32 35 29 34 45 32 31 32 30 26 23 20 21 23 23
34 33 27 24 26 21 19 9 25 20 21 24 16 10 10 8 7 4 6 7 8 11 12 10 7 11 17 18 19 30 21 26 25 28 26 35 34 29 34 34 34 34 30 27 24 24 24 25 25
36 35 23 23 21 25 28 16 27 22 26 25 14 10 10 9 6 4 1 3 5 6 10 12 11 11 9 8 17 23 25 23 23 26 29 32 31 33 38 38 38 34 33 27 28 29 28 28 28
12 19 19 19 23 11 23 18 15 15 21 7 10 12 12 12 11 9 6 1 1 5 7 10 10 12 13 13 13 14 14 17 20 21 26 29 29 29 29 34 36 32 31 32 32 34 34 31 30
31 25 2 3 5 6 9 14 26 23 23 21 12 6 11 15 13 12 5 2 2 3 6 8 9 9 10 12 12 12 12 13 14 16 18 21 22 22 24 27 30 30 33 33 32 31 32 35 33
23 34 12 6 4 4 9 9 13 11 10 11 13 12 12 18 16 14 9 6 3 3 4 5 8 10 10 11 11 11 11 12 14 16 18 17 17 18 21 24 27 31 33 33 31 33 37 37 34
28 23 31 23 8 5 9 12 15 20 15 20 17 15 16 14 16 14 13 10 9 6 5 7 9 9 11 13 15 14 13 13 15 15 16 17 19 21 23 26 28 31 31 33 37 39 39 38 35
36 26 18 14 5 5 5 8 11 6 6 10 9 12 18 15 12 16 15 13 12 12 11 10 11 15 16 15 15 16 17 17 16 19 20 21 22 24 26 28 31 34 38 40 42 44 42 41 39
26 34 29 15 24 5 2 8 21 19 13 11 8 10 11 10 8 9 11 10 12 14 15 18 16 13 15 19 21 20 20 21 22 22 21 22 23 24 27 31 35 39 41 44 46 49 49 50 36
13 28 36 27 11 8 17 22 9 16 12 16 11 16 13 11 11 8 6 10 13 11 10 9 14 17 17 17 22 25 22 29 28 26 25 27 28 30 31 34 37 41 43 49 50 50 36 43 26

GFSSGP_700_spd_093.txt.gz
Wind_Speed
9 7 3 4 3 4 3 2 5 6 4 8 8 10 13 13 13 14 16 16 11 11 16 28 29 27 28 21 21 20 24 17 20 18 17 20 15 14 10 9 11 11 9 11 12 13 13 11 10
7 5 1 5 3 2 3 5 6 2 3 6 10 11 15 15 18 15 14 15 19 19 20 25 30 23 24 25 27 24 22 20 18 18 20 23 18 14 12 10 11 10 10 11 11 11 12 11 9
5 4 3 5 2 2 2 3 4 3 4 10 12 15 15 17 20 20 19 20 21 19 23 29 33 28 30 30 30 22 21 24 23 23 23 19 17 14 14 11 13 13 13 14 13 11 9 9 7
4 5 5 5 2 1 1 1 2 4 7 11 13 16 16 18 21 21 24 24 28 24 28 39 40 34 32 33 29 22 23 29 28 23 28 19 18 17 15 14 16 15 14 14 12 10 9 9 8
6 6 8 8 2 1 2 4 4 6 9 12 15 17 17 16 21 23 24 27 28 29 32 52 45 37 34 29 24 21 24 30 28 24 28 20 19 19 18 18 17 15 17 14 11 11 10 9 7
8 8 7 11 6 1 3 7 7 11 12 14 16 17 19 19 23 24 23 23 22 25 26 31 37 38 39 31 24 26 28 27 28 26 24 23 20 19 19 19 17 17 16 14 12 12 10 8 6
9 9 11 11 11 6 4 8 10 14 14 15 18 20 20 21 23 23 22 22 20 21 19 24 34 40 41 36 35 30 31 28 29 28 25 22 23 20 21 19 19 20 18 17 15 13 10 8 8
10 10 11 14 14 11 10 11 11 13 15 16 18 19 21 21 23 21 20 18 18 9 19 18 15 14 25 23 33 35 37 30 27 30 28 29 26 22 21 22 21 22 21 18 16 14 12 9 7
13 15 15 16 14 9 10 12 11 14 16 16 20 20 22 23 23 19 19 19 17 11 8 17 21 20 20 29 36 43 40 31 35 30 36 36 31 26 24 24 24 24 21 19 17 13 11 8 5
19 19 15 14 12 11 11 13 15 16 17 20 21 20 23 22 23 19 22 20 20 18 17 17 18 17 25 33 38 48 43 41 40 36 42 45 32 27 27 27 27 24 22 20 17 14 11 8 7
22 23 14 13 16 17 16 17 16 17 21 23 24 24 22 23 22 22 24 30 31 28 21 17 20 20 25 30 42 43 46 41 41 40 45 40 38 32 32 31 31 27 24 22 18 14 10 8 5
24 23 20 18 19 23 22 23 24 22 23 27 25 21 19 22 21 24 29 34 22 16 22 26 24 24 27 31 41 43 45 39 47 45 44 48 41 36 35 33 31 27 24 21 17 15 9 6 7
26 24 24 24 26 29 26 26 26 25 21 24 22 17 18 21 20 23 27 27 16 10 12 20 26 29 35 39 44 45 35 45 44 42 45 41 42 37 36 35 30 27 25 19 15 13 8 9 6
26 25 22 24 25 28 29 29 29 11 21 17 17 18 18 19 19 22 25 22 15 10 10 16 18 21 25 35 46 53 45 50 46 54 51 42 40 38 36 35 30 28 22 17 17 13 10 11 11
26 28 26 26 22 27 23 23 20 14 12 12 15 18 18 18 17 20 22 21 11 13 11 10 13 14 25 24 31 52 52 42 44 57 47 47 40 39 37 34 32 27 23 19 17 12 9 15 12
19 22 24 18 11 12 9 18 11 12 13 11 16 19 18 16 17 19 22 20 10 10 11 12 11 10 8 9 14 47 48 41 46 52 47 41 39 38 37 36 29 27 25 16 13 13 15 18 13
27 22 22 20 17 12 13 19 11 15 14 14 16 19 15 13 16 19 21 20 12 11 14 12 11 7 3 18 9 33 41 35 36 41 42 41 41 39 37 31 32 28 25 21 22 18 19 17 13
22 26 25 21 15 15 16 17 16 15 14 12 15 16 13 11 15 18 21 23 13 13 12 12 9 4 6 14 23 36 42 27 25 44 41 39 40 36 34 34 30 26 21 21 22 21 21 17 17
19 20 20 17 12 18 21 20 18 15 15 13 15 15 12 10 13 16 19 23 8 12 15 9 11 9 8 9 13 27 33 30 27 37 42 42 47 45 39 35 33 28 25 30 25 23 22 20 18
31 29 33 29 25 20 20 22 17 16 18 15 15 14 12 14 9 12 14 16 2 14 14 14 14 14 13 17 17 19 24 34 36 37 37 36 41 47 50 44 36 33 31 31 31 24 23 21 21
31 32 34 33 26 28 24 25 17 15 13 17 18 18 16 13 8 8 10 10 8 5 15 13 23 15 16 15 17 23 25 34 28 33 37 40 39 35 41 37 40 39 33 33 25 26 26 23 23
36 35 33 31 23 15 11 11 22 24 22 16 15 15 12 12 9 6 6 7 6 7 7 13 18 19 21 19 16 15 22 33 17 26 32 33 41 40 36 48 52 45 35 30 25 27 27 26 25
28 26 26 23 23 24 17 10 15 10 23 14 15 14 9 12 11 7 4 1 3 6 7 8 11 11 19 23 16 16 22 15 22 25 28 33 32 45 33 32 41 40 34 28 29 29 30 29 28
12 12 13 12 14 11 19 14 14 13 10 10 2 9 13 15 14 12 6 3 2 4 6 7 8 9 10 11 14 22 23 23 21 23 30 23 24 24 28 32 36 30 33 31 29 30 31 32 32
29 13 3 4 6 7 12 14 24 14 21 15 13 10 11 18 17 14 8 5 4 3 4 5 7 8 9 11 12 14 17 21 19 19 22 25 26 29 31 33 32 32 35 32 34 36 32 38 38
20 30 11 6 5 4 11 9 13 9 11 9 7 9 11 17 20 16 12 9 8 6 4 4 5 6 7 8 9 11 12 14 15 17 20 19 18 20 23 21 25 32 38 38 38 37 37 40 42
20 22 24 20 14 5 7 8 8 10 21 18 13 14 14 17 20 18 16 11 8 6 6 6 6 6 7 7 7 8 9 11 12 14 15 16 17 20 19 21 24 30 35 36 37 39 40 45 45
29 16 10 15 6 10 7 10 10 2 6 8 11 10 15 20 19 20 20 16 11 11 10 9 10 11 11 12 12 10 9 9 10 12 14 15 17 19 21 23 25 27 30 33 38 41 45 49 48
17 30 21 11 18 7 7 7 13 12 6 12 9 8 11 20 17 16 17 16 15 14 15 15 14 13 16 18 17 16 16 15 16 16 16 17 20 21 24 26 28 31 35 38 43 47 51 53 55
8 12 28 24 12 9 17 21 9 9 5 14 11 11 11 10 14 14 15 17 14 12 15 14 13 15 17 15 19 22 21 20 22 22 22 24 25 25 26 29 33 35 39 42 48 52 51 53 54

GFSSGP_700_spd_096.txt.gz
Wind_Speed
8 5 2 5 1 4 4 4 5 5 4 4 5 6 8 10 9 13 17 15 13 10 14 18 25 28 26 22 23 19 24 17 18 15 15 13 13 7 4 4 9 10 10 10 10 11 12 11 11
7 4 1 7 4 9 4 5 3 5 5 4 8 10 13 14 13 19 18 15 15 15 15 19 26 31 30 26 25 21 24 20 17 18 22 16 12 12 8 7 10 11 9 10 12 12 11 10 9
5 3 3 5 7 7 5 5 5 4 3 6 10 12 14 12 15 17 19 19 19 18 21 24 28 36 33 32 30 26 26 27 20 21 19 15 12 14 11 8 10 11 11 12 13 12 11 10 10
5 4 6 8 9 8 7 6 5 4 7 8 12 15 18 14 17 19 21 20 20 23 25 26 29 40 41 31 33 31 29 26 23 23 16 17 14 14 12 10 10 13 13 14 13 12 11 10 9
6 7 8 12 11 9 9 7 9 7 10 11 14 15 20 17 17 20 22 22 21 25 27 29 39 48 44 38 37 34 27 25 27 25 23 15 16 14 13 10 13 15 15 14 13 11 11 10 8
7 8 9 12 12 11 8 7 11 12 13 15 17 18 19 18 19 21 22 22 21 25 29 26 36 43 35 41 39 35 27 27 30 27 23 21 15 14 13 12 15 15 15 15 14 14 12 9 7
9 9 12 12 13 14 11 12 8 13 14 16 18 20 18 23 21 23 24 22 20 23 26 22 27 46 41 44 38 34 29 30 31 30 25 20 17 13 13 13 17 17 19 18 16 14 12 9 7
11 10 13 12 14 17 13 14 11 11 13 16 17 19 19 23 24 24 24 20 18 18 20 20 20 13 46 38 39 39 36 33 30 29 28 16 20 20 13 14 18 20 19 17 16 14 10 9 6
15 13 14 14 14 16 15 16 13 15 16 21 18 19 23 23 24 22 22 21 20 16 15 19 16 13 29 30 30 41 39 39 31 30 28 22 18 21 15 18 20 21 20 18 16 14 11 7 5
19 16 14 14 14 15 17 16 14 17 18 21 21 25 23 23 21 23 22 21 22 24 22 17 13 10 18 18 36 40 31 35 35 34 32 29 24 26 22 22 23 23 22 20 17 14 11 9 6
17 22 15 16 13 15 20 19 18 18 22 16 20 22 25 18 20 23 23 23 24 23 26 23 17 19 15 22 32 45 40 39 40 35 35 31 30 32 23 26 28 28 25 23 20 15 12 10 6
22 21 21 18 18 21 22 22 23 22 24 21 22 22 17 17 20 21 24 26 26 21 13 22 22 21 20 20 30 36 38 42 41 41 39 34 35 37 29 28 29 29 28 24 18 15 12 10 8
25 21 22 21 22 25 25 27 25 27 21 22 22 16 15 17 20 21 23 27 26 16 11 20 26 26 26 20 23 31 36 43 41 40 40 34 38 40 32 30 31 31 28 23 19 17 13 12 9
14 18 21 20 21 21 23 25 22 18 20 20 17 15 14 17 20 22 25 26 26 15 12 14 25 29 29 32 28 33 41 46 51 44 37 40 39 38 38 31 32 31 27 24 20 16 14 11 8
25 24 22 23 23 21 19 26 25 12 14 15 15 14 15 17 18 21 24 25 25 15 13 13 14 18 25 31 35 40 39 37 47 50 40 41 45 40 43 34 33 32 28 25 21 17 14 12 7
17 18 21 16 13 15 14 17 8 11 13 14 16 16 18 15 17 17 22 25 24 17 11 14 12 17 21 26 34 40 48 55 44 45 47 43 48 43 43 38 35 34 29 25 19 18 17 13 11
22 23 20 16 15 14 17 18 14 14 15 14 17 16 16 15 17 16 20 24 26 17 13 14 15 13 18 18 20 19 48 50 48 41 46 39 47 42 36 38 36 33 32 26 23 20 15 15 15
24 25 21 21 12 12 17 22 21 16 18 17 15 14 15 15 17 15 19 24 27 13 13 14 13 10 6 13 13 8 34 50 53 46 42 46 47 38 37 39 35 34 32 28 28 22 18 19 23
24 19 19 17 12 13 16 22 23 20 18 17 17 15 11 13 18 14 17 21 25 5 11 10 11 8 2 7 9 15 32 42 42 39 47 39 41 35 42 36 37 36 32 27 25 20 18 23 20
30 26 24 22 19 20 23 24 20 23 22 21 20 19 15 13 16 13 14 17 18 3 10 12 10 8 6 7 12 21 23 25 36 42 40 38 38 41 38 38 35 36 32 27 26 25 23 22 21
31 31 27 26 19 21 23 28 26 22 22 22 21 22 19 17 16 13 10 12 11 7 9 11 14 8 7 7 8 18 23 27 28 37 38 38 40 44 40 39 38 38 33 30 29 29 30 23 24
30 24 26 23 20 19 10 17 17 18 23 22 22 22 15 14 15 14 8 7 7 6 2 11 15 15 9 13 9 12 14 13 22 30 28 38 36 44 51 44 43 40 33 37 36 34 31 26 26
23 17 22 20 21 23 25 17 18 16 17 14 16 18 16 11 14 14 8 5 3 2 4 2 5 14 20 20 20 18 12 19 16 21 23 27 32 35 42 47 51 45 42 45 43 35 31 27 28
14 13 11 10 13 18 24 20 16 20 14 6 7 5 12 15 16 17 11 8 2 1 3 5 5 3 9 19 20 18 17 21 25 17 24 21 34 28 40 33 42 40 42 43 44 35 32 30 29
17 13 8 9 9 8 10 17 25 9 13 14 12 14 16 16 19 20 13 11 8 4 5 6 6 6 7 6 13 17 18 22 22 17 26 24 24 25 24 24 27 27 30 33 36 38 34 33 35
22 25 12 9 10 8 14 11 18 11 11 12 9 7 12 15 18 20 14 14 12 9 6 6 7 8 7 7 9 11 15 18 22 22 24 24 28 27 25 21 26 31 31 26 31 35 37 38 38
18 27 26 25 19 9 12 10 13 13 12 11 15 11 14 16 18 21 18 14 12 12 10 8 6 8 8 8 8 10 12 13 13 16 18 20 22 25 28 26 27 28 28 33 38 40 40 40 40
27 10 14 20 9 15 15 18 12 11 11 7 9 10 14 17 21 23 21 17 13 13 12 11 11 9 8 8 9 9 9 10 11 11 11 12 14 18 21 22 23 24 26 31 35 37 37 41 44
20 27 19 14 22 11 11 12 12 18 15 8 10 12 14 18 24 23 24 22 18 15 15 13 12 12 13 12 12 11 11 10 10 10 11 12 14 15 17 18 20 22 24 26 31 34 38 43 47
10 11 24 27 22 19 23 22 3 11 9 8 5 7 9 12 22 21 21 24 20 18 17 17 16 16 15 16 19 17 16 16 15 14 13 14 15 16 18 20 23 25 28 30 34 37 39 44 49

GFSSGP_700_spd_099.txt.gz
Wind_Speed
9 7 3 1 5 7 14 6 8 8 7 7 8 9 11 12 13 11 17 19 14 12 15 10 15 19 24 25 16 14 17 18 20 13 11 14 9 6 5 4 6 7 9 9 10 10 10 11 10
8 4 1 3 10 19 6 6 8 8 10 11 10 11 11 13 14 11 10 13 14 13 13 12 12 22 26 29 24 20 25 20 22 18 17 16 11 8 4 5 5 8 8 9 9 11 12 11 9
7 3 4 11 16 18 10 4 7 9 9 9 9 10 12 9 12 11 16 17 17 16 14 17 19 20 30 34 32 27 29 27 23 17 21 18 13 9 7 6 6 8 9 11 11 13 13 11 10
7 4 7 11 16 12 12 8 9 9 10 10 9 11 10 13 10 17 19 18 19 18 17 21 19 22 30 40 40 33 32 30 25 20 20 19 18 14 9 7 7 10 11 11 13 13 12 11 9
7 6 15 20 17 15 11 11 10 9 10 12 13 14 14 17 15 20 19 21 20 20 20 21 22 24 32 46 48 40 36 32 26 25 23 18 14 12 10 7 7 13 11 12 13 12 11 11 10
9 9 17 19 15 13 13 12 11 11 13 14 16 15 17 18 20 23 21 23 21 20 24 22 21 26 30 49 59 45 39 35 29 25 26 24 15 13 11 9 10 11 12 14 13 12 12 11 9
14 15 22 21 18 16 14 14 11 12 15 16 16 17 15 19 19 25 24 24 23 22 24 25 25 27 33 39 77 49 44 37 31 30 28 24 15 14 9 10 11 12 13 15 14 14 12 11 9
14 17 23 22 18 17 16 16 12 13 16 15 18 17 12 19 24 28 24 24 26 25 25 29 30 31 33 42 59 32 43 41 36 34 30 24 20 20 13 10 12 14 16 17 16 15 12 10 8
14 19 23 19 17 17 14 16 14 16 17 17 18 20 18 23 23 24 25 25 24 26 28 28 30 29 32 13 42 23 54 47 39 37 32 25 20 27 17 14 18 18 20 18 16 15 12 9 7
20 20 21 17 17 16 15 17 17 17 20 19 19 19 18 24 23 19 22 25 28 29 30 28 25 24 20 10 32 19 47 41 43 39 32 31 21 19 19 19 22 21 20 19 19 15 12 9 6
21 28 21 20 19 17 18 19 19 20 23 19 19 19 19 21 23 18 20 22 25 31 33 28 16 20 9 9 9 20 34 32 41 42 34 32 27 23 22 23 25 25 24 24 20 16 13 10 8
27 26 23 23 21 21 22 21 23 23 25 22 22 20 22 18 21 19 20 21 25 28 32 25 14 20 16 13 13 20 26 32 28 40 36 33 33 30 23 24 27 26 26 23 19 16 14 12 8
27 26 25 23 24 24 24 26 26 27 24 23 23 22 23 19 18 20 17 20 24 27 29 23 14 19 19 17 17 17 25 34 36 42 38 36 33 29 29 28 26 27 26 24 21 19 16 13 11
23 23 25 23 25 25 26 25 24 27 21 22 22 22 21 17 19 21 20 21 23 25 25 20 14 20 22 22 19 22 27 30 39 38 39 34 39 33 31 30 30 30 28 26 23 20 17 13 11
27 28 28 29 26 26 24 28 28 25 21 22 18 18 20 19 21 21 18 23 25 24 21 20 15 18 23 25 27 25 25 24 33 37 42 37 41 34 34 29 32 28 31 29 26 23 18 14 12
22 24 30 25 24 23 23 28 18 14 13 16 15 17 19 21 20 19 18 22 25 26 24 18 17 15 20 26 29 29 33 29 28 35 41 38 39 35 37 37 37 33 30 31 29 22 17 15 12
30 33 28 24 20 16 19 20 13 14 15 17 17 16 18 19 20 20 18 20 24 27 28 16 18 16 18 19 21 27 31 36 36 37 42 46 39 36 37 42 37 33 34 31 27 23 17 15 12
32 30 29 29 23 21 22 26 23 20 20 19 18 18 17 18 18 20 18 20 24 27 23 14 16 17 16 16 20 30 35 37 38 47 51 41 47 38 44 48 43 37 37 34 29 24 20 18 15
31 32 31 23 19 20 23 24 22 22 23 24 21 19 18 18 16 19 18 19 22 24 14 8 9 12 15 12 8 19 35 40 39 45 51 42 44 50 41 47 33 39 36 32 27 24 23 22 18
33 36 36 29 26 22 23 26 27 26 25 24 23 21 20 18 19 19 17 16 18 19 13 10 7 5 12 14 9 6 8 22 41 50 44 39 40 45 47 40 36 38 37 34 29 27 24 24 21
35 36 33 32 28 28 25 31 29 28 28 27 24 21 19 19 20 22 18 14 15 13 13 9 10 8 10 6 5 3 13 13 33 45 45 45 31 44 48 35 37 35 38 33 30 27 24 25 23
33 28 29 30 29 31 25 27 26 20 17 20 21 21 20 18 19 23 17 12 12 9 9 8 11 9 9 4 7 8 24 23 21 24 28 35 47 41 40 35 40 42 40 35 32 30 30 29 28
29 21 23 24 27 27 31 28 24 21 24 23 20 19 21 20 19 20 16 11 9 7 5 5 4 6 10 7 6 12 13 28 25 27 31 36 30 36 33 39 46 52 37 41 38 37 37 39 35
23 19 22 20 23 23 28 29 28 26 20 13 13 14 15 19 20 19 17 13 8 6 3 2 2 2 5 13 15 14 12 12 13 16 28 28 30 32 30 29 42 44 38 42 42 45 46 44 34
23 21 15 15 16 14 22 24 26 18 17 13 13 10 13 14 20 20 19 15 10 7 3 1 1 3 5 1 10 14 15 15 19 21 21 27 28 27 32 31 39 38 46 48 50 44 40 37 38
24 27 19 14 10 12 22 15 24 17 22 18 16 13 15 15 21 20 20 16 13 11 6 4 3 3 5 8 3 7 16 16 23 21 15 20 24 27 31 26 30 33 28 36 38 32 31 38 37
27 30 29 31 26 16 10 15 17 10 12 11 11 11 13 15 19 18 19 18 14 12 10 7 4 3 4 6 7 6 7 11 13 20 22 16 22 19 20 25 23 22 21 26 28 29 29 32 37
29 21 23 29 17 20 21 24 16 11 12 13 10 10 13 15 18 19 20 20 15 11 13 12 9 7 5 6 7 7 7 8 9 11 13 16 19 22 23 24 25 24 22 22 26 28 29 32 35
21 31 24 22 26 15 12 15 11 16 10 9 5 8 13 14 16 20 20 23 19 13 14 12 11 10 9 8 8 8 9 10 9 8 9 10 11 13 14 15 17 19 20 21 25 29 30 32 35
7 22 30 24 22 21 25 22 3 4 7 9 5 5 7 9 14 20 23 25 23 18 13 13 13 12 11 12 13 13 13 13 13 13 12 12 11 12 13 14 16 19 20 22 23 25 27 30 33

GFSSGP_700_spd_102.txt.gz
Wind_Speed
8 7 6 4 6 11 22 14 3 6 5 2 6 5 8 10 10 8 13 18 13 13 14 10 10 10 14 20 21 19 14 17 17 15 12 13 10 9 8 6 9 12 12 11 11 9 10 9 9
7 5 4 2 13 20 21 3 4 4 6 8 8 8 7 9 9 9 16 15 14 13 19 10 10 10 15 22 26 21 15 19 19 20 21 21 15 12 8 7 8 13 12 10 10 9 11 12 12
7 3 6 9 16 21 24 10 5 4 8 10 5 7 10 10 10 12 16 15 16 16 16 16 13 14 16 22 26 29 22 23 22 28 21 19 20 15 6 7 8 13 11 10 10 11 12 13 13
7 6 7 10 15 20 23 10 8 9 9 10 8 10 8 10 14 18 15 15 18 18 17 14 15 15 20 23 29 33 34 27 27 32 19 15 18 15 5 4 8 11 12 12 11 13 12 12 13
6 5 16 20 23 22 16 11 11 10 8 9 13 14 13 16 22 18 21 20 19 19 18 14 18 19 21 21 27 33 40 38 32 29 20 25 30 19 8 5 11 12 13 14 13 12 13 13 12
12 8 16 19 20 19 11 15 10 12 10 12 13 16 17 21 20 21 18 21 24 23 20 19 20 21 19 22 31 33 43 44 36 35 28 23 25 24 13 6 3 7 15 17 15 13 13 13 12
15 15 23 25 25 22 19 15 12 11 12 13 14 12 11 16 17 19 21 29 28 25 24 23 23 26 29 31 31 38 45 39 40 39 32 40 22 15 21 15 11 7 6 13 15 15 14 13 11
16 17 24 25 23 22 17 15 15 16 12 12 13 13 14 20 24 26 28 29 25 25 26 27 27 29 33 35 32 40 47 42 42 42 38 32 25 23 18 15 14 15 14 15 15 15 13 12 10
17 25 29 24 21 18 10 10 19 16 16 16 13 16 20 25 27 27 29 23 23 23 25 28 29 32 32 31 35 46 53 55 50 50 43 35 22 25 18 15 15 18 19 18 16 16 14 12 11
23 30 28 23 21 22 17 16 16 18 18 17 18 16 17 20 25 27 28 26 30 30 26 28 32 30 27 23 19 21 40 48 50 47 44 35 26 20 22 17 19 21 21 20 19 16 14 12 11
24 36 27 26 25 22 19 21 18 21 22 20 20 17 17 21 22 25 24 24 25 28 31 29 31 27 20 16 13 10 21 28 42 54 42 39 29 26 27 22 24 24 24 22 22 19 16 13 10
30 29 31 30 26 27 27 23 23 23 25 22 22 22 19 23 26 30 25 23 24 28 30 28 28 25 13 12 8 15 1 28 55 55 51 34 33 26 28 28 27 25 25 24 21 19 17 14 11
28 30 31 30 30 29 27 29 28 30 25 25 24 22 23 26 28 24 24 21 24 26 28 28 25 22 12 12 7 2 2 39 39 40 40 35 32 28 23 27 25 25 26 24 23 22 18 14 13
27 30 30 31 32 32 31 32 29 30 25 24 23 23 23 28 26 24 24 22 22 25 27 28 23 17 14 11 11 10 9 12 25 42 40 36 33 30 26 27 28 27 27 26 24 22 18 16 14
27 31 32 33 31 32 29 34 33 29 25 22 23 20 23 26 21 23 22 23 22 23 26 29 25 15 14 17 16 15 15 15 24 31 37 38 36 33 30 28 30 30 29 27 27 24 20 18 16
26 28 31 27 28 33 29 41 30 24 22 16 17 20 16 24 24 24 21 19 22 25 27 29 23 13 14 17 19 18 15 18 23 24 33 39 39 36 34 29 33 30 31 30 29 26 21 19 17
28 38 35 34 30 33 29 32 26 24 17 17 17 18 17 21 25 25 25 20 22 23 27 29 16 11 13 15 19 23 21 22 22 23 27 34 42 39 36 31 34 30 32 30 30 26 23 20 18
27 30 31 34 32 28 33 31 25 22 22 22 21 15 16 16 23 25 24 19 21 21 24 23 9 9 12 14 16 18 23 27 30 32 29 28 39 39 43 38 37 32 35 32 32 28 25 20 17
30 32 31 34 35 40 39 36 28 23 23 23 23 24 20 18 20 27 28 20 19 20 21 16 5 10 13 15 15 18 22 30 34 35 36 33 40 40 36 42 42 39 36 37 39 28 27 25 21
31 32 36 36 42 37 40 33 27 26 26 25 24 24 22 19 22 28 28 23 19 18 17 13 6 7 11 13 15 21 24 27 31 41 41 40 36 44 38 41 45 47 43 43 32 30 28 25 22
30 34 33 32 36 43 42 37 34 29 31 29 29 27 23 22 21 28 28 23 19 15 13 10 7 9 11 12 12 9 11 16 33 37 38 34 34 43 42 38 41 39 44 39 34 30 28 25 20
28 29 28 29 32 33 32 25 35 32 32 31 31 26 24 23 21 25 29 22 17 12 11 8 7 6 9 10 9 5 3 5 10 30 42 43 35 39 36 43 40 39 40 33 34 30 31 26 26
31 22 24 25 31 30 37 29 33 28 22 22 20 21 22 21 23 27 31 21 16 10 10 5 5 5 6 7 7 3 3 5 5 23 36 33 40 34 28 33 40 34 32 37 37 45 34 35 30
29 24 27 26 30 22 32 34 33 30 30 27 20 22 20 19 26 24 30 19 15 10 9 4 3 4 4 3 9 4 10 10 12 19 23 29 30 30 37 44 42 35 31 37 49 41 36 31 31
19 19 16 17 18 15 26 32 28 24 28 29 19 16 16 17 20 25 29 17 15 11 9 5 1 2 4 1 3 8 9 16 11 15 24 23 29 28 36 34 32 32 31 39 37 39 35 35 39
25 26 14 10 12 8 21 11 27 27 21 20 12 11 11 15 22 26 23 16 15 13 10 6 2 1 4 5 5 6 12 17 14 13 17 26 22 18 26 27 21 21 30 32 28 26 31 39 45
32 31 29 29 31 19 14 23 24 12 13 20 14 15 16 16 16 20 21 18 16 13 11 8 6 3 3 4 7 8 8 12 16 19 14 17 17 22 18 17 20 18 24 25 29 25 33 41 41
31 26 21 25 10 10 16 24 14 7 5 16 13 13 15 16 18 19 21 16 17 14 11 12 8 6 4 5 6 8 10 11 12 18 19 17 15 20 19 18 24 20 19 25 21 24 27 33 36
20 29 27 22 29 12 9 11 6 15 19 12 9 2 7 14 18 17 20 17 19 16 9 12 11 8 6 4 5 5 7 10 11 13 13 13 16 19 20 19 19 23 22 21 22 23 24 30 29
7 19 28 24 22 21 27 27 21 3 6 7 4 3 2 10 7 15 20 20 21 19 14 11 12 10 8 7 7 7 7 7 9 11 12 12 12 12 13 15 15 17 18 19 20 21 20 23 25

GFSSGP_700_spd_105.txt.gz
Wind_Speed
4 6 6 5 4 5 16 19 10 4 2 5 9 11 10 11 12 13 8 15 18 23 24 19 15 11 10 11 19 18 14 11 17 20 18 16 13 11 9 9 13 16 16 15 15 13 11 12 10
4 5 6 2 6 11 14 5 3 1 1 5 9 13 7 6 13 12 13 20 24 24 20 18 14 12 12 15 21 24 19 16 22 22 21 20 19 13 11 10 13 16 16 15 14 14 13 13 13
5 6 6 2 6 16 11 14 3 2 8 12 16 7 7 10 17 20 19 16 22 21 20 15 12 14 13 15 19 25 22 19 28 25 24 24 22 16 13 13 13 16 17 15 16 16 15 13 12
8 6 5 11 15 11 14 14 10 9 8 10 4 7 8 13 12 15 17 19 19 19 21 17 12 13 14 17 21 26 27 27 31 27 29 25 16 28 17 14 16 15 16 17 18 19 16 14 14
11 9 11 14 16 15 16 22 21 17 14 6 8 14 17 17 22 14 17 19 20 22 23 17 16 15 16 19 22 28 31 32 31 33 35 34 31 32 22 15 16 17 16 19 19 18 16 13 14
17 9 12 19 19 20 25 23 22 18 14 10 13 16 16 17 18 17 19 19 21 28 27 21 19 19 19 19 21 24 28 33 34 37 34 31 27 29 18 16 16 19 19 19 18 18 15 15 14
18 13 20 24 27 28 17 21 20 15 13 11 13 16 17 18 18 16 17 21 25 27 23 21 20 20 21 23 26 30 33 34 37 48 34 36 31 31 14 18 16 19 22 21 19 20 19 17 15
16 15 21 22 24 21 7 18 12 13 11 14 14 13 19 23 25 23 23 25 27 24 21 21 20 21 24 27 31 34 37 38 43 47 48 42 32 26 25 16 15 16 20 23 20 19 18 17 16
12 25 31 27 22 19 16 20 11 16 18 17 17 18 18 24 28 25 24 25 29 24 21 22 21 24 26 29 30 32 34 40 45 51 43 44 36 26 29 23 20 19 19 18 13 17 17 17 14
20 29 33 25 25 27 29 24 19 15 16 19 17 18 18 26 22 21 23 31 33 27 25 22 22 26 27 27 21 23 28 42 49 51 46 47 40 28 28 25 25 25 24 29 22 21 20 16 13
21 33 26 28 26 29 30 26 23 22 24 17 18 18 21 21 24 23 30 35 31 29 28 25 27 28 27 18 14 21 32 26 56 51 47 43 39 34 30 30 29 28 27 26 27 24 20 18 14
26 27 30 30 27 30 34 33 30 26 24 25 25 23 20 26 28 30 30 32 28 28 29 25 27 29 27 13 9 13 12 15 38 57 51 47 43 40 35 30 27 29 29 28 27 24 21 18 15
27 28 28 28 30 34 34 34 36 33 28 30 30 29 28 26 28 30 35 34 27 26 27 25 27 29 25 12 6 9 13 11 17 47 60 46 38 37 34 31 29 31 31 29 28 26 22 19 16
24 30 34 36 36 33 27 34 33 36 30 31 28 27 24 25 31 33 30 25 22 26 25 25 27 28 22 10 6 5 6 18 31 38 46 54 41 32 31 35 31 31 30 30 28 26 23 19 17
26 32 37 38 36 37 28 38 35 33 30 32 29 27 27 28 32 31 24 20 22 22 22 25 28 29 16 11 7 5 3 6 14 33 42 43 35 34 29 31 30 30 31 31 30 28 25 21 20
29 30 37 32 26 27 23 41 36 32 29 28 24 25 26 28 29 29 26 22 24 22 23 25 29 24 10 12 10 7 5 7 17 30 46 39 39 34 30 26 31 30 33 33 32 30 25 23 22
31 39 40 45 36 32 28 39 37 32 30 30 28 24 22 24 24 30 29 22 24 21 23 24 26 14 8 11 14 14 11 9 17 26 31 35 37 37 34 31 28 32 33 34 33 31 28 25 22
33 28 33 31 24 23 30 39 37 31 26 31 22 25 24 19 22 26 25 23 24 21 22 24 20 5 8 10 12 15 19 17 17 22 26 25 35 35 34 35 33 32 36 34 34 32 28 24 22
34 32 33 34 30 28 29 38 43 37 24 29 30 28 28 27 24 27 28 23 23 22 23 22 16 3 8 10 11 13 17 20 25 28 30 32 35 38 39 40 36 34 37 37 35 34 30 28 26
30 34 37 37 27 31 36 47 49 37 24 25 31 26 22 23 28 30 30 24 20 20 22 20 14 7 7 10 12 13 17 20 22 28 34 35 33 31 40 42 40 39 39 38 37 36 33 29 29
30 34 30 32 28 31 33 44 41 35 27 31 30 32 28 27 28 28 28 23 20 20 20 18 13 7 8 9 13 16 21 26 34 35 37 40 39 35 40 43 43 39 40 40 35 38 32 31 30
33 29 30 32 31 24 18 28 38 35 31 25 29 30 25 32 35 26 26 21 22 22 17 15 12 8 7 10 14 13 18 19 22 30 43 45 43 35 39 40 44 42 38 42 39 33 35 30 28
32 25 25 22 25 25 27 29 32 27 31 35 29 24 22 33 36 32 29 29 27 21 17 12 9 8 6 8 13 12 13 16 15 26 42 49 46 41 44 42 42 37 40 42 38 40 42 35 35
27 31 28 29 24 17 23 25 26 33 35 31 27 19 21 21 34 32 32 28 27 18 16 10 7 6 6 6 11 9 9 9 8 22 32 39 38 35 41 44 47 33 37 40 40 40 41 40 44
24 20 5 4 7 12 18 24 30 32 27 26 25 25 24 30 33 28 33 31 20 17 15 9 5 4 4 4 6 7 6 9 6 12 26 31 32 36 35 44 34 26 33 42 36 41 45 44 39
33 25 13 7 4 10 18 11 14 24 29 33 33 23 22 25 22 26 28 24 22 17 15 10 5 2 2 2 4 5 8 9 7 12 14 17 23 21 39 31 37 33 35 24 28 39 36 41 34
30 25 30 25 24 13 11 24 32 22 23 17 19 21 17 16 18 20 20 19 17 16 13 10 7 4 0 1 3 5 7 11 10 9 19 23 21 22 24 30 29 31 20 24 24 30 27 28 28
22 27 21 19 4 6 9 20 20 25 14 8 11 14 3 20 19 20 18 15 15 18 13 12 11 7 4 3 3 6 8 9 11 14 11 18 21 18 17 22 18 15 18 19 20 22 25 21 20
9 17 23 16 15 4 3 6 2 7 18 16 9 16 8 8 24 25 18 9 13 19 15 11 13 9 7 5 4 6 6 8 8 12 15 15 16 20 21 21 19 18 14 15 17 17 19 22 24
17 19 13 21 15 17 20 22 25 25 16 10 8 14 3 4 22 26 19 12 14 20 18 10 14 12 10 8 6 4 5 6 8 10 11 11 13 18 19 18 18 21 22 20 19 17 18 21 21

GFSSGP_700_spd_108.txt.gz
Wind_Speed
7 5 5 6 5 4 6 6 6 5 12 14 9 11 13 12 16 14 15 15 16 19 22 23 18 15 12 13 15 20 21 19 17 17 20 22 22 20 18 17 18 18 17 16 16 16 14 13 13
7 6 5 8 5 6 1 9 2 9 9 5 8 13 15 10 9 12 16 18 21 21 24 17 16 14 12 15 16 21 20 19 18 22 22 23 22 21 19 18 17 17 18 19 17 16 15 14 14
8 8 7 7 11 9 4 8 3 8 9 11 13 13 8 8 8 11 16 16 17 22 19 17 16 14 14 14 19 22 24 24 17 22 25 25 21 19 19 17 17 18 18 18 18 17 17 16 15
10 11 9 13 14 10 9 10 11 12 13 15 11 13 14 16 14 11 14 18 24 19 19 18 20 15 14 17 17 22 25 30 23 27 28 27 26 21 17 18 18 19 18 18 18 18 18 17 15
14 13 14 16 15 9 9 11 21 22 24 18 12 8 9 15 15 15 20 22 18 19 22 23 20 15 15 17 20 22 26 30 30 32 36 34 25 28 24 23 21 22 20 19 20 20 19 16 14
18 17 16 17 18 14 10 10 16 24 24 19 12 11 14 15 17 17 16 19 19 20 22 22 19 17 19 20 21 24 24 29 33 35 42 39 30 29 18 30 28 24 22 20 20 19 19 18 15
20 21 22 19 21 18 10 9 15 23 20 16 16 17 18 16 17 18 21 20 19 20 24 21 20 19 20 21 22 24 25 28 33 38 40 33 30 27 23 28 26 25 25 23 21 20 21 19 15
21 23 25 25 24 15 9 4 7 10 17 17 17 16 20 21 19 17 20 21 20 23 23 22 22 23 22 22 24 26 29 31 34 38 38 39 34 35 39 19 32 24 26 25 22 21 20 17 18
21 28 31 29 24 16 12 13 7 11 20 18 18 21 18 15 20 22 23 22 22 23 26 22 23 24 24 25 27 31 35 36 40 41 40 40 38 37 37 24 27 30 27 28 25 22 19 16 16
29 36 37 26 22 22 20 20 20 20 18 19 19 21 22 21 23 23 17 18 20 26 31 22 22 24 26 26 28 32 33 36 43 43 41 41 41 36 28 33 28 26 30 26 25 23 21 19 16
32 39 32 28 23 22 24 26 21 26 27 21 21 18 23 20 18 21 20 19 22 33 32 24 24 25 27 28 28 27 24 28 35 39 43 41 49 40 39 37 35 32 29 32 28 25 18 18 16
34 33 29 27 22 23 26 26 34 31 29 26 25 23 26 28 25 23 22 23 32 33 30 24 25 28 27 30 28 22 20 20 36 48 46 48 41 33 41 41 36 34 33 33 32 21 27 20 18
31 30 27 23 23 26 33 37 35 38 35 28 31 31 32 32 32 28 31 35 32 24 24 24 25 29 29 29 27 19 18 23 25 31 44 48 45 45 41 42 37 35 33 31 28 31 28 23 21
25 27 30 30 29 30 37 39 35 35 31 33 32 34 32 30 31 31 33 32 28 22 21 22 25 30 31 31 22 17 15 10 13 14 50 46 49 48 47 43 38 35 33 32 32 32 27 24 21
29 33 34 34 32 33 34 46 42 36 33 33 34 30 31 28 31 34 37 32 27 25 22 21 25 31 32 29 18 14 10 13 19 18 44 47 50 51 43 40 39 36 35 34 34 34 30 25 22
28 32 39 32 27 27 27 53 38 38 39 41 34 31 26 25 32 34 35 30 30 25 20 23 25 31 32 19 15 11 7 8 11 26 44 47 51 49 44 39 37 36 36 36 36 34 30 27 23
29 38 36 37 27 24 24 45 41 36 35 39 34 31 24 27 25 25 25 30 29 24 20 23 25 31 26 12 13 11 6 1 2 27 31 37 49 43 39 41 36 35 36 37 37 35 31 27 25
30 32 33 35 27 19 22 32 32 33 35 41 37 31 22 18 23 21 23 29 21 21 19 22 23 28 18 11 12 13 10 8 9 11 30 45 47 39 36 36 35 34 36 38 38 36 33 28 26
31 35 38 34 20 22 27 36 39 40 41 42 44 35 30 23 30 34 29 29 26 23 19 19 21 25 16 13 11 12 15 14 12 21 20 29 37 43 38 36 33 38 35 36 37 37 35 32 31
22 26 31 31 24 27 31 39 40 43 41 37 47 35 33 24 22 32 37 33 28 21 18 18 19 22 18 15 14 13 14 16 17 19 24 24 34 37 40 38 38 37 34 41 40 39 38 36 34
24 28 29 33 30 26 32 44 41 41 37 41 38 27 31 25 27 29 27 25 29 22 17 18 19 20 18 14 17 17 17 19 23 28 30 34 32 36 39 37 41 42 39 38 42 41 40 37 37
32 25 30 35 32 30 27 24 39 42 39 35 32 32 30 25 27 33 29 23 22 20 18 18 19 19 16 14 15 18 18 20 23 25 30 37 39 42 41 37 44 46 43 43 42 43 42 40 39
36 28 26 24 27 33 32 15 51 34 43 39 30 30 32 24 24 32 32 31 21 20 19 20 17 18 15 14 13 17 18 17 23 24 29 45 47 49 48 42 36 46 47 45 43 44 45 44 38
25 25 27 30 26 15 25 17 47 35 34 32 26 34 31 28 25 26 34 31 26 22 24 21 16 16 14 13 11 13 17 19 22 22 26 41 50 53 51 46 37 48 46 48 43 50 46 36 39
28 28 6 6 5 14 26 24 40 31 34 33 32 33 33 30 26 29 29 34 30 26 22 17 15 14 14 11 8 11 17 13 17 22 23 29 42 44 55 46 47 47 47 45 40 48 40 42 39
19 26 17 5 8 14 22 12 21 7 21 30 27 31 36 33 23 24 28 35 31 26 18 16 15 13 12 8 5 8 14 12 14 17 15 25 30 43 33 47 48 47 41 43 40 42 52 49 43
18 23 27 29 26 10 20 33 38 35 30 21 17 12 11 19 19 15 29 33 27 22 20 17 14 13 9 5 2 3 9 14 12 10 12 16 26 33 34 37 55 40 40 35 24 45 43 46 38
7 8 8 9 4 12 9 19 21 22 20 21 17 3 4 15 14 14 19 21 19 20 21 19 16 14 10 5 3 3 3 8 10 10 15 13 19 9 18 32 40 46 41 42 26 39 34 33 29
11 8 10 9 15 7 6 6 7 11 22 24 18 11 5 9 18 24 22 14 12 21 23 20 18 16 10 7 6 6 6 4 7 9 10 15 16 14 16 19 36 40 32 38 24 20 19 20 19
9 10 13 8 8 7 17 23 26 23 19 23 15 12 9 6 2 21 33 24 10 21 25 21 19 17 14 10 7 8 7 8 6 10 10 13 16 16 16 16 20 28 25 19 22 20 13 16 17

GFSSGP_700_spd_111.txt.gz
Wind_Speed
9 8 9 9 6 5 4 2 10 9 9 9 10 11 14 17 17 17 14 14 13 16 19 20 12 12 11 10 13 14 17 20 20 20 19 19 20 20 20 18 16 17 18 17 16 16 16 14 13
11 11 10 9 7 7 4 5 2 9 10 13 15 12 14 17 17 14 15 15 15 15 18 15 12 14 12 11 13 16 19 21 21 21 21 22 21 20 19 17 17 18 20 18 18 19 18 16 15
14 11 10 7 12 13 7 6 2 3 10 12 12 13 13 18 17 17 15 13 15 16 17 14 15 16 14 12 13 17 18 22 23 23 23 20 18 17 17 17 18 18 19 19 19 19 19 18 17
14 12 12 15 16 11 11 9 7 9 13 15 13 16 16 14 19 17 14 12 15 16 14 16 18 18 12 12 14 18 20 24 24 25 25 23 24 19 17 17 17 19 19 19 20 20 19 17 15
15 15 16 19 18 14 11 9 8 14 19 20 18 17 14 15 15 12 13 15 16 13 12 14 17 15 12 13 15 17 20 26 27 31 27 25 32 34 22 17 17 22 21 22 22 21 19 17 15
18 18 15 20 17 14 16 10 12 10 16 17 17 14 15 17 15 14 17 18 16 13 12 17 18 15 14 15 17 20 22 25 29 33 41 29 40 30 19 22 14 24 24 24 23 21 18 17 15
22 22 23 21 22 17 16 12 12 2 7 14 17 17 19 18 14 16 17 15 15 15 15 18 18 16 17 17 17 20 24 26 29 34 36 38 38 34 39 26 16 30 28 26 22 20 19 18 16
24 26 28 26 25 21 15 12 8 4 10 11 17 22 19 15 11 15 16 16 17 20 18 18 20 18 18 19 20 20 23 29 32 33 36 37 39 38 39 22 21 26 28 24 23 22 21 16 16
25 30 33 30 27 19 15 12 9 8 7 9 15 21 21 22 20 19 18 20 18 18 20 19 21 21 20 21 22 23 24 30 35 37 36 37 37 36 27 21 30 27 26 27 25 23 21 20 21
30 37 36 31 27 23 27 27 22 21 17 13 13 16 20 22 23 19 19 19 18 18 21 22 24 24 21 23 25 26 27 31 38 42 41 41 38 34 28 27 34 27 28 29 27 25 21 19 22
35 41 34 32 28 28 30 31 21 24 25 18 17 18 24 25 24 20 17 20 19 17 24 24 30 25 23 24 27 29 31 32 38 41 43 40 39 38 34 29 36 32 34 34 31 28 23 21 18
39 37 35 34 29 29 30 30 31 28 28 22 20 21 26 28 29 26 25 27 27 24 26 28 27 24 24 26 30 32 32 34 32 31 36 42 45 43 37 32 31 41 37 33 30 28 28 22 19
38 34 33 32 29 29 30 33 34 36 31 27 24 26 28 27 29 29 26 29 27 26 22 25 25 23 25 28 32 34 35 29 26 25 33 41 41 42 43 44 35 40 39 35 33 31 27 22 14
33 31 31 33 32 31 32 36 36 37 33 34 31 29 27 32 31 30 30 28 30 29 26 27 26 23 26 29 35 35 33 24 27 30 32 40 41 42 45 44 42 42 39 37 35 31 27 25 23
29 31 32 32 30 33 31 45 42 36 37 38 39 36 34 35 37 33 32 30 32 31 30 30 26 24 26 30 35 33 21 22 23 25 28 31 45 45 40 33 50 45 41 39 37 32 30 25 23
22 26 33 29 27 27 27 53 36 29 30 34 36 41 40 36 37 28 27 28 32 34 28 30 28 25 25 30 33 18 17 20 26 27 32 29 42 47 49 40 48 46 44 40 39 35 32 27 26
28 36 35 30 28 26 26 46 35 25 28 36 39 40 35 39 31 25 28 28 21 22 27 31 27 26 24 28 25 15 17 16 13 19 27 31 37 47 43 45 49 44 43 41 38 35 32 29 28
30 34 32 29 22 21 28 40 34 31 31 34 36 36 38 40 27 23 27 22 18 19 26 28 28 25 24 25 21 17 20 14 8 11 19 35 45 40 48 49 48 46 43 42 40 39 35 31 29
33 34 36 33 29 28 33 35 33 28 28 34 38 38 39 39 30 25 26 27 22 24 26 26 27 23 22 24 19 18 20 14 5 6 18 40 45 40 46 48 45 43 43 42 41 39 37 37 33
27 30 35 33 21 18 28 41 38 32 33 34 37 35 30 39 34 24 25 32 32 27 28 24 26 22 20 23 18 19 18 13 10 8 8 25 35 42 50 47 45 43 42 44 42 41 40 39 34
27 29 28 28 24 26 31 46 42 34 34 32 33 31 35 31 36 28 27 21 23 27 27 25 24 21 19 22 18 18 19 17 17 18 19 14 31 38 39 41 42 42 41 41 40 40 41 39 38
27 25 23 25 27 25 26 25 49 37 35 33 32 34 26 20 21 24 23 25 24 18 24 26 24 19 19 21 18 16 18 18 16 20 21 23 23 38 46 45 43 41 42 41 40 41 40 39 41
37 25 24 26 29 30 32 13 49 29 43 43 37 33 29 25 23 27 25 21 23 24 22 26 24 18 19 19 17 17 18 19 19 21 22 24 28 37 36 45 43 45 45 44 41 43 44 42 41
17 16 18 22 20 13 31 17 50 31 33 37 39 26 28 28 25 29 32 27 25 29 28 27 25 18 19 18 17 17 18 21 23 23 26 28 31 38 40 43 46 47 48 48 45 42 44 44 42
22 23 3 4 4 11 21 20 35 33 33 27 22 30 36 28 24 31 37 31 23 28 32 29 22 20 18 17 16 17 19 21 23 24 26 30 33 40 47 45 48 48 41 49 48 46 45 45 48
11 11 11 6 5 8 19 8 14 26 26 30 37 40 30 30 22 31 35 26 22 30 33 30 20 19 17 15 15 16 18 19 20 19 21 28 32 38 49 50 53 49 47 40 53 50 46 48 48
12 17 14 24 24 7 16 22 30 26 21 24 24 25 23 22 15 24 30 24 22 30 34 27 19 19 17 14 13 12 15 14 15 13 17 18 23 31 43 48 50 57 43 43 48 48 45 45 45
5 5 4 5 3 6 7 7 16 22 16 21 29 30 22 19 28 25 27 29 26 29 33 26 21 20 16 14 10 10 10 10 13 12 11 10 11 22 24 35 45 54 50 45 43 43 39 31 45
11 6 1 2 6 3 4 6 4 11 21 23 28 28 31 18 11 10 17 18 28 31 33 25 24 21 17 13 9 7 7 7 9 10 7 13 12 7 13 32 28 40 48 40 44 43 35 21 34
5 2 3 4 6 9 7 8 16 17 20 26 31 35 34 7 8 6 8 12 23 31 32 26 25 20 17 15 10 8 7 6 8 6 8 7 11 11 14 13 20 26 36 38 41 40 37 34 36

GFSSGP_700_spd_114.txt.gz
Wind_Speed
12 11 11 12 7 5 3 4 9 9 9 9 7 10 6 9 13 13 18 12 11 11 13 16 15 7 6 6 6 8 11 12 15 18 18 19 20 21 20 18 15 16 16 14 13 14 15 13 12
12 12 13 12 8 7 5 4 7 11 14 9 13 11 10 13 13 16 15 9 11 12 14 12 9 10 9 8 6 7 11 13 17 19 19 19 20 21 20 19 16 17 16 16 15 15 16 15 14
13 13 13 8 13 14 6 8 6 3 11 14 12 12 14 15 13 17 14 9 11 12 12 10 12 12 11 8 7 8 11 14 18 19 20 20 19 18 18 17 15 15 17 18 18 17 17 16 15
14 16 15 16 18 9 9 11 3 8 10 13 14 15 15 13 14 14 15 10 10 12 6 9 14 14 11 9 9 9 13 16 18 24 24 23 17 15 20 18 17 15 17 17 19 17 17 16 15
17 18 18 19 21 17 12 14 12 10 13 20 22 20 18 14 15 13 12 10 12 12 10 10 13 14 11 10 10 10 13 17 22 25 22 17 21 23 24 21 18 16 17 18 19 18 17 16 14
20 20 18 23 23 18 16 13 14 11 12 10 19 21 19 13 14 10 9 11 12 10 12 12 13 15 13 10 11 11 14 18 21 27 29 36 29 21 26 15 25 23 19 19 20 20 18 15 14
24 23 24 23 27 21 18 14 12 12 9 10 16 19 14 13 14 10 10 10 9 11 13 15 16 17 14 13 12 13 14 19 22 26 28 35 35 26 30 32 22 22 19 19 21 21 16 16 16
26 26 29 26 28 26 22 17 13 12 11 12 10 15 15 13 17 15 12 15 13 14 15 16 18 18 16 15 15 15 17 20 23 26 28 31 31 29 34 33 27 23 21 19 21 21 18 19 19
27 30 35 29 28 25 22 15 16 15 15 13 11 11 15 14 16 20 17 17 16 15 14 16 19 20 19 16 17 18 20 24 25 26 29 30 30 30 35 29 23 26 23 22 22 23 22 22 21
31 38 39 31 28 27 27 26 22 25 22 21 18 13 14 14 12 17 14 14 17 17 16 16 19 21 22 19 18 21 24 27 28 30 31 32 34 34 32 28 25 29 26 26 25 26 24 23 24
36 44 37 33 30 29 30 32 27 29 31 24 23 21 21 20 18 17 21 18 18 18 19 20 19 20 23 21 20 22 25 29 31 32 33 33 34 35 33 29 28 28 28 27 30 29 26 24 21
39 41 36 35 31 33 33 33 35 32 31 27 27 25 25 24 23 23 20 22 23 23 18 22 19 19 23 23 22 24 27 30 33 33 36 34 34 35 35 31 31 28 29 33 31 30 27 24 22
39 41 37 36 33 34 33 34 35 37 31 28 29 28 26 23 22 23 25 24 26 25 23 20 19 22 23 25 23 26 30 33 35 35 32 31 34 33 38 34 33 32 26 38 34 31 29 27 25
32 30 32 35 34 33 35 36 35 35 30 33 32 30 29 30 28 28 29 28 31 28 25 26 26 27 26 28 27 28 32 35 37 32 25 25 25 30 39 39 39 31 31 38 35 33 32 29 26
30 32 34 34 31 32 29 40 37 32 31 32 32 30 26 29 32 34 35 32 32 33 30 27 29 28 29 28 31 30 33 34 27 21 24 27 28 36 36 40 39 38 31 39 38 36 34 31 28
21 27 32 27 26 26 25 43 33 25 26 28 28 31 32 33 36 38 40 37 32 32 31 28 30 29 29 28 31 30 31 25 18 18 24 28 32 29 32 37 43 39 37 45 41 39 35 31 26
28 31 31 30 25 23 25 38 30 23 25 28 28 27 30 33 38 38 41 37 33 30 30 25 22 28 28 30 31 29 28 20 17 19 24 30 38 39 34 40 36 46 45 46 44 40 37 32 30
30 33 34 30 22 19 22 36 32 28 29 30 30 30 32 35 34 34 38 32 33 30 25 23 23 27 28 29 30 27 26 20 18 19 23 25 34 35 35 44 38 45 47 48 44 41 36 33 30
33 29 27 25 26 27 31 38 31 28 28 28 28 27 32 31 29 31 33 33 30 31 26 24 22 26 25 27 28 25 22 19 17 19 21 21 27 41 51 43 48 37 48 45 43 38 36 36 33
34 35 38 35 25 20 22 37 33 30 30 28 25 26 27 28 32 31 28 31 27 28 26 26 26 24 24 25 27 24 21 18 17 17 16 11 22 32 36 45 43 44 48 48 45 42 42 39 34
34 32 30 27 24 22 28 43 33 29 25 22 18 26 28 26 31 30 23 29 28 26 28 28 30 26 23 25 24 22 21 17 19 17 14 4 23 30 30 42 44 48 47 47 46 43 41 38 36
33 33 29 25 16 11 14 15 33 24 12 18 31 23 27 29 22 21 18 25 23 28 23 24 29 27 25 25 22 21 21 14 15 17 16 7 12 32 33 44 48 48 47 46 45 42 41 39 40
31 23 20 20 17 18 20 9 10 8 35 18 22 30 26 20 23 21 20 22 23 21 27 21 21 25 27 24 22 20 21 14 15 17 17 17 15 14 36 47 50 49 45 45 44 44 43 41 38
13 6 7 11 15 7 15 12 40 19 8 23 24 20 21 28 34 24 21 22 24 15 20 25 24 26 28 24 22 20 20 16 16 19 19 19 20 19 21 39 42 43 44 45 45 44 44 43 40
16 12 1 2 3 5 1 10 31 25 13 22 30 26 28 25 25 24 22 22 24 27 23 23 27 28 27 23 22 19 19 18 16 18 19 23 23 26 28 35 41 44 45 45 46 45 44 43 39
17 24 10 5 4 3 9 8 5 18 24 26 23 23 21 25 26 26 24 22 27 30 30 23 29 30 27 23 20 18 19 18 16 19 21 23 25 28 30 35 35 40 46 48 48 47 45 45 44
10 11 9 12 11 1 7 17 19 18 13 23 20 20 20 21 21 25 24 29 26 36 32 26 30 30 27 23 19 17 17 16 15 16 18 20 22 26 33 40 43 48 48 50 49 48 49 55 53
9 7 5 5 3 5 3 5 4 8 12 16 20 25 28 26 30 30 33 29 36 34 34 30 33 29 27 23 18 15 15 14 14 15 17 17 19 22 36 39 42 44 50 49 54 49 49 48 48
8 8 5 2 1 1 2 3 8 5 16 21 24 25 31 34 40 25 26 34 34 39 34 33 33 30 28 23 17 13 12 12 12 15 15 11 16 15 25 27 33 49 41 54 45 47 42 40 44
4 4 8 5 4 4 1 8 15 13 19 25 27 30 35 40 29 20 19 22 33 35 30 33 34 30 28 22 16 12 11 10 10 14 14 10 12 13 8 14 19 31 22 45 44 38 39 34 42

GFSSGP_700_spd_117.txt.gz
Wind_Speed
13 13 13 10 6 5 7 7 9 9 9 13 9 11 4 7 6 7 16 12 7 9 10 14 14 9 6 4 5 6 7 7 8 10 12 13 14 16 16 15 14 12 11 10 10 12 13 13 12
13 14 13 12 8 6 6 9 13 14 12 13 12 11 8 7 7 12 13 10 9 8 12 12 10 10 7 4 3 3 6 8 9 11 12 14 16 18 19 18 15 15 14 12 11 12 13 13 13
13 14 13 8 12 14 6 10 11 11 14 16 11 12 12 8 8 10 11 10 8 9 10 9 13 12 9 6 5 4 5 8 10 13 13 15 17 18 18 17 14 15 14 13 13 12 12 14 14
14 15 15 16 18 9 8 13 12 7 7 11 16 14 14 9 7 7 8 8 5 9 7 10 13 15 11 8 6 6 6 8 10 11 14 19 17 19 20 18 14 14 12 12 12 15 14 15 14
16 18 19 20 21 19 11 16 13 10 10 15 18 20 15 10 7 6 7 7 6 7 6 11 14 14 14 10 9 7 8 9 11 15 16 19 21 21 14 15 17 17 13 14 14 16 15 14 12
21 21 20 24 24 21 15 16 18 18 15 16 18 23 17 11 8 5 6 6 6 5 6 9 11 13 14 12 11 9 10 10 12 16 20 24 24 24 22 20 27 20 10 19 15 17 15 13 13
24 25 28 27 26 24 18 15 15 15 15 14 14 17 16 14 13 4 5 6 9 9 11 11 11 12 13 13 12 12 12 13 13 16 19 22 23 26 30 24 15 13 28 29 18 18 15 14 14
27 28 28 30 28 29 23 19 17 14 15 12 12 13 18 19 16 7 7 10 14 14 13 13 11 12 13 14 15 14 14 16 16 16 19 20 23 27 27 24 21 30 24 21 17 15 16 16 16
27 33 34 33 27 29 22 10 8 15 21 16 13 14 18 20 18 14 8 12 15 16 16 15 14 14 15 15 17 17 17 18 19 19 20 22 23 25 26 25 25 30 23 22 18 17 19 18 20
31 39 41 36 27 29 29 25 25 22 24 20 16 13 16 20 16 14 13 10 13 14 16 16 16 17 18 17 17 18 19 20 22 21 23 24 25 25 25 24 26 25 20 26 23 20 21 22 23
37 45 39 37 28 29 33 32 29 28 27 25 22 23 22 20 21 19 17 16 12 15 17 18 19 21 19 18 17 18 20 22 25 24 27 26 27 26 28 28 28 26 27 25 29 29 26 24 23
40 42 39 36 30 31 33 33 35 31 30 25 28 27 30 29 27 25 22 18 17 18 19 18 21 23 21 19 19 18 21 24 27 27 29 29 28 28 30 29 29 29 22 23 20 28 27 27 25
38 39 38 36 33 34 33 35 33 35 29 25 25 26 28 31 32 27 23 21 22 22 24 23 24 25 24 24 23 22 21 26 30 32 30 31 30 30 27 30 28 27 23 22 21 28 30 29 28
32 30 25 27 32 34 35 34 32 35 26 28 28 27 28 28 28 28 27 26 26 26 26 27 27 28 28 28 27 26 24 26 31 36 33 31 30 27 29 29 33 31 30 19 24 30 32 32 28
31 33 32 32 29 29 26 36 36 28 26 26 28 27 27 27 28 29 29 33 33 31 32 30 29 32 29 28 30 28 27 28 32 36 31 23 22 21 26 25 30 34 30 28 32 37 34 33 30
21 24 23 23 24 26 26 35 13 19 21 21 22 23 26 27 30 30 32 36 37 36 36 34 33 34 30 28 31 29 29 29 34 32 25 21 22 25 28 25 31 38 36 33 28 41 35 35 33
26 23 28 21 14 18 22 26 20 20 16 18 22 24 25 27 27 27 31 37 39 40 38 36 34 32 32 28 30 30 30 29 33 29 24 23 23 28 33 29 30 42 37 38 36 40 36 37 34
24 32 24 22 15 20 25 29 23 20 23 26 24 23 22 25 25 29 34 35 36 36 37 32 33 32 26 28 29 31 28 28 32 26 23 24 25 27 32 39 33 36 37 40 40 38 40 38 35
32 28 26 12 10 17 27 35 32 26 24 22 19 19 22 23 23 28 29 31 32 32 33 30 33 28 29 26 25 27 26 27 31 24 22 26 27 31 34 43 36 42 45 43 43 44 44 43 39
30 33 36 34 31 29 30 36 27 22 21 18 15 15 16 20 23 25 26 30 30 29 26 31 33 29 27 25 22 25 26 26 28 23 22 24 27 30 36 37 47 42 44 48 46 47 47 44 40
29 33 32 28 20 23 27 34 20 10 6 9 5 15 18 19 23 22 22 24 24 24 26 28 28 26 27 25 22 25 25 25 25 20 18 23 20 18 27 39 43 41 43 48 49 51 49 45 42
25 25 28 26 17 11 8 9 10 9 7 3 12 12 19 20 17 16 15 21 22 23 25 28 29 30 28 27 24 25 24 26 21 18 16 21 16 14 17 38 40 44 42 47 51 49 45 43 40
40 26 10 10 17 15 17 10 9 13 9 5 7 15 20 20 20 19 20 21 23 20 22 30 25 26 25 25 26 24 24 26 19 18 17 20 16 7 15 26 37 44 45 46 50 47 46 41 41
22 16 12 11 12 8 18 16 7 11 3 11 9 18 23 22 21 23 21 16 16 22 16 24 30 26 22 23 24 22 24 25 19 17 17 19 18 12 13 22 25 38 40 47 45 43 43 42 41
25 15 5 5 6 6 11 15 6 10 7 7 14 14 13 20 20 24 24 19 14 15 25 19 20 26 23 25 24 22 23 25 19 17 18 19 21 19 16 22 39 41 46 44 43 43 43 42 42
21 25 9 8 7 4 12 8 7 7 3 4 5 7 16 18 23 22 23 25 22 18 24 29 25 19 26 28 24 22 23 24 18 17 17 19 20 19 22 18 24 41 46 48 44 43 43 43 43
22 23 27 15 4 3 7 7 7 6 7 6 11 8 15 19 23 24 27 30 29 23 26 29 32 25 28 29 25 23 21 23 17 16 16 18 20 21 20 27 27 31 45 43 48 45 45 45 44
12 17 9 8 7 8 7 6 7 7 6 7 10 15 17 22 27 28 28 33 33 27 28 28 34 37 32 30 26 23 21 22 17 16 15 15 19 23 24 29 34 36 41 38 41 46 46 45 46
9 9 6 9 4 5 4 4 13 4 6 11 20 21 25 27 29 32 33 30 31 29 29 30 32 35 35 33 28 25 22 21 17 14 14 15 18 22 24 25 34 37 43 50 46 47 49 51 53
11 16 11 8 6 4 1 6 9 10 10 15 23 25 25 29 31 26 29 35 28 29 31 27 32 32 33 32 27 25 22 20 16 13 14 15 15 20 22 20 21 32 44 43 46 54 53 54 54

GFSSGP_700_spd_123.txt.gz
Wind_Speed
13 11 9 5 6 11 20 18 13 9 11 11 10 11 9 7 5 2 1 9 10 12 7 7 9 8 7 6 5 7 11 10 8 6 6 7 6 6 5 6 8 7 7 9 8 8 8 7 7
12 10 8 5 12 21 19 15 11 11 10 13 13 12 10 7 8 5 11 11 11 10 8 9 11 9 7 7 5 4 5 7 7 7 6 7 6 7 8 8 10 11 11 11 9 9 9 8 8
11 10 7 11 20 23 18 8 12 13 13 16 12 12 11 9 9 6 9 8 10 9 7 7 9 11 10 8 7 4 3 4 7 8 8 8 9 9 9 10 15 14 12 13 12 10 10 9 8
11 11 13 16 21 17 15 9 11 12 10 14 13 13 14 10 9 7 10 8 9 7 5 4 5 9 9 9 8 6 1 3 4 6 8 9 10 12 13 11 23 7 13 14 14 9 10 9 10
13 10 18 21 22 20 13 12 13 12 11 12 17 17 10 14 12 15 13 14 11 6 3 2 3 6 7 6 8 6 3 1 3 5 7 9 10 10 14 18 28 14 18 3 10 10 11 11 11
14 13 22 24 24 20 18 15 17 14 14 14 16 18 17 18 17 13 20 19 14 10 6 4 4 5 5 6 6 5 3 0 3 5 6 9 9 11 12 17 21 19 15 16 21 9 8 10 10
21 21 25 26 25 21 15 16 19 18 19 17 14 15 17 14 28 24 21 22 16 12 10 8 7 8 8 8 7 6 4 4 4 5 6 8 10 13 14 17 19 16 15 13 8 8 12 12 13
21 23 31 31 28 28 21 19 18 19 20 21 21 16 17 21 23 26 23 26 21 16 13 13 11 10 10 10 10 9 8 7 7 8 8 8 10 14 17 16 17 15 16 10 9 12 16 18 17
19 29 35 31 27 25 17 16 16 14 21 19 18 18 20 22 26 26 25 28 25 22 18 16 15 15 13 14 11 12 12 10 9 11 11 11 14 16 18 19 16 15 16 16 19 17 11 15 18
30 30 34 26 24 23 23 16 15 18 19 22 19 19 28 36 31 15 19 25 27 26 23 21 19 17 17 17 14 13 14 15 12 12 13 15 16 18 20 21 18 18 19 19 19 14 14 14 19
30 40 28 25 24 25 26 23 19 21 21 20 19 20 21 20 20 24 25 24 22 28 27 26 22 20 20 20 18 18 17 18 16 14 15 17 19 19 20 21 23 21 21 24 24 22 16 17 19
34 34 28 28 29 25 30 25 29 29 29 25 24 22 23 25 23 23 25 25 25 24 31 29 27 25 25 25 23 21 22 21 21 19 17 18 20 21 22 23 25 24 24 25 26 28 25 24 22
36 30 32 27 27 28 28 30 30 33 28 27 27 26 26 25 25 24 28 31 32 33 33 32 30 30 28 28 27 25 26 23 25 25 22 20 21 23 24 24 27 26 27 26 30 25 17 18 22
27 29 32 32 33 31 31 34 31 33 29 30 30 29 28 27 24 26 25 34 35 35 34 35 35 34 32 31 30 28 28 28 26 28 26 24 24 24 25 24 27 29 28 26 32 26 22 17 31
28 32 31 32 25 26 24 34 36 30 30 33 30 28 24 26 25 24 24 24 23 23 26 35 38 37 36 33 33 28 29 30 31 29 27 27 25 26 26 24 24 28 27 33 27 23 26 20 28
22 25 35 32 30 30 26 44 27 22 24 29 29 27 25 22 25 23 21 20 22 24 26 34 30 41 40 39 38 35 32 28 33 31 28 27 27 27 27 26 25 22 28 35 22 29 23 21 28
34 36 32 27 24 26 27 38 25 24 23 21 18 20 18 18 18 20 20 20 21 24 32 38 39 40 40 39 43 40 35 31 31 34 29 27 27 28 29 28 27 24 27 25 24 30 36 30 33
29 32 33 34 28 24 27 33 25 20 22 23 21 22 21 19 19 17 17 24 28 31 32 32 32 33 35 35 36 40 38 32 30 33 31 27 27 30 31 30 28 29 30 31 32 31 30 35 31
33 32 32 30 22 20 32 28 26 26 28 25 23 23 22 19 16 15 16 19 28 29 30 30 30 31 33 35 35 36 35 28 29 30 31 26 27 29 31 31 29 29 34 33 31 28 38 40 34
34 33 37 34 29 26 29 31 27 26 29 27 26 25 20 18 17 16 15 15 23 26 28 28 29 30 30 32 32 36 31 27 28 29 27 27 26 28 30 30 30 30 29 33 31 42 43 42 39
34 36 35 33 28 26 29 36 34 30 32 31 27 23 19 20 16 15 12 13 22 26 25 26 27 28 26 30 32 32 29 29 31 29 28 25 24 28 31 30 31 29 32 35 37 38 43 41 47
30 28 31 30 28 31 31 30 32 29 26 27 28 23 20 15 12 10 9 11 18 23 23 24 23 24 27 27 29 28 29 31 31 28 24 25 24 26 29 31 31 30 31 37 40 41 36 46 47
33 21 20 22 26 28 31 29 29 19 21 18 21 22 18 16 11 7 8 10 15 21 22 22 22 24 27 27 30 28 29 30 29 29 28 25 24 25 27 30 29 27 32 39 35 33 39 55 44
31 29 28 24 24 21 40 34 32 27 27 22 22 19 16 12 8 6 8 10 12 16 20 21 20 23 25 27 30 30 30 30 31 30 26 25 24 24 27 29 24 26 29 38 36 41 45 57 45
21 23 16 14 16 20 28 32 30 16 22 28 26 17 13 7 6 4 7 12 16 17 18 21 21 23 24 24 29 30 34 34 34 29 28 25 24 24 27 25 22 24 25 24 33 39 31 48 49
27 26 20 15 13 17 33 22 27 31 18 18 20 15 10 6 6 5 9 16 18 19 19 20 22 24 25 24 27 30 34 35 33 29 26 26 26 24 27 24 22 23 23 26 30 36 45 49 54
17 25 31 34 29 13 15 24 9 13 18 17 13 10 9 8 8 7 14 21 20 18 20 20 23 25 26 27 25 29 33 33 32 29 25 25 27 26 26 23 23 21 18 18 28 27 35 51 52
16 17 17 19 6 19 18 19 15 23 21 18 15 10 6 5 7 10 12 13 17 17 18 19 23 25 26 29 28 27 32 33 31 31 26 25 25 27 26 22 22 23 20 16 18 27 38 42 50
8 19 22 18 18 12 15 20 25 23 22 20 14 8 6 9 11 14 22 23 23 22 21 19 23 25 28 26 31 31 28 32 34 33 27 25 25 26 26 21 22 21 21 19 19 27 30 41 51
7 7 18 12 22 27 29 13 6 28 25 17 11 3 6 15 16 13 16 15 17 25 26 25 22 27 27 27 30 33 34 28 34 31 28 25 25 26 24 22 22 21 23 20 21 23 27 39 52

GFSSGP_700_spd_126.txt.gz
Wind_Speed
9 8 6 7 6 10 17 22 23 4 6 4 9 6 5 1 1 7 12 11 13 15 13 8 7 7 6 5 5 3 3 6 8 7 7 9 10 9 7 6 5 6 6 9 8 8 8 7 8
9 9 5 3 14 17 24 22 14 6 10 14 13 9 11 4 8 8 13 12 18 15 11 8 8 9 8 7 6 5 3 2 5 6 5 7 8 7 7 7 8 9 11 10 10 11 11 10 8
8 9 6 9 18 24 27 16 2 10 15 16 9 10 9 9 11 9 15 14 15 14 9 5 7 10 10 8 7 4 2 1 4 5 5 6 7 6 7 9 9 8 16 14 14 11 13 10 8
8 10 13 17 22 21 23 21 5 3 6 18 11 11 12 9 10 12 15 18 17 16 9 4 5 8 10 10 8 6 3 2 4 4 6 6 6 7 5 7 10 14 6 13 13 17 12 8 7
11 9 18 19 23 24 24 21 5 12 10 10 12 15 10 20 14 13 17 19 18 15 7 3 1 5 7 8 8 6 4 1 2 3 5 7 7 4 5 11 12 15 18 16 14 19 14 7 6
14 12 19 24 24 24 22 22 18 12 12 13 13 15 14 19 20 20 15 19 13 16 8 6 3 2 3 5 6 5 3 0 1 2 4 5 5 5 7 10 10 13 15 13 9 12 13 7 6
21 19 27 25 25 26 23 15 22 20 19 19 15 15 18 16 22 21 18 19 17 21 11 10 7 4 4 5 4 4 4 3 4 4 4 4 6 8 9 13 11 13 13 13 8 8 14 7 8
21 23 29 30 30 31 24 25 19 19 20 18 23 18 13 26 23 22 22 24 23 22 19 13 11 8 7 7 7 5 5 6 5 6 6 6 7 9 11 11 14 13 12 11 5 7 12 12 14
21 29 37 31 29 29 24 24 21 15 18 18 24 22 13 21 22 20 24 28 29 26 24 19 15 14 12 12 12 10 7 7 7 7 7 8 9 12 12 12 13 15 13 11 10 13 13 22 16
29 38 38 27 27 28 25 26 21 16 20 21 25 19 29 22 29 24 27 31 32 28 29 26 21 19 17 17 17 14 13 10 10 9 8 10 12 14 14 14 15 17 16 16 17 17 16 20 14
29 45 31 30 26 25 29 30 18 20 23 23 25 23 23 29 27 27 21 18 21 27 31 32 27 22 22 20 19 19 17 16 15 14 11 12 14 16 16 17 16 16 20 20 18 19 18 13 12
36 35 34 33 30 31 28 27 32 24 22 22 20 22 20 24 26 29 24 25 26 22 25 32 32 28 26 26 23 23 22 20 20 18 18 15 15 17 16 19 20 19 20 21 20 20 23 19 14
33 33 34 33 34 34 30 32 33 38 28 29 31 32 29 26 26 25 24 22 26 27 24 29 35 33 30 30 27 25 26 24 24 23 22 21 19 20 18 20 21 23 22 22 23 22 23 22 24
28 32 32 34 36 32 33 32 33 43 32 33 33 32 34 39 33 31 29 29 29 31 31 35 38 35 33 33 31 28 28 27 25 26 25 23 22 23 22 21 22 22 24 22 22 21 24 23 22
28 34 34 36 32 30 29 39 46 40 34 36 35 37 37 37 33 33 30 29 30 34 27 31 36 39 37 36 36 33 31 30 25 27 29 26 24 26 23 21 22 23 23 20 23 24 29 27 23
31 26 32 31 30 34 30 48 32 31 31 32 35 35 35 33 30 31 31 29 27 25 23 28 30 38 44 42 38 35 33 31 29 27 27 29 26 27 25 23 22 24 24 22 27 20 27 29 25
31 35 37 38 27 29 32 45 36 30 29 33 33 31 31 32 32 27 26 26 23 22 29 32 30 30 37 39 35 37 37 37 33 33 31 28 28 29 27 24 23 25 27 26 23 27 22 24 32
28 29 33 35 28 28 34 31 28 25 26 29 33 28 24 28 25 19 22 25 26 33 37 41 45 43 41 39 37 35 35 36 37 37 36 30 30 31 29 26 26 26 28 26 28 22 19 20 31
32 33 38 36 28 28 18 22 39 28 26 29 25 23 23 24 25 23 22 24 30 33 39 36 33 31 32 35 38 36 36 30 32 34 36 33 30 30 29 26 26 27 28 26 27 25 24 15 29
32 36 40 37 30 30 24 36 35 34 27 31 25 32 26 24 25 22 25 27 29 39 40 34 30 28 30 31 36 36 34 35 30 31 32 31 30 28 28 26 26 26 27 27 28 31 31 27 27
29 34 36 36 33 28 26 38 37 39 38 35 38 20 26 27 24 24 28 25 27 26 26 24 24 25 27 28 30 33 36 33 29 28 28 29 29 28 27 26 27 26 27 28 28 32 32 31 26
38 28 28 30 30 27 26 26 36 36 35 32 38 33 27 25 23 25 22 17 16 21 20 22 23 23 24 26 26 32 30 31 27 28 27 29 30 28 28 27 26 26 27 29 30 30 31 36 31
36 28 28 25 25 26 31 27 38 28 38 42 36 37 29 30 27 23 14 15 19 22 18 20 23 23 23 24 23 31 26 27 27 29 30 31 31 30 29 26 26 26 27 28 29 31 31 35 38
27 25 26 30 26 20 37 27 44 32 33 22 25 18 28 27 24 21 15 18 9 18 15 16 20 22 22 22 24 28 27 28 30 30 32 33 32 31 27 26 27 25 25 28 29 32 29 31 39
31 26 16 8 15 17 16 21 41 18 28 20 20 25 26 23 17 16 12 12 15 15 16 15 18 20 21 22 24 26 28 30 29 29 32 31 32 30 25 26 27 26 25 27 29 27 33 48 40
20 20 21 21 13 17 23 18 49 31 30 21 27 34 28 21 16 14 10 11 10 15 17 14 17 18 24 19 23 24 26 30 28 30 30 29 33 28 26 26 25 26 26 27 26 28 24 37 38
13 17 19 27 33 20 16 25 16 13 26 19 27 27 21 17 17 10 10 10 14 15 17 16 15 18 23 21 20 25 25 27 28 31 33 34 34 29 26 26 24 25 27 27 27 24 24 34 37
23 16 12 12 4 13 19 26 8 19 17 27 21 17 17 15 17 12 8 8 15 18 19 18 17 17 20 23 24 22 25 25 28 33 36 35 35 29 26 25 24 24 25 27 25 18 23 33 37
16 19 13 16 13 8 11 18 18 20 17 16 26 21 16 12 8 5 10 17 21 24 24 22 21 18 19 21 24 26 25 25 27 34 35 35 34 29 26 25 23 23 24 25 23 11 14 25 27
17 15 9 5 8 15 23 26 4 14 18 7 17 14 10 12 8 12 15 14 15 20 28 21 21 24 23 23 22 27 25 28 29 31 36 35 34 30 28 26 23 22 22 25 21 15 15 16 25